[[{"header":{"parameterUnit":"m.s-1","parameterCategory":1,"la1":31.0,"la2":29.5877,"lo1":-88.7671,"lo2":-86.6584,"dy":0.0162,"dx":0.0185,"nx":115,"ny":88,"refTime":"2023-09-29T06:00:00:Z","depth":0,"parameterNumber":2,"parameterNumberName":"U-component_of_WINDS"},"data":[0.0,0.0,0.0,0.0,0.0,0.0,0.0,0.0,0.0,0.0,0.0,0.0,0.0,0.0,0.0,0.0,0.0,0.0,0.0,0.0,0.0,0.0,0.0,0.0,0.0,0.0,0.0,0.0,0.0,0.0,0.0,0.0,0.0,0.0,0.0,0.0,0.0,0.0,0.0,0.0,0.0,0.0,0.0,0.0,0.0,0.0,0.0,0.0,0.0,0.0,0.0,0.0,0.0,0.0,0.0,0.0,0.0,0.0,0.0,0.0,0.0,0.0,0.0,0.0,0.0,0.0,0.0,0.0,0.0,0.0,0.0,0.0,0.0,0.0,0.0,0.0,0.0,0.0,0.0,0.0,0.0,0.0,0.0,0.0,0.0,0.0,0.0,0.0,0.0,0.0,0.0,0.0,0.0,0.0,0.0,0.0,0.0,0.0,0.0,0.0,0.0,0.0,0.0,0.0,0.0,0.0,0.0,0.0,0.0,0.0,0.0,0.0,0.0,0.0,0.0,0.0,0.0,0.0,0.0,0.0,0.0,0.0,0.0,0.0,0.0,0.0,0.0,0.0,0.0,0.0,0.0,0.0,0.0,0.0,0.0,0.0,0.0,0.0,0.0,0.0,0.0,0.0,0.0,0.0,0.0,0.0,0.0,0.0,0.0,0.0,0.0,0.0,0.0,0.0,0.0,0.0,0.0,0.0,0.0,0.0,0.0,0.0,0.0,0.0,0.0,0.0,0.0,0.0,0.0,0.0,0.0,0.0,0.0,0.0,0.0,0.0,0.0,0.0,0.0,0.0,0.0,0.0,0.0,0.0,0.0,0.0,0.0,0.0,0.0,0.0,0.0,0.0,0.0,0.0,0.0,0.0,0.0,0.0,0.0,0.0,0.0,0.0,0.0,0.0,0.0,0.0,0.0,0.0,0.0,0.0,0.0,0.0,0.0,0.0,0.0,0.0,0.0,0.0,0.0,0.0,0.0,0.0,0.0,0.0,0.0,0.0,0.0,0.0,0.0,0.0,0.0,0.0,0.0,0.0,0.0,0.0,0.0,0.0,0.0,0.0,0.0,0.0,0.0,0.0,0.0,0.0,0.0,0.0,0.0,0.0,0.0,0.0,0.0,0.0,0.0,0.0,0.0,0.0,0.0,0.0,0.0,0.0,0.0,0.0,0.0,0.0,0.0,0.0,0.0,0.0,0.0,0.0,0.0,0.0,0.0,0.0,0.0,0.0,0.0,0.0,0.0,0.0,0.0,0.0,0.0,0.0,0.0,0.0,0.0,0.0,0.0,0.0,0.0,0.0,0.0,0.0,0.0,0.0,0.0,0.0,0.0,0.0,0.0,0.0,0.0,0.0,0.0,0.0,0.0,0.0,0.0,0.0,0.0,0.0,0.0,0.0,0.0,0.0,0.0,0.0,0.0,0.0,0.0,0.0,0.0,0.0,0.0,0.0,0.0,0.0,0.0,0.0,0.0,0.0,0.0,0.0,0.0,0.0,0.0,0.0,0.0,0.0,0.0,0.0,0.0,0.0,0.0,0.0,0.0,0.0,0.0,0.0,0.0,0.0,0.0,0.0,0.0,0.0,0.0,0.0,0.0,0.0,0.0,0.0,0.0,0.0,0.0,0.0,0.0,0.0,0.0,0.0,0.0,0.0,0.0,0.0,0.0,0.0,0.0,0.0,0.0,0.0,0.0,0.0,0.0,0.0,0.0,0.0,0.0,0.0,0.0,0.0,0.0,0.0,0.0,0.0,0.0,0.0,0.0,0.0,0.0,0.0,0.0,0.0,0.0,0.0,0.0,0.0,0.0,0.0,0.0,0.0,0.0,0.0,0.0,0.0,0.0,0.0,0.0,0.0,0.0,0.0,0.0,0.0,0.0,0.0,0.0,0.0,0.0,0.0,0.0,0.0,0.0,0.0,0.0,0.0,0.0,0.0,0.0,0.0,0.0,0.0,0.0,0.0,0.0,0.0,0.0,0.0,0.0,0.0,0.0,0.0,0.0,0.0,0.0,0.0,0.0,0.0,0.0,0.0,0.0,0.0,0.0,0.0,0.0,0.0,0.0,0.0,0.0,0.0,0.0,0.0,0.0,0.0,0.0,0.0,0.0,0.0,0.0,0.0,0.0,0.0,0.0,0.0,0.0,0.0,0.0,0.0,0.0,0.0,0.0,0.0,0.0,0.0,0.0,0.0,0.0,0.0,0.0,0.0,0.0,0.0,0.0,0.0,0.0,0.0,0.0,0.0,0.0,0.0,0.0,0.0,0.0,0.0,0.0,0.0,0.0,0.0,0.0,0.0,0.0,0.0,0.0,0.0,0.0,0.0,0.0,0.0,0.0,0.0,0.0,0.0,0.0,0.0,0.0,0.0,0.0,0.0,0.0,0.0,0.0,0.0,0.0,0.0,0.0,0.0,0.0,0.0,0.0,0.0,0.0,0.0,0.0,0.0,0.0,0.0,0.0,0.0,0.0,0.0,0.0,0.0,0.0,0.0,0.0,0.0,0.0,0.0,0.0,0.0,0.0,0.0,0.0,0.0,0.0,0.0,0.0,0.0,0.0,0.0,0.0,0.0,0.0,0.0,0.0,0.0,0.0,0.0,0.0,0.0,0.0,0.0,0.0,0.0,0.0,0.0,0.0,0.0,0.0,0.0,0.0,0.0,0.0,0.0,0.0,0.0,0.0,0.0,0.0,0.0,0.0,0.0,0.0,0.0,0.0,0.0,0.0,0.0,0.0,0.0,0.0,0.0,0.0,0.0,0.0,0.0,0.0,0.0,0.0,0.0,0.0,0.0,0.0,0.0,0.0,0.0,0.0,0.0,0.0,0.0,0.0,0.0,0.0,0.0,0.0,0.0,0.0,0.0,0.0,0.0,0.0,0.0,0.0,0.0,0.0,0.0,0.0,0.0,0.0,0.0,0.0,0.0,0.0,0.0,0.0,0.0,0.0,0.0,0.0,0.0,0.0,0.0,0.0,0.0,0.0,0.0,0.0,0.0,0.0,0.0,0.0,0.0,0.0,0.0,0.0,0.0,0.0,0.0,0.0,0.0,0.0,0.0,0.0,0.0,0.0,0.0,0.0,0.0,0.0,0.0,0.0,0.0,0.0,0.0,0.0,0.0,0.0,0.0,0.0,0.0,0.0,0.0,0.0,0.0,0.0,0.0,0.0,0.0,0.0,0.0,0.0,0.0,0.0,0.0,0.0,0.0,0.0,0.0,0.0,0.0,0.0,0.0,0.0,0.0,0.0,0.0,0.0,0.0,0.0,0.0,0.0,0.0,0.0,0.0,0.0,0.0,0.0,0.0,0.0,0.0,0.0,0.0,0.0,0.0,0.0,0.0,0.0,0.0,0.0,0.0,0.0,0.0,0.0,0.0,0.0,0.0,0.0,0.0,0.0,0.0,0.0,0.0,0.0,0.0,0.0,0.0,0.0,0.0,0.0,0.0,0.0,0.0,0.0,0.0,0.0,0.0,0.0,0.0,0.0,0.0,0.0,0.0,0.0,0.0,0.0,0.0,0.0,0.0,0.0,0.0,0.0,0.0,0.0,0.0,0.0,0.0,0.0,0.0,0.0,0.0,0.0,0.0,0.0,0.0,0.0,0.0,0.0,0.0,0.0,0.0,0.0,0.0,0.0,0.0,0.0,0.0,0.0,0.0,0.0,0.0,0.0,0.0,0.0,0.0,0.0,0.0,0.0,0.0,0.0,0.0,0.0,0.0,0.0,0.0,0.0,0.0,0.0,0.0,0.0,0.0,0.0,0.0,0.0,0.0,0.0,0.0,0.0,0.0,0.0,0.0,0.0,0.0,0.0,0.0,0.0,0.0,0.0,0.0,0.0,0.0,0.0,0.0,0.0,0.0,0.0,0.0,0.0,0.0,0.0,0.0,0.0,0.0,0.0,0.0,0.0,0.0,0.0,0.0,0.0,0.0,0.0,0.0,0.0,0.0,0.0,0.0,0.0,0.0,0.0,0.0,0.0,0.0,0.0,0.0,0.0,0.0,0.0,0.0,0.0,0.0,0.0,0.0,0.0,0.0,0.0,0.0,0.0,0.0,0.0,0.0,0.0,0.0,0.0,0.0,0.0,0.0,0.0,0.0,0.0,0.0,0.0,0.0,0.0,0.0,0.0,0.0,0.0,0.0,0.0,0.0,0.0,0.0,0.0,0.0,0.0,0.0,0.0,0.0,0.0,0.0,0.0,0.0,0.0,0.0,0.0,0.0,0.0,0.0,0.0,0.0,0.0,0.0,0.0,0.0,0.0,0.0,0.3209,0.0,0.0,0.0,0.0,0.0,0.0,0.0,0.0,0.0,0.0,0.0,0.0,0.0,0.0,0.0,0.0,0.0,0.0,0.0,0.0,0.0,0.0,0.0,0.0,0.0,0.0,0.0,0.0,0.0,0.0,0.0,0.0,0.0,0.0,0.0,0.0,0.0,0.0,0.0,0.0,0.0,0.0,0.0,0.0,0.0,0.0,0.0,0.0,0.0,0.0,0.0,0.0,0.0,0.0,0.0,0.0,0.0,0.0,0.0,0.0,0.0,0.0,0.0,0.0,0.0,0.0,0.0,0.0,0.0,0.0,0.0,0.0,0.0,0.0,0.0,0.0,0.0,0.0,0.0,0.0,0.0,0.0,0.0,0.0,0.0,0.0,0.0,0.0,0.0,0.0,0.0,0.0,0.0,0.0,0.0,0.0,0.0,0.0,0.0,0.0,0.0,0.0,0.0,0.0,0.0,0.0,0.0,0.0,0.0,0.0,0.3209,0.3209,0.3209,0.3209,0.3209,0.0,0.0,0.0,0.0,0.0,0.0,0.0,0.0,0.0,0.0,0.0,0.0,0.0,0.0,0.0,0.0,0.0,0.0,0.0,0.0,0.0,0.0,0.0,0.0,0.0,0.0,0.0,0.0,0.0,0.0,0.0,0.0,0.0,0.0,0.0,0.0,0.0,0.0,0.0,0.0,0.0,0.0,0.0,0.0,0.0,0.0,0.0,0.0,0.0,0.0,0.0,0.0,0.0,0.0,0.0,0.0,0.0,0.0,0.0,0.0,0.0,0.0,0.0,0.0,0.0,0.0,0.0,0.0,0.0,0.0,0.0,0.0,0.0,0.0,0.0,0.0,0.0,0.0,0.0,0.0,0.0,0.0,0.0,0.0,0.0,0.0,0.0,0.0,0.0,0.0,0.0,0.0,0.0,0.0,0.0,0.0,0.0,0.0,0.0,0.0,0.0,0.0,0.0,0.0,0.0,0.0,0.0,0.0,0.0,0.0,0.0,0.0,0.3285,0.329,0.327,0.0,0.0,0.0,0.0,0.0,0.0,0.0,0.0,0.0,0.0,0.0,0.0,0.0,0.0,0.0,0.0,0.0,0.0,0.0,0.0,0.0,0.0,0.0,0.0,0.0,0.0,0.0,0.0,0.0,0.0,0.0,0.0,0.0,0.0,0.0,0.0,0.0,0.0,0.0,0.0,0.0,0.0,0.0,0.0,0.0,0.0,0.0,0.0,0.0,0.0,0.0,0.0,0.0,0.0,0.0,0.0,0.0,0.0,0.0,0.0,0.0,0.0,0.0,0.0,0.0,0.0,0.0,0.0,0.0,0.0,0.0,0.0,0.0,0.0,0.0,0.0,0.0,0.0,0.0,0.0,0.0,0.0,0.0,0.0,0.0,0.0,0.0,0.0,0.0,0.0,0.0,0.0,0.0,0.0,0.0,0.0,0.0,0.0,0.0,0.0,0.0,0.0,0.0,0.0,0.0,0.0,0.0,0.0,0.0,0.0,0.3309,0.3544,0.3566,0.0,0.3475,0.0,0.0,0.0,0.0,0.0,0.0,0.0,0.0,0.0,0.0,0.0,0.0,0.0,0.0,0.0,0.0,0.0,0.0,0.0,0.0,0.0,0.0,0.0,0.0,0.0,0.0,0.0,0.0,0.0,0.0,0.0,0.0,0.0,0.0,0.0,0.0,0.0,0.0,0.0,0.0,0.0,0.0,0.0,0.0,0.0,0.0,0.0,0.0,0.0,0.0,0.0,0.0,0.0,0.0,0.0,0.0,0.0,0.0,0.0,0.0,0.0,0.0,0.0,0.0,0.0,0.0,0.0,0.0,0.0,0.0,0.0,0.0,0.0,0.0,0.0,0.0,0.0,0.0,0.0,0.0,0.0,0.0,0.0,0.0,0.0,0.0,0.0,0.0,0.0,0.0,0.0,0.0,0.0,0.0,0.0,0.0,0.0,0.0,0.0,0.0,0.0,0.0,0.0,0.0,0.0,0.0,0.0,0.0,0.0,0.0,0.2942,0.353,0.3534,0.3458,0.0,0.0,0.0,0.0,0.0,0.0,0.0,0.0,0.0,0.0,0.0,0.0,0.0,0.0,0.0,0.0,0.0,0.0,0.0,0.0,0.0,0.0,0.0,0.0,0.0,0.0,0.0,0.0,0.0,0.0,0.0,0.0,0.0,0.0,0.0,0.0,0.0,0.0,0.0,0.0,0.0,0.0,0.0,0.0,0.0,0.0,0.0,0.0,0.0,0.0,0.0,0.0,0.0,0.0,0.0,0.0,0.0,0.0,0.0,0.0,0.0,0.0,0.0,0.0,0.0,0.0,0.0,0.0,0.0,0.0,0.0,0.0,0.0,0.0,0.0,0.0,0.0,0.0,0.0,0.0,0.0,0.0,0.0,0.0,0.0,0.0,0.0,0.0,0.0,0.0,0.0,0.0,0.0,0.0,0.0,0.0,0.0,0.0,0.0,0.0,0.0,0.0,0.0,0.0,0.0,0.0,0.0,0.0,0.0,0.0,0.2338,0.2722,0.3541,0.3536,0.3393,0.3189,0.0,0.0,0.0,0.0,0.0,0.0,0.0,0.0,0.0,0.0,0.0,0.0,0.0,0.0,0.0,0.0,0.0,0.0,0.0,0.0,0.0,0.0,0.0,0.0,0.0,0.0,0.0,0.0,0.0,0.0,0.0,0.0,0.0,0.0,0.0,0.0,0.0,0.0,0.0,0.0,0.0,0.0,0.0,0.0,0.0,0.0,0.0,0.0,0.0,0.0,0.0,0.0,0.0,0.0,0.0,0.0,0.0,0.0,0.0,0.0,0.0,0.0,0.0,0.0,0.0,0.0,0.0,0.0,0.0,0.0,0.0,0.0,0.0,0.0,0.0,0.0,0.0,0.0,0.0,0.0,0.0,0.0,0.0,0.0,0.0,0.0,0.0,0.0,0.0,0.0,0.0,0.0,0.0,0.0,0.0,0.0,0.0,0.0,0.0,0.0,0.0,0.0,0.0,0.0,0.0,0.0,0.0,0.0,0.2647,0.2519,0.2878,0.3839,0.3634,0.3472,0.0,0.0,0.0,0.0,0.0,0.0,0.0,0.0,0.0,0.0,0.0,0.0,0.0,0.0,0.0,0.0,0.0,0.0,0.0,0.0,0.0,0.0,0.0,0.0,0.0,0.0,0.0,0.0,0.0,0.0,0.0,0.0,0.0,0.0,0.0,0.0,0.0,0.0,0.0,0.0,0.0,0.0,0.0,0.0,0.0,0.0,0.0,0.0,0.0,0.0,0.0,0.0,0.0,0.0,0.0,0.0,0.0,0.0,0.0,0.0,0.0,0.0,0.0,0.0,0.0,0.0,0.0,0.0,0.0,0.0,0.0,0.0,0.0,0.0,0.0,0.0,0.0,0.0,0.0,0.0,0.0,0.0,0.0,0.0,0.0,0.0,0.0,0.0,0.0,0.0,0.0,0.0,0.0,0.0,0.0,0.0,0.0,0.0,0.0,0.0,0.0,0.0,0.0,0.0,0.0,0.0,0.0,0.0,0.0,0.0972,0.1832,0.2622,0.334,0.3202,0.3129,0.0,0.0,0.0,0.0,0.0,0.0,0.0,0.0,0.0,0.0,0.0,0.0,0.0,0.0,0.0,0.0,0.0,0.0,0.0,0.0,0.0,0.0,0.0,0.0,0.0,0.0,0.0,0.0,0.0,0.0,0.0,0.0,0.0,0.0,0.0,0.0,0.0,0.0,0.0,0.0,0.0,0.0,0.0,0.0,0.0,0.0,0.0,0.0,0.0,0.0,0.0,0.0,0.0,0.0,0.0,0.0,0.0,0.0,0.0,0.0,0.0,0.0,0.0,0.0,0.0,0.0,0.0,0.0,0.0,0.0,0.0,0.0,0.0,0.0,0.0,0.0,0.0,0.0,0.0,0.0,0.0,0.0,0.0,0.0,0.0,0.0,0.0,0.0,0.0,0.0,0.0,0.0,0.0,0.0,0.0,0.0,0.0,0.0,0.0,0.0,0.0,0.0,0.0,0.0,0.0,0.0,0.0,0.0,0.0,0.031,0.0,0.242,0.3033,0.2744,0.2644,0.0,0.0,0.0,0.0,0.0,0.0,0.0,0.0,0.0,0.0,0.0,0.0,0.0,0.0,0.0,0.0,0.0,0.0,0.0,0.0,0.0,0.0,0.0,0.0,0.0,0.0,0.0,0.0,0.0,0.0,0.0,0.0,0.0,0.0,0.0,0.0,0.0,0.0,0.0,0.0,0.0,0.0,0.0,0.0,0.0,0.0,0.0,0.0,0.0,0.0,0.0,0.0,0.0,0.0,0.0,0.0,0.0,0.0,0.0,0.0,0.0,0.0,0.0,0.0,0.0,0.0,0.0,0.0,0.0,0.0,0.0,0.0,0.0,0.0,0.0,0.0,0.0,0.0,0.0,0.0,0.0,0.0,0.0,0.0,0.0,0.0,0.0,0.0,0.0,0.0,0.0,0.0,0.0,0.0,0.0,0.0,0.0,0.0,0.0,0.0,0.0,0.0,0.0,0.0,0.0,0.0,0.0,0.0,-0.0739,0.0904,0.1542,0.2187,0.2936,0.2264,0.2071,0.0,0.0,0.0,0.0,0.0,0.0,0.0,0.0,0.0,0.0,0.0,0.0,0.0,0.0,0.0,0.0,0.0,0.0,0.0,0.0,0.0,0.0,0.0,0.0,0.0,0.0,0.0,0.0,0.0,0.0,0.0,0.0,0.0,0.0,0.0,0.0,0.0,0.0,0.0,0.0,0.0,0.0,0.0,0.0,0.0,0.0,0.0,0.0,0.0,0.0,0.0,0.0,0.0,0.0,0.0,0.0,0.0,0.0,0.0,0.0,0.0,0.0,0.0,0.0,0.0,0.0,0.0,0.0,0.0,0.0,0.0,0.0,0.0,0.0,0.0,0.0,0.0,0.0,0.0,0.0,0.0,0.0,0.0,0.0,0.0,0.0,0.0,0.0,0.0,0.0,0.0,0.0,0.0,0.0,0.0,0.0,0.0,0.0,0.0,0.0,0.0,0.0,0.0,0.0,0.0,0.0,0.0,0.0,0.0,-0.0293,0.0406,0.1123,0.1897,0.161,0.1591,0.0,0.0,0.0,0.0,0.0,0.0,0.0,0.0,0.0,0.0,0.0,0.0,0.0,0.0,0.0,0.0,0.0,0.0,0.0,0.0,0.0,0.0,0.0,0.0,0.0,0.0,0.0,0.0,0.0,0.0,0.0,0.0,0.0,0.0,0.0,0.0,0.0,0.0,0.0,0.0,0.0,0.0,0.0,0.0,0.0,0.0,0.0,0.0,0.0,0.0,0.0,0.0,0.0,0.0,0.0,0.0,0.0,0.0,0.0,0.0,0.0,0.0,0.0,0.0,0.0,0.0,0.0,0.0,0.0,0.0,0.0,0.0,0.0,0.0,0.0,0.0,0.0,0.0,0.0,0.0,0.0,0.0,0.0,0.0,0.0,0.0,0.0,0.0,0.0,0.0,0.0,0.0,0.0,0.0,0.0,0.0,0.0,0.0,0.0,0.0,0.0,0.0,0.0,0.0,0.0,0.0,0.0,0.0,0.0,-0.1693,-0.0954,-0.0142,0.0781,0.0444,0.0627,0.1367,0.0,0.0,0.0,0.0,0.0,0.0,0.0,0.0,0.0,0.0,0.0,0.0,0.0,0.0,0.0,0.0,0.0,0.0,0.0,0.0,0.0,0.0,0.0,0.0,0.0,0.0,0.0,0.0,0.0,0.0,0.0,0.0,0.0,0.0,0.0,0.0,0.0,0.0,0.0,0.0,0.0,0.0,0.0,0.0,0.0,0.0,0.0,0.0,0.0,0.0,0.0,0.0,0.0,0.0,0.0,0.0,0.0,0.0,0.0,0.0,0.0,0.0,0.0,0.0,0.0,0.0,0.0,0.0,0.0,0.0,0.0,0.0,0.0,0.0,0.0,0.0,0.0,0.0,0.0,0.0,0.0,0.0,0.0,0.0,0.0,0.0,0.0,0.0,0.0,0.0,0.0,0.0,0.0,0.0,0.0,0.0,0.0,0.0,0.0,0.0,0.0,0.0,0.0,0.0,0.0,0.0,0.0,0.0,-0.321,-0.2481,-0.1579,-0.0511,-0.1008,-0.0661,0.0,0.0,0.0,0.0,0.0,0.0,0.0,0.0,0.0,0.0,0.0,0.0,0.0,0.0,0.0,0.0,0.0,0.0,0.0,0.0,0.0,0.0,0.0,0.0,0.0,0.0,0.0,0.0,0.0,0.0,0.0,0.0,0.0,0.0,0.0,0.0,0.0,0.0,0.0,0.0,0.0,0.0,0.0,0.0,0.0,0.0,0.0,0.0,0.0,0.0,0.0,0.0,0.0,0.0,0.0,0.0,0.0,0.0,0.0,0.0,0.0,0.0,0.0,0.0,0.0,0.0,0.0,0.0,0.0,0.0,0.0,0.0,0.0,0.0,0.0,0.0,0.0,0.0,0.0,0.0,0.0,0.0,0.0,0.0,0.0,0.0,0.0,0.0,0.0,0.0,0.0,0.0,0.0,0.0,0.0,0.0,0.0,0.0,0.0,0.0,0.0,0.0,0.0,0.0,0.0,0.0,0.0,0.0,0.0,-0.4538,-0.4478,-0.3449,-0.1399,-0.1397,-0.1175,0.0,0.0,0.0,0.0,0.0,0.0,0.0,0.0,0.0,0.0,0.0,0.0,0.0,0.0,0.0,0.0,0.0,0.0,0.0,0.0,0.0,0.0,0.0,0.0,0.0,0.0,0.0,0.0,0.0,0.0,0.0,0.0,0.0,0.0,0.0,0.0,0.0,0.0,0.0,0.0,0.0,0.0,0.0,0.0,0.0,0.0,0.0,0.0,0.0,0.0,0.0,0.0,0.0,0.0,0.0,0.0,0.0,0.0,0.0,0.0,0.0,0.0,0.0,0.0,0.0,0.0,0.0,0.0,0.0,0.0,0.0,0.0,0.0,0.0,0.0,0.0,0.0,0.0,0.0,0.0,0.0,0.0,0.0,0.0,0.0,0.0,0.0,0.0,0.0,0.0,0.0,0.0,0.0,0.0,0.0,0.0,0.0,0.0,0.0,0.0,0.0,0.0,0.0,0.0,0.0,0.0,0.0,0.0,-0.6756,-0.5669,-0.6297,-0.5528,-0.3218,-0.2763,-0.2208,0.0,0.0,0.0,0.0,0.0,0.0,0.0,0.0,0.0,0.0,0.0,0.0,0.0,0.0,0.0,0.0,0.0,0.0,0.0,0.0,0.0,0.0,0.0,0.0,0.0,0.0,0.0,0.0,0.0,0.0,0.0,0.0,0.0,0.0,0.0,0.0,0.0,0.0,0.0,0.0,0.0,0.0,0.0,0.0,0.0,0.0,0.0,0.0,0.0,0.0,0.0,0.0,0.0,0.0,0.0,0.0,0.0,0.0,0.0,0.0,0.0,0.0,0.0,0.0,0.0,0.0,0.0,0.0,0.0,0.0,0.0,0.0,0.0,0.0,0.0,0.0,0.0,0.0,0.0,0.0,0.0,0.0,0.0,0.0,0.0,0.0,0.0,0.0,0.0,0.0,0.0,0.0,0.0,0.0,0.0,0.0,0.0,0.0,0.0,0.0,0.0,0.0,0.0,0.0,0.0,0.0,0.0,0.0,-0.8666,-0.699,-0.7891,-0.7523,-0.5668,-0.4586,-0.3425,0.0,0.0,0.0,0.0,0.0,0.0,0.0,0.0,0.0,0.0,0.0,0.0,0.0,0.0,0.0,0.0,0.0,0.0,0.0,0.0,0.0,0.0,0.0,0.0,0.0,0.0,0.0,0.0,0.0,0.0,0.0,0.0,0.0,0.0,0.0,0.0,0.0,0.0,0.0,0.0,0.0,0.0,0.0,0.0,0.0,0.0,0.0,0.0,0.0,0.0,0.0,0.0,0.0,0.0,0.0,0.0,0.0,0.0,0.0,0.0,0.0,0.0,0.0,0.0,0.0,0.0,0.0,0.0,0.0,0.0,0.0,0.0,0.0,0.0,0.0,0.0,0.0,0.0,0.0,0.0,0.0,0.0,0.0,0.0,0.0,0.0,0.0,0.0,0.0,0.0,0.0,0.0,0.0,0.0,0.0,0.0,0.0,0.0,0.0,0.0,0.0,0.0,0.0,0.0,0.0,0.0,0.0,0.0,-0.9904,-0.9803,-0.9354,-0.8612,-0.7611,-0.5474,-0.4016,0.0,0.0,0.0,0.0,0.0,0.0,0.0,0.0,0.0,0.0,0.0,0.0,0.0,0.0,0.0,0.0,0.0,0.0,0.0,0.0,0.0,0.0,0.0,0.0,0.0,0.0,0.0,0.0,0.0,0.0,0.0,0.0,0.0,0.0,0.0,0.0,0.0,0.0,0.0,0.0,0.0,0.0,0.0,0.0,0.0,0.0,0.0,0.0,0.6911,0.0,0.0,0.0,0.0,0.0,0.0,0.0,0.0,0.0,0.0,0.0,0.0,0.0,0.0,0.0,0.0,0.0,0.0,0.0,0.0,0.0,0.0,0.0,0.0,0.0,0.0,0.0,0.0,0.0,0.0,0.0,0.0,0.0,0.0,0.0,0.0,0.0,0.0,0.0,0.0,0.0,0.0,0.0,0.0,0.0,0.0,0.0,0.0,0.0,0.0,0.0,0.0,0.0,0.0,0.0,0.0,0.0,0.0,0.0,-1.1235,-1.1406,-1.1234,-1.0538,-0.9278,-0.7054,-0.5201,0.0,0.0,0.0,0.0,0.0,0.0,0.0,0.0,0.0,0.0,0.0,0.0,0.0,0.0,0.0,0.0,0.0,0.0,0.0,0.0,0.0,0.0,0.0,0.0,0.0,0.0,0.0,0.0,0.0,0.0,0.0,0.0,0.0,0.0,0.0,0.0,0.0,0.0,0.0,0.0,0.0,0.0,0.0,0.0,0.0,0.0,0.0,0.0,0.0,0.0,0.0,0.0,0.0,0.0,0.0,0.0,0.0,0.0,0.0,0.0,0.0,0.0,0.0,0.0,0.0,0.0,0.0,0.0,0.0,0.0,0.0,0.0,0.0,0.0,0.0,0.0,0.0,0.0,0.0,0.0,0.0,0.0,0.0,0.0,0.0,0.0,0.0,0.0,0.0,0.0,0.0,0.0,0.0,0.0,0.0,0.0,0.0,0.0,0.0,0.0,0.0,0.0,0.0,0.0,0.0,0.0,0.0,-1.2346,-1.2572,-1.2887,-1.3141,-1.2473,-1.0869,-0.879,-0.6648,-0.4495,0.0,0.0,0.0,0.0,0.0,0.0,0.0,0.0,0.0,0.0,0.0,0.0,0.0,0.0,0.0,0.0,0.0,0.0,0.0,0.0,0.0,0.0,0.0,0.0,0.0,0.0,0.0,0.0,0.0,0.0,0.0,0.0,0.0,0.0,0.0,0.0,0.0,0.0,0.1044,0.2278,0.0,0.0,0.0,0.0,0.0,0.0,0.0,0.0,0.6377,0.0,0.0,0.0,0.0,0.0,0.0,0.0,0.0,0.0,0.0,0.0,0.0,0.0,0.0,0.0,0.0,0.0,0.0,0.0,0.0,0.0,0.0,0.0,0.0,0.0,0.0,0.0,0.0,0.0,0.0,0.0,0.0,0.0,0.0,0.0,0.0,0.0,0.0,0.0,0.0,0.0,0.0,0.0,0.0,0.0,0.0,0.0,0.0,0.0,0.0,0.0,0.0,0.0,0.0,0.0,0.0,-1.3787,-1.3196,-1.3882,-1.5852,-1.4418,-1.321,-1.2296,-0.9788,-0.7859,-0.6573,0.0,0.0,0.0,0.0,0.0,0.0,0.0,0.0,0.0,0.0,0.0,0.0,0.0,0.0,0.0,0.0,0.0,0.0,0.0,0.0,0.0,0.0,0.0,0.0,0.0,0.0,0.0,0.0,0.0,0.0,0.0,0.0,0.0,0.0,0.0,0.0,0.0,0.0,0.0,0.4014,0.4843,0.0,0.0,0.0,0.0,0.0,0.0,0.0,0.0,0.6641,0.0,0.0,0.0,0.0,0.0,0.0,0.0,0.0,0.0,0.0,0.0,0.0,0.0,0.0,0.0,0.0,0.0,0.0,0.0,0.0,0.0,0.0,0.0,0.0,0.0,0.0,0.0,0.0,0.0,0.0,0.0,0.0,0.0,0.0,0.0,0.0,0.0,0.0,0.0,0.0,0.0,0.0,0.0,0.0,0.0,0.0,0.0,0.0,0.0,0.0,0.0,0.0,0.0,0.0,0.0,-1.4856,-1.4543,-1.5128,-1.6767,-1.5751,-1.4729,-1.381,-1.1335,-0.9426,0.0,0.0,0.0,0.0,0.0,0.0,0.0,0.0,0.0,0.0,0.0,0.0,0.0,0.0,0.0,0.0,0.0,0.0,0.0,0.0,0.0,0.0,0.0,0.0,0.0,0.0,0.0,0.0,0.0,0.0,0.0,0.0,0.0,0.0,0.0,0.0,0.0,0.0,0.0,0.0,0.3692,0.4528,0.6559,0.0,0.0,0.0,0.0,0.0,0.0,0.6902,0.664,0.0,0.0,0.0,0.0,0.0,0.0,0.0,0.0,0.0,0.0,0.0,0.0,0.0,0.0,0.0,0.0,0.0,0.0,0.0,0.0,0.0,0.0,0.0,0.0,0.0,0.0,0.0,0.0,0.0,0.0,0.0,0.0,0.0,0.0,0.0,0.0,0.0,0.0,0.0,0.0,0.0,0.0,0.0,0.0,0.0,0.0,0.0,0.0,0.0,0.0,0.0,0.0,0.0,0.0,0.0,-1.5735,-1.5772,-1.6288,-1.731,-1.6809,-1.6044,-1.5097,-1.2641,-1.0807,0.0,0.0,0.0,0.0,0.0,0.0,0.0,0.0,0.0,0.0,0.0,0.0,0.0,0.0,0.0,0.0,0.0,0.0,0.0,0.0,0.0,0.0,0.0,0.0,0.0,0.0,0.0,0.0,0.0,0.0,0.0,0.0,0.0,0.0,0.0,0.0,0.0,0.0,0.0,0.0,0.0,0.4211,0.6457,0.6118,0.0,0.0,0.0,0.0,0.6707,0.6884,0.0,0.0,0.0,0.0,0.0,0.0,0.0,0.0,0.0,0.0,0.0,0.0,0.0,0.0,0.0,0.0,0.0,0.0,0.0,0.0,0.0,0.0,0.0,0.0,0.0,0.0,0.0,0.0,0.0,0.0,0.0,0.0,0.0,0.0,0.0,0.0,0.0,0.0,0.0,0.0,0.0,0.0,0.0,0.0,0.0,0.0,0.0,0.0,0.0,0.0,0.0,0.0,0.0,0.0,0.0,0.0,-1.6088,-1.6412,-1.7226,-1.8538,-1.733,-1.6336,-1.5755,-1.2943,-1.1234,0.0,0.0,0.0,0.0,0.0,0.0,0.0,0.0,0.0,0.0,0.0,0.0,0.0,0.0,0.0,0.0,0.0,0.0,0.0,0.0,0.0,0.0,0.0,0.0,0.0,0.0,0.0,0.0,0.0,0.0,0.0,0.0,0.0,0.0,0.0,0.0,0.0,0.0,0.0,0.0,0.0,0.4825,0.6184,0.6016,0.5738,0.0,0.0,0.7205,0.7879,0.8295,0.0,0.0,0.0,0.0,0.0,0.0,0.0,0.0,0.0,0.0,0.0,0.0,0.0,0.0,0.0,0.0,0.0,0.0,0.0,0.0,0.0,0.0,0.0,0.0,0.0,0.0,0.0,0.0,0.0,0.0,0.0,0.0,0.0,0.0,0.0,0.0,0.0,0.0,0.0,0.0,0.0,0.0,0.0,0.0,0.0,0.0,0.0,0.0,0.0,0.0,0.0,0.0,0.0,0.0,0.0,-1.5879,-1.7071,-1.7634,-1.8327,-1.9119,-1.8153,-1.7145,-1.6159,-1.3765,-1.2113,0.0,0.0,0.0,0.0,0.0,0.0,0.0,0.0,0.0,0.0,0.0,0.0,0.0,0.0,0.0,0.0,0.0,0.0,0.0,0.0,0.0,0.0,0.0,0.0,0.0,0.0,0.0,0.0,0.0,0.0,0.0,0.0,0.0,0.0,0.0,0.0,0.0,0.0,0.0,0.0,0.0,0.0,0.6082,0.6174,0.0,0.0,0.0,0.7153,0.7137,0.0,0.0,0.0,0.0,0.0,0.0,0.0,0.0,0.0,0.0,0.0,0.0,0.0,0.0,0.0,0.0,0.0,0.0,0.0,0.0,0.0,0.0,0.0,0.0,0.0,0.0,0.0,0.0,0.0,0.0,0.0,0.0,0.0,0.0,0.0,0.0,0.0,0.0,0.0,0.0,0.0,0.0,0.0,0.0,0.0,0.0,0.0,0.0,0.0,0.0,0.0,0.0,0.0,0.0,0.0,0.0,0.0,-1.7682,-1.8622,-1.9331,-1.9724,-1.8959,-1.8,-1.6777,-1.4641,0.0,0.0,0.0,0.0,0.0,0.0,0.0,0.0,0.0,0.0,0.0,0.0,0.0,0.0,0.0,0.0,0.0,0.0,0.0,0.0,0.0,0.0,0.0,0.0,0.0,0.0,0.0,-0.0914,0.0,0.0,0.0,0.0,0.0,0.0,0.0,0.0,0.0,0.0,0.0,0.0,0.0,0.0,0.3848,0.5656,0.6042,0.628,0.0,0.0,0.6977,0.6648,0.79,0.8295,0.0,0.0,0.0,0.0,0.0,0.0,0.0,0.0,0.0,0.0,0.0,0.0,0.0,0.0,0.0,0.0,0.0,0.0,0.0,0.0,0.0,0.0,0.0,0.0,0.0,0.0,0.0,0.0,0.0,0.0,0.0,0.0,0.0,0.0,0.0,0.0,0.0,0.0,0.0,0.0,0.0,0.0,0.0,0.0,0.0,0.0,0.0,0.0,0.0,0.0,0.0,0.0,0.0,0.0,-1.6771,-1.7358,-1.9095,-2.0207,-2.0634,-1.9556,-1.8646,-1.7955,-1.5428,-1.3551,0.0,0.0,0.0,0.0,0.0,0.0,0.0,0.0,0.0,0.0,0.0,0.0,0.0,0.0,0.0,0.0,0.0,0.0,0.0,0.0,0.0,0.0,0.0,0.0,0.0,0.0,0.0,0.0,0.0,0.0,0.0,0.0,0.0,0.0,0.0,0.0,0.0,0.0,0.0,0.0,0.0,0.3184,0.4599,0.5287,0.5844,0.0,0.6657,0.698,0.7365,0.8684,0.902,0.6896,0.0,0.0,0.0,0.0,0.0,0.0,0.0,0.0,0.0,0.0,0.0,0.0,0.0,0.0,0.0,0.0,0.0,0.0,0.0,0.0,0.0,0.0,0.0,0.0,0.0,0.0,0.0,0.0,0.0,0.0,0.0,0.0,0.0,0.0,0.0,0.0,0.0,0.0,0.0,0.0,0.0,0.0,0.0,0.0,0.0,0.0,0.0,0.0,0.0,0.0,0.0,0.0,0.0,-1.7167,-1.828,-1.9226,-2.0076,-2.0716,-1.9565,-1.8577,-1.7807,-1.5676,-1.3849,0.0,0.0,0.0,0.0,0.0,0.0,0.0,0.0,0.0,0.0,0.0,0.0,0.0,0.0,0.0,0.0,0.0,0.0,0.0,0.0,0.0,0.0,0.0,0.0,0.0,0.0,0.0,0.0,-0.1189,-0.1356,-0.1602,0.0,0.0,0.0,0.0,0.0,0.0,0.0,0.0,0.0,0.0,0.3345,0.4527,0.5237,0.0,0.0,0.6809,0.7007,0.6899,0.7818,0.7963,0.6163,0.5765,0.0,0.0,0.0,0.0,0.0,0.0,0.0,0.0,0.0,0.0,0.0,0.0,0.0,0.0,0.0,0.0,0.0,0.0,0.0,0.0,0.0,0.0,0.0,0.0,0.0,0.0,0.0,0.0,0.0,0.0,0.0,0.0,0.0,0.0,0.0,0.0,0.0,0.0,0.0,0.0,0.0,0.0,0.0,0.0,0.0,0.0,0.0,0.0,0.0,0.0,0.0,0.0,-1.7559,-1.8874,-1.951,-2.0234,-2.1047,-1.9867,-1.8862,-1.813,-1.6249,-1.4504,0.0,0.0,0.0,0.0,0.0,0.0,0.0,0.0,0.0,0.0,0.0,0.0,0.0,0.0,0.0,0.0,0.0,0.0,0.0,0.0,0.0,0.0,0.0,0.0,0.0,0.0,0.0,0.0,-0.1466,-0.1674,-0.1961,0.0,0.0,0.0,0.0,0.0,0.0,0.0,0.0,0.0,0.0,0.2962,0.4088,0.4734,0.5306,0.5853,0.6214,0.6376,0.6184,0.6771,0.6851,0.5646,0.0,0.0,0.0,0.0,0.0,0.0,0.0,0.0,0.0,0.0,0.0,0.0,0.0,0.0,0.0,0.0,0.0,0.0,0.0,0.0,0.0,0.0,0.0,0.0,0.0,0.0,0.0,0.0,0.0,0.0,-1.6908,0.0,0.0,0.0,0.0,0.0,0.0,0.0,0.0,0.0,0.0,0.0,0.0,0.0,0.0,0.0,0.0,0.0,0.0,0.0,0.0,0.0,0.0,-1.7891,-1.8906,-1.9987,-2.09,-2.1601,-2.0504,-1.9703,-1.9291,-1.7331,-1.5682,-1.4416,0.0,0.0,0.0,0.0,0.0,0.0,0.0,0.0,0.0,0.0,0.0,0.0,0.0,0.0,0.0,0.0,0.0,0.0,0.0,0.0,0.0,0.0,0.0,0.0,0.0,0.0,-0.2221,-0.2167,-0.2169,0.0,0.0,0.0,0.0,0.0,0.0,0.0,0.0,0.0,0.0,0.1261,0.1751,0.3071,0.3548,0.4047,0.466,0.472,0.4844,0.5356,0.5773,0.5934,0.0,0.0,0.0,0.0,0.0,0.0,0.0,0.0,0.0,0.0,0.0,0.0,0.0,0.0,0.0,0.0,0.0,0.0,0.0,0.0,0.0,0.0,0.0,0.0,0.0,0.0,0.0,-1.8487,-1.8019,0.0,0.0,0.0,0.0,0.0,0.0,0.0,0.0,0.0,0.0,0.0,-1.7613,-1.7312,0.0,0.0,0.0,0.0,0.0,0.0,0.0,0.0,0.0,0.0,0.0,0.0,-1.8163,-1.9034,-2.0066,-2.0841,-2.1345,-2.0582,-1.9834,-1.914,-1.7889,-1.6199,-1.402,0.0,0.0,0.0,0.0,0.0,0.0,0.0,0.0,0.0,0.0,0.0,0.0,0.0,0.0,0.0,0.0,0.0,0.0,0.0,0.0,0.0,0.0,0.0,0.0,0.0,-0.3025,0.0,0.0,0.0,0.0,0.0,0.0,0.0,0.0,0.0,0.0,0.0,0.0113,0.0681,0.1732,0.2654,0.3151,0.361,0.4125,0.0,0.0,0.0,0.0,0.0,0.0,0.0,0.0,0.0,0.0,0.0,0.0,0.0,0.0,0.7303,0.7003,0.732,0.774,0.8109,0.0,0.0,0.0,0.0,0.0,0.0,0.0,0.0,0.0,0.0,0.0,0.0,0.0,0.0,-1.8861,0.0,-1.8392,0.0,0.0,0.0,0.0,0.0,0.0,0.0,0.0,-1.7432,-1.7662,-1.8382,-1.8193,-1.8127,0.0,-1.7833,-1.6802,0.0,0.0,0.0,0.0,0.0,0.0,0.0,0.0,-1.7808,-1.8682,-1.9772,-2.0542,-2.0998,-2.0426,-1.9749,-1.8988,-1.7942,-1.6291,-1.3945,-1.223,-1.0954,0.0,0.0,0.0,0.0,0.0,0.0,0.0,0.0,0.0,0.0,0.0,0.0,0.0,0.0,0.0,0.0,0.0,0.0,0.0,0.0,0.0,0.0,0.0,-0.2826,0.0,0.0,0.0,0.0,0.0,0.0,0.0,0.0,0.0,-0.183,-0.0499,0.0569,0.0832,0.1807,0.2596,0.2879,0.0,0.0,0.0,0.0,0.0,0.0,0.0,0.4175,0.3952,0.4026,0.4329,0.5024,0.6428,0.7351,0.704,0.0,0.0,0.7561,0.7664,0.7894,0.8266,0.8453,0.869,0.9044,0.9155,0.9311,0.0,0.0,0.0,0.0,0.0,0.0,0.0,0.0,-1.9441,-1.9327,0.0,-1.8953,0.0,0.0,0.0,0.0,0.0,-1.7696,0.0,0.0,-1.8782,-1.8918,-1.8156,-1.8478,-1.8424,-1.8049,-1.7568,-1.712,-1.6767,-1.692,0.0,0.0,0.0,0.0,0.0,0.0,-1.6989,-1.7946,-1.9164,-2.0066,-2.0607,-2.0095,-1.952,-1.8912,-1.7554,-1.6047,-1.4352,-1.3218,-1.196,-1.0445,-1.0098,0.0,0.0,0.0,0.0,0.0,0.0,0.0,0.0,0.0,0.0,0.0,0.0,0.0,0.0,0.0,0.0,0.0,0.0,0.0,0.0,-0.3408,0.0,0.0,0.0,0.0,0.0,0.0,0.0,0.0,0.0,0.0,-0.1228,-0.0536,0.0254,0.1443,0.0,0.0,0.0,0.0,0.2574,0.3079,0.3119,0.313,0.3162,0.3579,0.4155,0.4901,0.0,0.0,0.5831,0.6746,0.7182,0.6224,0.6768,0.7458,0.7927,0.7762,0.762,0.7649,0.8081,0.8391,0.8508,0.8994,0.9402,-2.3155,0.0,0.0,0.0,0.0,-2.1599,-2.1565,-2.1495,-2.1075,-2.0554,-1.9975,-1.9396,0.0,0.0,0.0,0.0,0.0,0.0,-1.8743,-1.9375,-1.9411,-1.9589,-1.9933,-2.0227,-2.0079,-1.9548,-1.9,-1.8418,-1.7904,-1.7556,-1.6901,-1.6011,0.0,0.0,0.0,0.0,-1.7495,-1.8189,-1.9067,-1.9623,-1.9763,-1.9779,-1.95,-1.8906,-1.77,-1.6659,-1.5726,-1.353,-1.2133,-1.1702,-1.0009,0.0,0.0,0.0,0.0,0.0,0.0,0.0,0.0,0.0,0.0,0.0,0.0,0.0,0.0,0.0,0.0,0.0,0.0,0.0,-0.3813,-0.3127,-0.2852,0.0,0.0,0.0,0.0,0.0,0.0,0.0,0.0,0.0,-0.2005,-0.0654,0.0553,0.0,0.0,0.2054,0.2239,0.2345,0.2587,0.31,0.3171,0.0,0.3613,0.3726,0.3923,0.4388,0.5384,0.6114,0.6095,0.6894,0.738,0.6986,0.7001,0.7112,0.7147,0.7337,0.7546,0.792,0.8409,0.8942,0.9405,0.9956,1.049,-2.3942,-2.2854,-2.2637,-2.2479,-2.2295,-2.236,-2.22,-2.1894,-2.1403,-2.095,-2.055,-1.9905,-1.9401,-1.9023,-1.8404,0.0,0.0,0.0,-1.9154,-2.0361,-2.0067,-2.0167,-2.0654,-2.0808,-2.065,-2.0153,-1.9701,-1.9206,-1.8703,-1.8014,-1.7291,-1.649,0.0,0.0,-1.5684,-1.6402,-1.7183,-1.8015,-1.8806,-1.932,-1.9556,-1.9347,-1.9014,-1.8519,-1.726,-1.6169,-1.5269,-1.3069,-1.1593,-1.1069,-0.9764,-0.8606,0.0,0.0,0.0,0.0,0.0,0.0,0.0,0.0,0.0,0.0,0.0,-0.6443,-0.6828,0.0,0.0,0.0,-0.5402,-0.4388,-0.3101,-0.302,0.0,0.0,0.0,0.0,0.0,0.0,0.0,-0.4015,-0.3509,-0.2879,-0.2143,-0.0924,0.0184,0.0961,0.1564,0.1926,0.1995,0.0,0.27,0.3132,0.3329,0.3534,0.3812,0.3972,0.4232,0.4801,0.5647,0.6299,0.6344,0.6777,0.7065,0.6991,0.688,0.6769,0.6684,0.6937,0.7272,0.7656,0.8229,0.8813,0.9369,0.9946,1.0498,-2.4519,-2.4332,-2.4441,-2.3716,-2.2549,-2.2911,-2.2531,-2.1542,-2.0986,-2.0881,-2.1041,-2.039,-1.9585,-1.8654,-1.7589,0.0,-1.9008,-1.8667,-1.9345,-2.0739,-2.0739,-2.0668,-2.0602,-2.0602,-2.0425,-2.0062,-1.9795,-1.9472,-1.9094,-1.8294,-1.7638,-1.7058,-1.6262,-1.5469,-1.4725,-1.543,-1.6394,-1.7543,-1.8314,-1.9007,-1.9597,-1.879,-1.8184,-1.7837,-1.6357,-1.4969,-1.3649,-1.2107,-1.0647,-0.9399,-0.9384,-0.8944,-0.7931,0.0,0.0,0.0,0.0,0.0,0.0,0.0,0.0,0.0,0.0,0.0,0.0,0.0,0.0,0.0,-0.4899,0.0,-0.2822,-0.3095,0.0,0.0,0.0,-0.3727,-0.3972,-0.3949,-0.3965,-0.4096,0.0,0.0,-0.1894,-0.1281,-0.062,0.0282,0.0911,0.1398,0.1714,0.2327,0.287,0.3178,0.3515,0.3766,0.3872,0.4299,0.4897,0.5657,0.625,0.6468,0.6456,0.6494,0.6473,0.6481,0.6464,0.6494,0.6498,0.6699,0.689,0.7198,0.7707,0.8235,0.8673,0.9238,0.9738,-2.5226,-2.5155,-2.4737,-2.3749,-2.2456,-2.2807,-2.2647,-2.2178,-2.2044,-2.1621,-2.0984,-2.0368,-1.9592,-1.8685,-1.8648,-1.9125,-1.9872,-1.9811,-2.0213,-2.0989,-2.1002,-2.0853,-2.0602,-2.0602,-2.0284,-1.9718,-1.9437,-1.9038,-1.8521,-1.8087,-1.7525,-1.6829,-1.6597,-1.6283,-1.5897,-1.5859,-1.6317,-1.7216,-1.7203,-1.7621,-1.8368,-1.796,-1.7342,-1.6561,-1.5742,-1.4591,-1.3079,-1.171,-1.0731,-1.0123,-0.9236,-0.8571,-0.8262,-0.786,0.0,0.0,0.0,0.0,0.0,0.0,0.0,0.0,0.0,-0.6757,-0.6707,0.0,-0.5764,0.0,-0.4065,-0.3592,-0.3595,-0.3603,0.0,0.0,-0.3884,-0.3961,-0.406,-0.3967,-0.3987,-0.4239,-0.3848,-0.3179,-0.2215,-0.1755,-0.1023,0.0296,0.0951,0.1522,0.2051,0.2338,0.2719,0.3311,0.3506,0.3693,0.4085,0.4737,0.5341,0.5837,0.6217,0.6464,0.6362,0.6349,0.6329,0.6296,0.6276,0.6344,0.6612,0.6622,0.6814,0.7314,0.7744,0.8052,0.8172,0.8793,0.9407,-2.5638,-2.5478,-2.5024,-2.4209,-2.3198,-2.3394,-2.3287,-2.302,-2.2701,-2.2148,-2.1352,-2.045,-1.9756,-1.9279,-1.9187,-1.9525,-2.0116,-1.9991,-2.0269,-2.0856,-2.0697,-2.0552,-2.0361,-2.0221,-1.9903,-1.938,-1.9201,-1.8971,-1.8669,-1.8391,-1.801,-1.7587,-1.7308,-1.6999,-1.6612,-1.6258,-1.6443,-1.7127,-1.7227,-1.7141,-1.6936,-1.6704,-1.6105,-1.5138,-1.3894,-1.2965,-1.2377,-1.078,-0.9801,-0.9556,-0.8818,-0.8386,-0.8348,-0.787,-0.7599,0.0,0.0,0.0,0.0,0.0,0.0,0.0,0.0,0.0,0.0,0.0,-0.5523,-0.4663,-0.3959,-0.3607,-0.3751,-0.3837,-0.3893,-0.3951,-0.3956,-0.3971,-0.4018,-0.3925,-0.3937,-0.4107,-0.367,-0.3026,-0.2225,-0.1674,-0.0784,0.073,0.1191,0.1581,0.2084,0.2543,0.3049,0.3415,0.364,0.3906,0.4299,0.4991,0.5544,0.5774,0.6134,0.6362,0.6276,0.6292,0.6288,0.6234,0.631,0.6475,0.6663,0.6873,0.7086,0.7395,0.7759,0.7954,0.8058,0.8417,0.8779,-2.5745,-2.5453,-2.5119,-2.4655,-2.4153,-2.4117,-2.3967,-2.3683,-2.3012,-2.2358,-2.1685,-2.0509,-2.0002,-1.9944,-1.9403,-1.9485,-2.0061,-1.9724,-1.9934,-2.0507,-2.0234,-2.0074,-2.0011,-1.9743,-1.9424,-1.9104,-1.9104,-1.9092,-1.9044,-1.8794,-1.865,-1.8546,-1.8009,-1.7502,-1.695,-1.6384,-1.6402,-1.7002,-1.7449,-1.705,-1.5725,-1.537,-1.4706,-1.3706,-1.1777,-1.092,-1.1326,-0.9658,-0.8622,-0.846,-0.8357,-0.834,-0.8393,-0.8042,-0.7855,0.0,-0.7791,0.0,0.0,0.0,0.0,0.0,0.0,0.0,0.0,-0.5576,-0.5695,-0.4669,-0.4096,-0.376,-0.3609,-0.3795,-0.3887,-0.3785,-0.3759,-0.3776,-0.3787,-0.3781,-0.377,-0.3789,-0.324,-0.2621,-0.1939,-0.1265,-0.0185,0.1231,0.1689,0.1931,0.2248,0.2954,0.3479,0.3525,0.3886,0.4296,0.4695,0.5251,0.5615,0.5716,0.6024,0.6268,0.6178,0.6223,0.6251,0.6274,0.6464,0.6691,0.6805,0.7197,0.7473,0.7552,0.7758,0.7911,0.8015,0.8077,0.8123,-2.5558,-2.5426,-2.4569,-2.4132,-2.404,-2.3695,-2.3447,-2.3278,-2.2589,-2.1839,-2.0968,-2.0242,-1.9941,-1.9884,-1.9584,-1.9658,-2.0016,-1.9715,-1.9807,-2.0202,-2.0138,-1.9947,-1.9711,-1.9616,-1.9424,-1.9104,-1.9104,-1.8995,-1.879,-1.8741,-1.8345,-1.7652,-1.7532,-1.7206,-1.6578,0.0,0.0,0.0,-1.635,-1.6448,-1.6267,-1.4771,-1.3595,-1.2832,-1.1212,0.0,-0.9314,-0.892,-0.8535,-0.826,-0.8288,0.0,0.0,0.0,0.0,0.0,0.0,0.0,0.0,0.0,0.0,0.0,-0.6103,-0.576,-0.4781,-0.4325,-0.4014,-0.3891,-0.3539,-0.3355,-0.3442,-0.319,-0.3054,-0.3072,-0.3087,-0.312,-0.3154,-0.3163,-0.3167,-0.3176,-0.259,-0.1942,-0.1264,-0.037,0.0617,0.1726,0.2373,0.2929,0.3451,0.3496,0.3596,0.3784,0.4176,0.4684,0.5319,0.5496,0.5717,0.5993,0.6126,0.6174,0.61,0.61,0.6203,0.6458,0.6514,0.6714,0.7294,0.7438,0.7526,0.7787,0.7863,0.7928,0.7936,0.7961,0.7983,-2.533,-2.5121,-2.4285,-2.3877,0.0,-2.3302,-2.3101,-2.3006,-2.243,-2.1622,-2.0735,-2.0296,-2.0108,-2.0096,-1.9796,-1.9702,-1.9764,-1.9617,-1.9643,-1.9851,-1.9692,-1.9616,-1.9571,-1.9424,-1.9264,-1.9104,-1.9104,-1.9044,-1.8911,-1.872,-1.8431,-1.7984,-1.763,-1.6872,-1.5801,-1.43,-1.3816,-1.4457,-1.4391,-1.4117,-1.3563,-1.2544,-1.1725,-1.1208,-1.0004,0.0,0.0,0.0,0.0,0.0,0.0,0.0,0.0,-0.8586,0.0,-0.8884,-0.8722,-0.8647,-0.8807,-0.8919,-0.8068,-0.601,-0.4972,-0.4211,-0.375,-0.3354,-0.3169,-0.3221,-0.3133,-0.3069,-0.3094,-0.2998,-0.2893,-0.2895,-0.2944,-0.2966,-0.2987,-0.2991,-0.2991,-0.2899,-0.2281,-0.1572,-0.1047,0.0031,0.1109,0.2096,0.2837,0.3453,0.4007,0.4038,0.4071,0.4349,0.4713,0.5077,0.5426,0.564,0.5804,0.6024,0.6284,0.6375,0.6224,0.6476,0.6732,0.6859,0.6914,0.7163,0.7534,0.7702,0.7795,0.8004,0.8051,0.8051,0.8046,0.7959,0.7917,-2.5075,-2.4713,-2.4061,-2.3593,-2.3302,-2.293,-2.2757,-2.267,0.0,0.0,0.0,-2.047,-2.0374,-2.0362,-2.0108,-1.9866,-1.9648,-1.9588,-1.9618,-1.9668,-1.9329,-1.9305,-1.9549,-1.9256,-1.9104,-1.9104,-1.904,-1.9008,-1.8988,-1.8507,-1.8141,-1.798,-1.7238,-1.6056,-1.4391,-1.2697,-1.2075,-1.2461,-1.2401,-1.1878,-1.0868,-1.0416,-1.0077,-0.9932,-0.8929,-0.888,-0.9896,-0.9279,-0.8912,-0.8906,-0.8791,-0.8832,-0.8967,-0.8872,-0.8866,-0.9014,-0.9027,-0.8984,-0.89,-0.8953,-0.8026,-0.5877,-0.3897,-0.2768,-0.2734,-0.2794,-0.282,-0.285,-0.2823,-0.2802,-0.2745,-0.2773,-0.2808,-0.2749,-0.2808,-0.2829,-0.2829,-0.2829,-0.2709,-0.2424,-0.1681,-0.0962,-0.031,0.0712,0.1669,0.2531,0.3268,0.3881,0.4407,0.453,0.4564,0.4902,0.5262,0.5544,0.5663,0.5974,0.6116,0.6247,0.6543,0.6728,0.6697,0.7005,0.7287,0.7277,0.7445,0.7633,0.781,0.7975,0.8127,0.8183,0.8204,0.8204,0.8188,0.8079,0.7954,-2.4649,-2.4329,-2.3592,-2.3179,-2.293,-2.2558,-2.2237,-2.2007,-2.1716,-2.1244,-2.07,-2.0664,-2.064,-2.0628,-2.0374,-2.0229,-2.018,-1.9929,-1.9842,-1.986,-1.9584,-1.9443,-1.9496,-1.9213,-1.9104,-1.9072,-1.8796,-1.8667,-1.8539,-1.74,-1.6473,-1.5814,-1.4903,-1.3545,-1.1848,-1.1176,-1.0498,-0.9748,-1.1058,-1.1829,-1.1854,-1.0469,-0.9902,-1.0243,-0.9075,-0.8689,-0.9299,-0.9071,-0.8912,-0.8912,-0.8892,-0.9,-0.9293,-0.9184,-0.9247,-0.9483,-0.9487,-0.8964,-0.7753,-0.7933,-0.6977,-0.4515,-0.3006,-0.2386,-0.2829,-0.2946,-0.2972,-0.2972,-0.2703,-0.2563,-0.2527,-0.232,-0.221,-0.2229,-0.2239,-0.2244,-0.2273,-0.2239,-0.1791,-0.0638,-0.0288,0.0381,0.1665,0.2416,0.2841,0.331,0.3915,0.453,0.5022,0.4995,0.4995,0.5279,0.5698,0.6081,0.6379,0.6823,0.6977,0.7101,0.712,0.7175,0.715,0.7276,0.75,0.7762,0.775,0.7878,0.8167,0.8226,0.821,0.8226,0.8231,0.8226,0.8231,0.8214,0.8182,-2.4296,-2.4119,-2.3433,-2.301,-2.269,-2.1482,-2.0777,-2.0439,-1.947,-1.9896,-2.1077,-2.0978,-2.0918,-2.0859,-2.0397,-2.0241,-2.0279,-1.9943,-1.974,-1.9709,-1.9721,-1.9125,-1.8228,-1.8222,-1.7829,-1.6955,-1.6643,-1.654,-1.643,-1.5394,-1.4701,-1.4262,-1.2922,-1.1754,-1.0935,-1.0008,-0.9316,-0.8878,-0.9622,-1.0071,-1.0201,-0.9372,-0.9242,-0.9855,-0.9199,-0.9159,-0.9768,-0.97,-0.9666,-0.9636,-0.9666,-0.9734,-0.9856,-0.9613,-0.9511,-0.9612,-0.894,-0.82,-0.7562,-0.6434,-0.5276,-0.4076,-0.2824,-0.2208,-0.2445,-0.2487,-0.2497,-0.2529,-0.2371,-0.2282,-0.2297,-0.2139,-0.2081,-0.2095,-0.2096,-0.2096,-0.2096,-0.2096,-0.1515,-0.0193,0.016,0.0826,0.2427,0.3159,0.3546,0.3797,0.453,0.5364,0.5882,0.5978,0.5998,0.6075,0.6437,0.6746,0.6946,0.7142,0.7267,0.7303,0.7481,0.7582,0.7557,0.7699,0.8018,0.8149,0.8102,0.8188,0.8486,0.8416,0.8372,0.8421,0.8426,0.8426,0.8426,0.8557,0.8703,-2.4002,-2.3889,-2.2919,-2.2159,-2.1387,-1.9811,-1.8991,-1.8675,-1.7405,-1.809,-2.0056,-2.0042,-1.9837,-1.9651,-1.9189,-1.9045,-1.9198,-1.8935,-1.8766,-1.8762,-1.8877,-1.815,-1.6843,-1.6982,-1.6375,-1.5099,-1.4799,-1.4667,-1.447,-1.3561,-1.2897,-1.2476,-1.1061,-1.0291,-1.0259,-0.9196,-0.865,-0.859,-0.8623,-0.8623,-0.8617,-0.8497,-0.8738,-0.9219,-0.9317,-0.9544,-1.0029,-1.0117,-1.0117,-1.0054,-1.0054,-1.0054,-1.0054,-0.9761,-0.9468,-0.9182,-0.8225,-0.7326,-0.6622,-0.4678,-0.3396,-0.3332,-0.2436,-0.1857,-0.1889,-0.1888,-0.1948,-0.2067,-0.2029,-0.1967,-0.1975,-0.1879,-0.1849,-0.1855,-0.1857,-0.1826,-0.1858,-0.1857,-0.1171,0.0325,0.0738,0.14,0.2908,0.3782,0.4209,0.4536,0.5329,0.6101,0.6469,0.6834,0.6972,0.6975,0.7141,0.7319,0.737,0.7515,0.7567,0.7535,0.7852,0.8008,0.8015,0.8316,0.8507,0.8448,0.8426,0.8453,0.8557,0.8519,0.8497,0.8546,0.8557,0.8607,0.8701,0.8895,0.9092,-2.3671,-2.3182,-2.1553,-1.9685,-1.8017,-1.735,-1.7046,-1.6952,-1.6382,-1.6259,-1.6559,-1.636,-1.6053,-1.5593,-1.5601,-1.5821,-1.6154,-1.5988,-1.6206,-1.6454,-1.6179,-1.6014,-1.579,-1.5627,-1.527,-1.4742,-1.4369,-1.3942,-1.36,-1.2403,-1.1159,-0.9965,-0.9302,-0.9062,-0.8968,-0.8855,-0.8738,-0.8623,-0.8623,-0.8623,-0.8617,-0.8579,-0.869,-0.8938,-0.9252,-0.9348,-0.9372,-0.9596,-0.9602,-0.9347,-0.9321,-0.9315,-0.9321,-0.9252,-0.88,-0.7879,-0.7618,-0.6558,-0.412,-0.2576,-0.1742,-0.1317,-0.1297,-0.1238,-0.1206,-0.1206,-0.1459,-0.1854,-0.1744,-0.1592,-0.1609,-0.1349,-0.1223,-0.1268,-0.127,-0.1207,-0.1238,-0.1174,-0.0268,0.221,0.1976,0.2739,0.4689,0.5063,0.5122,0.5598,0.6083,0.6553,0.6853,0.7301,0.759,0.7573,0.7611,0.7597,0.7659,0.8017,0.8182,0.8242,0.8393,0.8464,0.8469,0.8474,0.8612,0.8557,0.8557,0.8568,0.8573,0.8573,0.8568,0.8607,0.8617,0.8684,0.895,0.9117,0.9154,-2.2331,-2.1934,-2.0145,-1.864,-1.7272,-1.568,-1.4966,-1.4851,-1.3745,-1.303,-1.27,-1.2577,-1.3587,-1.5271,-1.4882,-1.4991,-1.5566,-1.5354,-1.5467,-1.5856,-1.591,-1.5355,-1.4337,-1.4196,-1.3569,-1.248,-1.1959,-1.1621,-1.1318,-1.0556,-0.9788,-0.9203,-0.8989,-0.8892,-0.8843,-0.8878,-0.8816,-0.8767,-0.8767,-0.8767,-0.8751,-0.866,-0.8729,-0.9015,-0.9141,-0.9315,-0.9469,-0.9621,-0.9621,-0.9496,-0.9496,-0.9496,-0.949,-0.8666,-0.7913,-0.722,-0.5606,-0.396,-0.2213,-0.1596,-0.1234,-0.1068,-0.1073,-0.1111,-0.1111,-0.1111,-0.1238,-0.1426,-0.1356,-0.1294,-0.13,-0.1168,-0.107,-0.1109,-0.1111,-0.1077,-0.1111,-0.1077,-0.0067,0.2449,0.2405,0.3114,0.5497,0.6024,0.6079,0.6509,0.6895,0.7163,0.7383,0.7727,0.7965,0.8002,0.7965,0.8044,0.8129,0.8339,0.8475,0.8524,0.8557,0.8617,0.8623,0.8623,0.8623,0.8623,0.8623,0.8623,0.8617,0.8623,0.8623,0.8623,0.8623,0.8684,0.9017,0.9289,0.9455,-2.0518,-2.0028,-1.826,-1.6773,-1.5576,-1.3695,-1.286,-1.2706,-1.1488,-1.0635,-1.0173,-1.0133,-1.1499,-1.3618,-1.339,-1.3543,-1.4112,-1.3978,-1.4125,-1.4579,-1.4806,-1.4086,-1.2739,-1.2654,-1.1937,-1.0695,-1.0156,-0.9873,-0.9723,-0.9369,-0.9098,-0.9022,-0.9011,-0.8995,-0.8968,-0.8933,-0.8917,-0.8914,-0.8914,-0.8914,-0.8892,-0.8746,-0.8806,-0.9007,-0.9102,-0.9224,-0.9395,-0.9495,-0.9489,-0.9395,-0.9123,-0.8923,-0.8756,-0.7512,-0.6473,-0.5737,-0.3627,-0.1884,-0.101,-0.0943,-0.0875,-0.0808,-0.0808,-0.0808,-0.0808,-0.0808,-0.0808,-0.0774,-0.0774,-0.0807,-0.0943,-0.0842,-0.0808,-0.0808,-0.0808,-0.0808,-0.0774,-0.0538,0.0773,0.2848,0.3292,0.3878,0.617,0.6805,0.6897,0.7205,0.7539,0.778,0.7864,0.8066,0.8258,0.8258,0.8275,0.8361,0.8475,0.8503,0.8535,0.8552,0.8585,0.8623,0.8623,0.8623,0.8623,0.8623,0.8623,0.8623,0.8623,0.8623,0.8623,0.8623,0.8656,0.8823,0.9222,0.9561,0.9927,-1.8128,-1.7747,-1.5506,-1.3472,-1.1591,-1.1074,-1.0791,-1.0868,-1.033,-0.9982,-0.9845,-0.979,-0.9787,-1.0033,-1.0341,-1.0419,-1.0809,-1.1211,-1.157,-1.1951,-1.1929,-1.1606,-1.1132,-1.1074,-1.0707,-1.0036,-0.9903,-0.9699,-0.9374,-0.9296,-0.9296,-0.928,-0.9269,-0.9226,-0.9103,-0.9092,-0.9033,-0.8952,-0.8941,-0.893,-0.8924,-0.8879,-0.8883,-0.8888,-0.9132,-0.9081,-0.8784,-0.8956,-0.8989,-0.8656,-0.7722,-0.7016,-0.651,-0.5536,-0.4331,-0.3025,-0.185,-0.101,-0.0606,-0.0539,-0.0404,0.0,0.0,0.0,0.0,0.0,0.0,0.0,0.0,0.0,-0.0471,-0.0337,0.0,0.0,0.0,0.0,0.0,0.1009,0.2351,0.3754,0.4868,0.5902,0.7125,0.7491,0.7593,0.7704,0.797,0.8178,0.8178,0.8286,0.8367,0.8426,0.847,0.8503,0.8296,0.8378,0.8459,0.8481,0.8557,0.8623,0.8623,0.8623,0.8623,0.8623,0.8623,0.8623,0.8623,0.8623,0.8623,0.8656,0.8817,0.905,0.9422,0.9894,1.0226,-1.536,-1.4092,-1.2775,-1.1758,-1.1076,-1.0481,-1.0214,-1.0214,-1.0058,-0.9911,-0.9748,-0.9688,-0.9594,-0.9403,-0.9843,-1.0063,-1.0137,-1.0245,-1.0534,-1.0858,-1.0894,-1.0815,-1.0678,-1.0426,-1.0209,-0.9915,-0.9627,-0.9446,-0.9338,-0.9302,-0.9302,-0.9302,-0.9302,-0.928,-0.9211,-0.9242,-0.922,-0.9147,-0.9177,-0.9141,-0.913,-0.9141,-0.9122,-0.9008,-0.9031,-0.8965,-0.8789,-0.8883,-0.8428,-0.738,-0.6845,-0.6142,-0.5064,-0.3794,-0.2554,-0.1413,-0.074,-0.0337,-0.0202,-0.0168,-0.0135,0.0,0.0,0.0,0.0,0.0,0.0,0.0,0.0,0.0,0.0,-0.0067,0.0,0.0,0.0,0.0437,0.1177,0.1849,0.2956,0.5058,0.6601,0.7517,0.754,0.7815,0.8039,0.8135,0.8253,0.835,0.8448,0.8503,0.8519,0.853,0.8557,0.8562,0.8497,0.8492,0.853,0.8535,0.8573,0.8617,0.8623,0.8623,0.8623,0.8623,0.8623,0.8623,0.8623,0.8623,0.8623,0.8656,0.8817,0.9123,0.9561,0.9827,1.016,-1.296,-1.1593,-1.1016,-1.0736,-1.0645,-1.0168,-1.0019,-1.0019,-1.0019,-0.9889,-0.9736,-0.9703,-0.9573,-0.9381,-0.968,-0.9784,-0.9752,-1.0032,-1.0329,-1.0584,-1.0541,-1.045,-1.0329,-1.0041,-0.9843,-0.9699,-0.9446,-0.9302,-0.9302,-0.9302,-0.9302,-0.9302,-0.9302,-0.9302,-0.9302,-0.9302,-0.9302,-0.9302,-0.9302,-0.9302,-0.9266,-0.8796,-0.8508,-0.8331,-0.7863,-0.7753,-0.8114,-0.8104,-0.7394,-0.6062,-0.5434,-0.4552,-0.3159,-0.205,-0.111,-0.0404,-0.0135,0.0,0.0,0.0,0.0,0.0,0.0,0.0,0.0,0.0,0.0,0.0,0.0,0.0,0.0,0.0,0.0,0.0538,0.0673,0.1277,0.262,0.3224,0.4629,0.6602,0.7796,0.8208,0.8102,0.8226,0.8361,0.8465,0.847,0.8513,0.8568,0.8623,0.8623,0.8623,0.8617,0.8617,0.8552,0.8552,0.8562,0.8573,0.8573,0.8617,0.8623,0.8623,0.8623,0.8623,0.8623,0.8623,0.8623,0.8623,0.8623,0.8623,0.8784,0.9117,0.9389,0.9594,0.996,-1.1065,-1.0554,-1.0429,-1.0304,-1.0135,-1.0041,-1.0019,-1.0019,-1.0019,-0.9894,-0.9742,-0.972,-0.9563,-0.9367,-0.9414,-0.9376,-0.954,-1.0242,-1.0604,-1.0625,-1.0528,-1.0334,-1.0066,-0.9895,-0.9663,-0.9374,-0.9338,-0.9302,-0.9302,-0.9302,-0.9302,-0.9302,-0.9302,-0.9302,-0.9302,-0.9302,-0.9266,-0.9121,-0.9049,-0.909,-0.9085,-0.767,-0.6982,-0.6833,-0.5699,-0.5489,-0.6446,-0.6534,-0.5875,-0.4438,-0.3398,-0.208,-0.098,-0.0371,0.0,0.0,0.0,0.0,0.0,0.0,0.0,0.0,0.0,0.0,0.0,0.0,0.0,0.0,0.0,0.0,0.0,0.0,0.0673,0.1782,0.1882,0.2486,0.4093,0.5536,0.6911,0.8112,0.8573,0.8584,0.8579,0.8546,0.8546,0.8557,0.8601,0.8601,0.8617,0.8623,0.8623,0.8623,0.8623,0.8623,0.8623,0.8617,0.8617,0.8617,0.8617,0.8623,0.8623,0.8623,0.8623,0.8623,0.8623,0.8623,0.8623,0.8623,0.8623,0.8651,0.8851,0.9017,0.9217,0.9455,0.9728,-1.0818,-1.0612,-1.0454,-1.0346,-1.0248,-1.0095,-1.0019,-1.0019,-1.0019,-0.9932,-0.9802,-0.9748,-0.9699,-0.9601,-0.9633,-0.9628,-0.9682,-1.0052,-1.0077,-0.9832,-0.9753,-0.97,-0.9579,-0.9504,-0.9416,-0.9338,-0.9302,-0.9307,-0.9307,-0.9307,-0.9302,-0.9302,-0.9307,-0.9302,-0.924,-0.9266,-0.8863,-0.7815,-0.7706,-0.7261,-0.6246,-0.5696,-0.5405,-0.5366,-0.4934,-0.4454,-0.3772,-0.4594,-0.4387,-0.2992,-0.2517,-0.1633,0.0,-0.0069,0.0,0.0,0.0,0.0,0.0,0.0,0.0,0.0,0.0,0.0,0.0,0.0,0.0,0.0,0.0,0.0303,0.1177,0.1446,0.1714,0.205,0.2118,0.3224,0.5402,0.6978,0.7984,0.8451,0.8623,0.8623,0.8623,0.8623,0.8623,0.8623,0.8623,0.8623,0.8623,0.8623,0.8623,0.8623,0.8623,0.8623,0.8623,0.8623,0.8623,0.8623,0.8623,0.8623,0.8623,0.8623,0.8623,0.8623,0.8623,0.8623,0.8623,0.8623,0.8623,0.8623,0.8717,0.8884,0.905,0.925,0.9489,-1.0668,-1.065,-1.0465,-1.0356,-1.0297,-1.0101,-1.0019,-1.0019,-1.0019,-0.991,-0.9818,-0.9802,-0.9775,-0.9704,-0.9748,-0.9775,-0.9748,-0.9856,-0.9731,-0.9481,-0.9487,-0.9481,-0.9438,-0.9389,-0.9405,-0.9432,-0.9438,-0.9438,-0.9474,-0.9443,-0.9443,-0.9443,-0.9438,-0.9071,-0.8585,-0.8475,-0.7737,-0.6374,-0.6121,-0.5662,-0.4797,-0.4112,-0.3816,-0.3759,-0.3248,-0.2459,-0.1576,-0.2354,-0.2403,-0.1606,-0.1377,-0.0842,0.0,0.0,0.0,0.0,0.0,0.0,0.0,0.0,0.0068,0.017,0.0204,0.0,0.0,0.0,0.0438,0.0572,0.064,0.1043,0.205,0.2454,0.2754,0.349,0.3727,0.4766,0.6878,0.8017,0.8518,0.8623,0.8623,0.8623,0.8623,0.8623,0.8623,0.8623,0.8623,0.8623,0.8623,0.8623,0.8623,0.8623,0.8623,0.8623,0.8623,0.8623,0.8623,0.8623,0.8623,0.8623,0.8623,0.8623,0.8623,0.8623,0.8623,0.8623,0.8623,0.8623,0.8623,0.8623,0.8623,0.8717,0.8851,0.8884,0.9056,-1.0672,-1.0599,-1.0438,-1.0324,-1.0221,-1.0079,-1.0019,-1.0019,-1.0019,-0.9921,-0.9834,-0.9829,-0.9769,-0.9715,-0.9742,-0.9748,-0.9742,-0.978,-0.9753,-0.9726,-0.9764,-0.9753,-0.9628,-0.9536,-0.9583,-0.9665,-0.9676,-0.9687,-0.9665,-0.9665,-0.9628,-0.9334,-0.9217,-0.8638,-0.7327,-0.7048,-0.6207,-0.4777,-0.4557,-0.4447,-0.4117,-0.2944,-0.2192,-0.2117,-0.1049,0.0,0.0,0.0,0.0,0.0,0.0,0.0,0.0,0.0,0.0,0.0,0.0,0.0,0.0,0.0,0.0,0.0413,0.0515,0.0718,0.1015,0.1216,0.135,0.1583,0.1686,0.2056,0.2858,0.3325,0.4227,0.57,0.6105,0.7011,0.8284,0.8551,0.859,0.8623,0.8623,0.8623,0.8623,0.8623,0.8623,0.8623,0.8623,0.8623,0.8623,0.8623,0.8623,0.8623,0.8623,0.8623,0.8623,0.8623,0.8623,0.8623,0.8623,0.8623,0.8623,0.8623,0.8623,0.8623,0.8623,0.8623,0.8623,0.8623,0.8623,0.8623,0.8623,0.8623,0.8656,0.8684,0.8751,-1.0679,-1.0666,-1.0471,-1.0367,-1.0307,-1.0112,-1.0019,-1.0019,-1.0019,-0.9998,-0.9932,-0.997,-0.991,-0.9927,-0.9921,-0.9927,-0.9911,-0.9916,-0.9927,-0.9932,-0.9954,-0.9851,-0.9742,-0.9682,-0.9676,-0.9714,-0.9618,-0.9703,-0.9703,-0.95,-0.8958,-0.7882,-0.7829,-0.7026,-0.5622,-0.5365,-0.4492,-0.3174,-0.2911,-0.2356,0.0,0.0,-0.0608,-0.0574,0.0,0.0,0.0,0.0,0.0,0.0,0.0,0.0,0.0,0.0,0.0,0.0,0.0,0.0,0.0,0.0,0.0,0.0558,0.0865,0.1133,0.1505,0.205,0.231,0.2469,0.2711,0.3532,0.4678,0.5101,0.6038,0.7512,0.7851,0.8051,0.8451,0.8623,0.8623,0.8623,0.8623,0.8623,0.8623,0.8623,0.8623,0.8623,0.8623,0.8623,0.8623,0.8623,0.8623,0.8623,0.8623,0.8623,0.8623,0.8623,0.8623,0.8623,0.8623,0.8623,0.8623,0.8623,0.8623,0.8623,0.8623,0.8623,0.8623,0.8623,0.8623,0.8623,0.8623,0.8623,0.8623,0.8651,0.8651,-1.0695,-1.0674,-1.0481,-1.0424,-1.0356,-1.0128,-1.0019,-1.0019,-1.0019,-1.0019,-1.0019,-1.0019,-1.0019,-1.0019,-1.0019,-1.0019,-1.0019,-1.0019,-1.0014,-0.9864,-0.9231,-0.9238,-0.9638,-0.9775,-0.9764,-0.9704,-0.9089,-0.8745,-0.8555,-0.813,-0.7171,-0.6483,-0.6284,-0.5402,-0.3878,-0.3756,-0.2954,-0.1653,-0.1307,-0.0849,0.0,0.0,0.0,0.0,0.0,0.0,0.0,0.0,0.0,0.0,0.0,0.0,0.0,0.0,0.0,0.0,0.0143,0.0,0.0285,0.0392,0.0676,0.1062,0.1403,0.1882,0.2429,0.3117,0.3583,0.4016,0.4377,0.5211,0.6141,0.6669,0.735,0.8251,0.8623,0.8623,0.8623,0.8623,0.8623,0.8623,0.8623,0.8623,0.8623,0.8623,0.8623,0.8623,0.8623,0.8623,0.8623,0.8623,0.8656,0.869,0.869,0.869,0.869,0.869,0.8723,0.8723,0.8756,0.8723,0.869,0.869,0.8623,0.8623,0.8623,0.8623,0.8623,0.8623,0.8623,0.8623,0.8623,0.8623,0.8623,0.8623,0.8623,-1.0695,-1.0679,-1.0457,-1.0365,-1.0292,-1.0003,-0.9844,-0.9868,-0.9823,-0.9818,-0.9813,-0.9874,-0.9747,-0.9864,-0.9708,-0.9864,-0.9903,-0.9431,-0.9197,-0.8686,-0.7981,-0.7808,-0.877,-0.8698,-0.8784,-0.8765,-0.7782,-0.7345,-0.6979,-0.5819,-0.5047,-0.48,-0.4724,-0.3795,-0.2536,-0.2228,-0.1411,0.0,0.0,0.0,0.0,0.0,0.0,0.0,0.0,0.0,0.0,0.0419,0.053,0.0,0.0112,0.0,0.0,0.0,0.0,0.0,0.0509,0.0655,0.0692,0.0945,0.1342,0.1687,0.2145,0.2774,0.3555,0.4385,0.5111,0.5643,0.6229,0.6676,0.7162,0.7795,0.8244,0.8695,0.8717,0.8756,0.869,0.8656,0.8623,0.8623,0.8623,0.8623,0.8623,0.8623,0.8623,0.8623,0.8656,0.8751,0.8823,0.8923,0.8923,0.8923,0.8889,0.879,0.8823,0.8823,0.8856,0.8889,0.8989,0.8989,0.8923,0.8856,0.869,0.8623,0.8623,0.8623,0.8623,0.8623,0.8623,0.8623,0.8623,0.8623,0.8623,0.8623,0.8623,-1.0695,-1.0643,-1.0169,-0.9989,-0.9927,-0.9436,-0.9212,-0.9162,-0.9129,-0.9021,-0.9041,-0.9012,-0.8939,-0.8934,-0.8856,-0.9207,-0.9003,-0.7829,-0.6616,-0.5636,-0.5717,-0.5639,-0.6066,-0.6082,-0.6091,-0.6069,-0.5796,-0.5522,-0.5287,-0.4896,-0.427,-0.3133,-0.2938,-0.2234,-0.0863,0.0,0.0,0.0,0.0,0.0,0.0,0.0,0.0,0.0078,0.0313,0.0469,0.0546,0.0896,0.1084,0.1032,0.0977,0.0929,0.0888,0.0882,0.0878,0.0877,0.0986,0.1059,0.1095,0.1204,0.1494,0.2143,0.2808,0.3642,0.4772,0.576,0.6473,0.6968,0.7341,0.7704,0.8006,0.8651,0.8935,0.9074,0.9246,0.9407,0.9367,0.8962,0.8723,0.8656,0.8656,0.8623,0.8623,0.869,0.869,0.8656,0.879,0.895,0.9089,0.9222,0.9222,0.9228,0.9228,0.9189,0.9189,0.9189,0.9189,0.9189,0.9228,0.9262,0.9195,0.9056,0.8923,0.8756,0.8623,0.8656,0.8823,0.8723,0.879,0.869,0.869,0.8756,0.8823,0.8723,0.8756,-1.0075,-1.006,-0.97,-0.9573,-0.9513,-0.9135,-0.8558,-0.7899,-0.7738,-0.7233,-0.6571,-0.6425,-0.6391,-0.6427,-0.6434,-0.6573,-0.6573,-0.5949,-0.5089,-0.4464,-0.4151,-0.3838,-0.3564,-0.3253,-0.3174,-0.4231,-0.3838,-0.3603,-0.3447,-0.2939,-0.2079,-0.1412,-0.1334,-0.0981,0.0,0.0,0.0,0.0,0.0,0.0,0.0,0.0,0.0118,0.0314,0.0707,0.0942,0.0942,0.1287,0.1519,0.1586,0.1673,0.1575,0.1312,0.1267,0.126,0.1216,0.1399,0.1473,0.1508,0.1648,0.2012,0.261,0.3308,0.4299,0.5404,0.6554,0.7397,0.79,0.8337,0.8672,0.8895,0.9079,0.9365,0.9585,0.9682,0.9811,0.978,0.9405,0.9123,0.9123,0.9156,0.9156,0.9123,0.9023,0.9089,0.9195,0.9228,0.9389,0.9389,0.9495,0.9561,0.9561,0.9628,0.9628,0.9628,0.9594,0.9561,0.9561,0.9528,0.9528,0.9528,0.9361,0.9189,0.9089,0.9023,0.9123,0.9256,0.9123,0.9056,0.9189,0.9228,0.9128,0.9128,0.9195,0.9222,-0.8604,-0.8558,-0.8388,-0.8313,-0.83,-0.7987,-0.7018,-0.591,-0.5813,-0.4991,-0.3799,-0.3522,-0.389,-0.3642,-0.377,-0.3599,-0.3404,-0.3718,-0.3484,-0.2703,-0.2077,-0.1803,-0.149,-0.0865,-0.0945,-0.3103,-0.2196,-0.1568,-0.1176,-0.0432,-0.0196,0.0118,0.0039,0.0039,0.0,0.0,0.0,0.0,0.0,0.0,0.0,0.0,0.0,0.0746,0.1139,0.1374,0.145,0.1716,0.1944,0.1999,0.2272,0.206,0.1674,0.1476,0.1433,0.1454,0.1751,0.1864,0.1935,0.2145,0.2509,0.3085,0.3864,0.4853,0.6007,0.7119,0.7982,0.86,0.9095,0.9452,0.9741,0.9812,0.9909,1.0062,1.0107,1.0154,1.0191,1.0054,0.9933,0.9664,0.9546,0.9495,0.9528,0.9528,0.9628,0.9728,0.9761,0.9761,0.9761,0.9861,0.9927,0.9994,1.0093,1.0093,1.0093,1.006,1.0027,0.996,0.9927,0.9927,0.9927,0.9894,0.9788,0.9594,0.9561,0.9628,0.9594,0.9495,0.9495,0.9694,0.9628,0.9461,0.9528,0.9694,0.9661,-0.4905,-0.4863,-0.4519,-0.4389,-0.4345,-0.3963,-0.3749,-0.3373,-0.3304,-0.307,-0.2719,-0.2687,-0.2503,-0.2563,-0.2668,-0.1959,-0.1097,-0.1371,-0.0979,0.0039,0.0432,0.0353,0.0432,0.0832,0.0955,0.0874,0.0514,0.0236,0.0551,0.0982,0.0946,0.0944,0.0669,0.0512,0.0512,0.051,0.0512,0.0551,0.0786,0.0942,0.0942,0.1021,0.106,0.1217,0.157,0.1768,0.1885,0.2157,0.2392,0.2395,0.2465,0.2421,0.2254,0.2147,0.2125,0.2116,0.2189,0.2227,0.2262,0.2447,0.2956,0.3799,0.4781,0.5886,0.7092,0.8015,0.8733,0.9189,0.9607,0.991,1.0178,1.036,1.049,1.0622,1.0744,1.091,1.0958,1.0829,1.0579,1.0168,0.9939,0.9794,0.9894,0.9927,0.996,1.0027,1.006,1.0093,1.0127,1.0259,1.0459,1.0518,1.0585,1.0585,1.0585,1.0552,1.0518,1.0459,1.0425,1.0392,1.0425,1.0525,1.0425,1.0093,0.9894,0.9827,0.9794,0.9827,0.9827,0.9927,0.9827,0.9728,0.9861,0.996,0.9861,-0.3313,-0.3313,-0.3103,-0.302,-0.302,-0.2811,-0.214,-0.1384,-0.1253,-0.0706,-0.0082,0.0123,0.0122,0.0121,0.0159,0.0671,0.0864,0.0706,0.102,0.1768,0.1492,0.1296,0.1339,0.1552,0.1718,0.172,0.1479,0.14,0.16,0.1361,0.1359,0.124,0.104,0.096,0.0958,0.0955,0.0952,0.103,0.1183,0.1336,0.1375,0.1454,0.1611,0.1728,0.1964,0.22,0.2237,0.2379,0.2499,0.2507,0.2499,0.251,0.2515,0.2539,0.2502,0.2489,0.2523,0.2485,0.267,0.3079,0.4117,0.4842,0.6091,0.743,0.8432,0.9203,0.966,1.0021,1.0146,1.0468,1.0811,1.0872,1.0944,1.1127,1.1264,1.1321,1.1335,1.1253,1.0978,1.0608,1.0512,1.0389,1.0293,1.0293,1.0259,1.0293,1.0352,1.0386,1.0419,1.0552,1.0717,1.0717,1.0684,1.0684,1.0684,1.0684,1.0717,1.0717,1.0717,1.0717,1.0717,1.0691,1.0591,1.0392,1.0226,1.0127,1.0226,1.0326,1.0259,1.0193,1.0226,1.0226,1.0226,1.0226,1.016,-0.1604,-0.16,-0.16,-0.1598,-0.1638,-0.1595,-0.0756,0.0336,0.0546,0.1258,0.2513,0.2531,0.2433,0.2544,0.2468,0.2512,0.2487,0.2055,0.2021,0.1982,0.1784,0.1623,0.1588,0.1599,0.1816,0.2106,0.2081,0.2125,0.207,0.1825,0.1626,0.1622,0.1545,0.1465,0.1459,0.145,0.1445,0.1436,0.1551,0.1542,0.1656,0.1852,0.2008,0.2043,0.2318,0.2475,0.2473,0.2507,0.2508,0.2518,0.2517,0.2521,0.2635,0.2901,0.3027,0.2996,0.3024,0.3019,0.3396,0.4565,0.5698,0.6354,0.7759,0.8855,0.9607,1.0027,1.0536,1.0878,1.0928,1.1006,1.1278,1.125,1.1322,1.1435,1.1469,1.1463,1.1491,1.1443,1.1348,1.1149,1.109,1.0893,1.0698,1.0625,1.0538,1.0492,1.0552,1.0552,1.0585,1.0618,1.0717,1.0717,1.0717,1.0717,1.0717,1.0717,1.0717,1.0717,1.0717,1.0717,1.0717,1.0717,1.0625,1.0558,1.0591,1.0485,1.0651,1.0717,1.0552,1.0518,1.0651,1.0651,1.0518,1.0485,1.0485,0.211,0.2048,0.2005,0.2079,0.1936,0.185,0.2061,0.2229,0.2229,0.2425,0.2618,0.2609,0.2594,0.2613,0.2605,0.2581,0.2568,0.2492,0.2419,0.2378,0.2339,0.2298,0.2389,0.2459,0.2337,0.2424,0.2535,0.2565,0.2463,0.237,0.2403,0.2324,0.2042,0.1914,0.1921,0.1912,0.1858,0.1927,0.2217,0.2375,0.2398,0.2432,0.2419,0.2445,0.2437,0.2514,0.2517,0.2522,0.2579,0.2586,0.2651,0.2625,0.2839,0.4172,0.4741,0.4812,0.4726,0.473,0.4997,0.6259,0.7427,0.7983,0.8936,0.9488,1.0254,1.072,1.1095,1.1388,1.1406,1.1473,1.169,1.1677,1.1669,1.1631,1.1599,1.1579,1.1592,1.1565,1.1477,1.143,1.1279,1.1124,1.0941,1.0873,1.0846,1.0759,1.0717,1.0717,1.0717,1.0717,1.0717,1.0717,1.0717,1.0717,1.0717,1.0717,1.0717,1.0717,1.0717,1.0717,1.0717,1.0717,1.0717,1.0684,1.0717,1.0717,1.0717,1.0717,1.0717,1.0717,1.0717,1.0717,1.0684,1.0717,1.0717,0.2807,0.2762,0.2701,0.2688,0.2675,0.2701,0.2692,0.2692,0.2692,0.2686,0.2675,0.2632,0.2656,0.259,0.2586,0.2611,0.2592,0.26,0.2602,0.2605,0.2605,0.2604,0.2567,0.259,0.2606,0.2617,0.2676,0.2653,0.2671,0.2658,0.2653,0.2653,0.2487,0.2408,0.2318,0.2348,0.2337,0.2367,0.2483,0.2596,0.2583,0.2608,0.2595,0.2579,0.2525,0.2518,0.2521,0.2523,0.2534,0.2737,0.332,0.4076,0.4538,0.5723,0.6805,0.683,0.7713,0.758,0.6865,0.8106,0.893,0.9606,1.0312,1.1261,1.1549,1.1651,1.1803,1.2051,1.201,1.2005,1.1972,1.1888,1.1793,1.1712,1.1737,1.1683,1.1676,1.1619,1.1579,1.1545,1.1533,1.1447,1.1317,1.1159,1.1036,1.084,1.0745,1.0698,1.0724,1.0717,1.0717,1.0717,1.0717,1.0717,1.0717,1.0717,1.0717,1.0717,1.0717,1.0717,1.0717,1.0717,1.0817,1.0784,1.0717,1.0717,1.0717,1.0717,1.0717,1.0717,1.0717,1.0717,1.0717,1.0717,1.0717,0.2848,0.2803,0.2722,0.2703,0.2692,0.2706,0.2698,0.2703,0.2695,0.2697,0.2701,0.2695,0.2675,0.2614,0.261,0.2601,0.2574,0.2628,0.2635,0.2635,0.2635,0.2641,0.2649,0.262,0.2624,0.2626,0.2683,0.2703,0.2673,0.2709,0.2692,0.2712,0.2649,0.2653,0.2652,0.2633,0.2573,0.2571,0.2587,0.2575,0.2609,0.2594,0.2582,0.2567,0.2551,0.2536,0.2577,0.3186,0.3309,0.3539,0.4976,0.5842,0.6154,0.7543,0.8495,0.8929,0.9931,1.0393,0.9777,1.0101,1.0565,1.1059,1.1495,1.2204,1.2365,1.2501,1.2494,1.2429,1.2361,1.2294,1.225,1.2067,1.1979,1.1934,1.1926,1.1851,1.1832,1.199,1.2057,1.2087,1.2087,1.2002,1.1832,1.1538,1.1269,1.0989,1.0826,1.0772,1.0771,1.0797,1.075,1.0784,1.075,1.075,1.075,1.075,1.075,1.0817,1.0817,1.0916,1.1016,1.1082,1.1148,1.1049,1.0883,1.0883,1.0949,1.0817,1.0717,1.0717,1.0717,1.0717,1.0717,1.0717,1.075,0.2917,0.2908,0.2848,0.2766,0.2696,0.2705,0.2666,0.2688,0.2705,0.2665,0.2679,0.2705,0.2676,0.262,0.263,0.2629,0.2607,0.2661,0.2714,0.2677,0.2685,0.2675,0.2666,0.2657,0.2699,0.2671,0.2666,0.2673,0.2685,0.2721,0.2735,0.2763,0.2724,0.2676,0.2672,0.2699,0.2694,0.2688,0.2625,0.2609,0.2606,0.2595,0.2582,0.2643,0.2636,0.2636,0.2717,0.4232,0.5037,0.5035,0.6654,0.7576,0.7913,0.9418,1.0269,1.0724,1.1697,1.2168,1.2061,1.1915,1.2285,1.2475,1.2545,1.2569,1.2583,1.2535,1.2515,1.2613,1.2624,1.2542,1.2428,1.2288,1.236,1.2359,1.2416,1.2412,1.2473,1.2634,1.2721,1.2733,1.261,1.2474,1.238,1.2113,1.1781,1.1489,1.1205,1.1141,1.1005,1.1017,1.0897,1.085,1.0817,1.0817,1.079,1.0857,1.1049,1.1148,1.1214,1.138,1.1545,1.1578,1.1446,1.1446,1.1314,1.1247,1.1148,1.1115,1.1016,1.0784,1.0717,1.075,1.0784,1.085,1.085,0.2919,0.287,0.2829,0.2804,0.2746,0.2699,0.2737,0.2754,0.2714,0.2698,0.2668,0.2697,0.2686,0.2682,0.2684,0.2698,0.2661,0.268,0.2747,0.2761,0.2765,0.2755,0.2697,0.2685,0.2676,0.2718,0.2716,0.2681,0.2692,0.2739,0.2772,0.2781,0.2748,0.2677,0.2669,0.2681,0.2731,0.2736,0.2677,0.2661,0.2653,0.2621,0.2601,0.2591,0.3947,0.4185,0.4548,0.6066,0.6603,0.7187,0.8527,0.9102,0.9516,1.1138,1.1889,1.2037,1.2954,1.3206,1.3247,1.3043,1.2881,1.2907,1.282,1.2773,1.2745,1.2805,1.2876,1.2927,1.2989,1.2944,1.3147,1.3101,1.3061,1.3011,1.299,1.3029,1.3089,1.3244,1.3228,1.3172,1.3003,1.28,1.2754,1.2693,1.2361,1.2033,1.1761,1.1528,1.1437,1.1347,1.1306,1.1266,1.1266,1.1257,1.1257,1.1335,1.142,1.1479,1.1578,1.1743,1.1916,1.1784,1.1685,1.171,1.1743,1.1611,1.1545,1.1446,1.128,1.1016,1.0883,1.0817,1.0883,1.1023,1.1082,0.2919,0.2917,0.2851,0.2793,0.2778,0.273,0.2763,0.2773,0.274,0.2713,0.2705,0.2698,0.2699,0.2703,0.2665,0.2724,0.2746,0.272,0.2778,0.2791,0.2793,0.2782,0.2726,0.2713,0.2707,0.2735,0.2739,0.2712,0.2728,0.278,0.2789,0.2792,0.274,0.2715,0.2748,0.2743,0.2762,0.2772,0.2766,0.2751,0.2743,0.2673,0.265,0.2939,0.4244,0.5049,0.5822,0.726,0.8612,0.9173,1.0096,1.1062,1.1643,1.2257,1.3105,1.3343,1.3418,1.3445,1.3527,1.3281,1.3077,1.2989,1.2982,1.2975,1.2996,1.3049,1.3149,1.3328,1.3429,1.3579,1.3796,1.3652,1.3518,1.3435,1.3642,1.3687,1.3672,1.373,1.366,1.3589,1.3446,1.3419,1.3349,1.3284,1.2803,1.247,1.2111,1.1937,1.1935,1.1883,1.188,1.1873,1.1865,1.1866,1.1833,1.1788,1.1788,1.1883,1.1942,1.2048,1.2114,1.2015,1.2048,1.2173,1.2173,1.2015,1.1883,1.1784,1.1512,1.1181,1.1148,1.1181,1.128,1.1413,1.1479,0.2919,0.2919,0.2872,0.2855,0.2829,0.2796,0.2785,0.2792,0.2781,0.2762,0.2736,0.2713,0.2714,0.2691,0.2695,0.2712,0.2782,0.2807,0.2822,0.2825,0.2827,0.2825,0.2812,0.2797,0.2784,0.281,0.28,0.2795,0.277,0.2806,0.2799,0.2801,0.2767,0.2818,0.2821,0.2795,0.2827,0.2827,0.2787,0.2782,0.2823,0.294,0.3233,0.365,0.5357,0.6453,0.7115,0.9308,1.0579,1.0905,1.2031,1.2767,1.3004,1.3051,1.3464,1.3729,1.3583,1.3739,1.407,1.3551,1.332,1.3224,1.3276,1.3196,1.3129,1.3226,1.3479,1.3738,1.3853,1.3975,1.4024,1.404,1.3959,1.3968,1.4206,1.4274,1.4218,1.4247,1.4182,1.4064,1.4126,1.4144,1.4071,1.3866,1.3342,1.2888,1.2477,1.236,1.2433,1.2433,1.2441,1.2467,1.2485,1.2421,1.2367,1.2183,1.2146,1.2257,1.2361,1.2443,1.2493,1.251,1.2568,1.2667,1.2536,1.2305,1.218,1.2048,1.1876,1.1776,1.1652,1.1652,1.1751,1.181,1.1876,0.2919,0.2919,0.2919,0.2913,0.2855,0.2826,0.2823,0.2881,0.2822,0.2796,0.2772,0.2755,0.2757,0.2766,0.277,0.2784,0.2812,0.2819,0.2789,0.2857,0.2856,0.2842,0.2831,0.2822,0.2811,0.2804,0.2801,0.2804,0.2795,0.2862,0.2826,0.2827,0.3016,0.2856,0.2851,0.2833,0.2821,0.2836,0.2827,0.2812,0.2987,0.3973,0.4694,0.4821,0.7299,0.8662,0.8819,1.1389,1.2427,1.2471,1.356,1.3891,1.386,1.3839,1.3898,1.4121,1.402,1.4201,1.4334,1.4128,1.4029,1.3894,1.3709,1.3716,1.3815,1.3833,1.402,1.4159,1.431,1.4454,1.4609,1.4663,1.463,1.463,1.4744,1.4744,1.4734,1.4764,1.4738,1.4571,1.4538,1.4335,1.4221,1.4131,1.3682,1.3492,1.3158,1.3064,1.3129,1.3072,1.3088,1.308,1.308,1.3038,1.2919,1.2733,1.2621,1.2732,1.2753,1.2796,1.2863,1.2856,1.2782,1.2757,1.2675,1.2601,1.2534,1.2451,1.2485,1.2437,1.2275,1.212,1.2107,1.2173,1.2239,0.2919,0.2919,0.2919,0.2919,0.2916,0.2853,0.2856,0.291,0.2833,0.2806,0.2797,0.2789,0.2791,0.2796,0.2801,0.2815,0.2842,0.2845,0.2849,0.2919,0.2919,0.2861,0.2851,0.2844,0.2838,0.2825,0.2829,0.2834,0.2869,0.2901,0.2859,0.2986,0.3533,0.3986,0.3846,0.3477,0.3296,0.3662,0.4093,0.4482,0.5137,0.5995,0.6626,0.7392,0.903,1.0795,1.1453,1.2659,1.4032,1.4001,1.4174,1.4479,1.4349,1.4352,1.4411,1.4547,1.4702,1.4761,1.4744,1.4837,1.4727,1.4683,1.4428,1.4229,1.4206,1.4234,1.4409,1.4593,1.4712,1.4867,1.4996,1.508,1.5047,1.5009,1.5006,1.496,1.496,1.4982,1.4974,1.4814,1.4684,1.4497,1.4335,1.4229,1.4007,1.3938,1.3868,1.3823,1.3706,1.3612,1.3506,1.3514,1.3514,1.3418,1.3367,1.3293,1.3231,1.3214,1.3157,1.3124,1.3059,1.3035,1.2954,1.2856,1.2863,1.2854,1.2871,1.2871,1.287,1.2852,1.2781,1.261,1.2509,1.2526,1.2591,0.2919,0.2919,0.2919,0.2919,0.2919,0.2916,0.2917,0.2914,0.2859,0.2807,0.2829,0.2803,0.2808,0.2827,0.283,0.2844,0.2864,0.2913,0.292,0.292,0.2876,0.2919,0.2924,0.2876,0.2875,0.2876,0.2969,0.3153,0.3056,0.4103,0.4011,0.3958,0.5316,0.5771,0.5538,0.5131,0.4942,0.5557,0.5859,0.6433,0.7324,0.8385,0.8772,0.9538,1.0832,1.181,1.249,1.3477,1.4028,1.4221,1.4397,1.4439,1.4473,1.4555,1.4829,1.513,1.5393,1.5288,1.5238,1.5369,1.5329,1.5202,1.4715,1.4388,1.439,1.4592,1.4703,1.4845,1.4947,1.5032,1.514,1.5139,1.509,1.5041,1.5015,1.5006,1.5006,1.4998,1.4998,1.4917,1.4765,1.4619,1.4489,1.4375,1.4278,1.4205,1.4115,1.4034,1.3945,1.3847,1.3766,1.3766,1.3766,1.3766,1.369,1.3617,1.3512,1.3409,1.3368,1.3336,1.3262,1.3181,1.3133,1.3084,1.3076,1.3084,1.31,1.3133,1.3165,1.3146,1.3068,1.3012,1.2884,1.2861,1.2886,0.2919,0.2919,0.2919,0.2919,0.2919,0.2919,0.2919,0.2916,0.2898,0.2855,0.286,0.2852,0.2849,0.286,0.2861,0.2912,0.2917,0.2878,0.2889,0.2891,0.289,0.2906,0.3006,0.3097,0.3011,0.3155,0.3345,0.4115,0.5305,0.6173,0.7036,0.7548,0.7792,0.8205,0.83,0.808,0.8057,0.7911,0.8071,0.8579,0.9482,1.0486,1.0863,1.1743,1.2947,1.3663,1.4232,1.47,1.5101,1.5225,1.5531,1.5693,1.5727,1.5666,1.5728,1.5873,1.5853,1.5699,1.5739,1.5723,1.5691,1.5618,1.5249,1.5202,1.5106,1.5051,1.5042,1.5105,1.5112,1.5181,1.5204,1.5163,1.5122,1.5065,1.5055,1.5039,1.5039,1.5047,1.5047,1.5015,1.4862,1.4749,1.4627,1.4529,1.444,1.4391,1.4326,1.4245,1.4131,1.4026,1.3912,1.3904,1.3888,1.3847,1.3855,1.3771,1.3674,1.3585,1.3544,1.3506,1.3392,1.3327,1.3303,1.3271,1.3246,1.3262,1.3321,1.3353,1.3344,1.3362,1.3309,1.3295,1.3246,1.3189,1.3149,0.2863,0.2919,0.2919,0.2919,0.2919,0.2919,0.2919,0.2919,0.2919,0.2919,0.2919,0.2917,0.2881,0.289,0.2891,0.2898,0.2956,0.296,0.2923,0.2924,0.3141,0.3663,0.3815,0.423,0.4917,0.4937,0.5495,0.6442,0.7615,0.8619,0.9482,0.9478,1.0133,1.0866,1.1262,1.1788,1.2108,1.1607,1.1144,1.1054,1.1754,1.2752,1.3362,1.393,1.522,1.5447,1.5664,1.5866,1.5895,1.5868,1.6066,1.6287,1.6237,1.6149,1.6242,1.6323,1.6267,1.6186,1.6201,1.6186,1.6048,1.5943,1.5853,1.5813,1.5635,1.5497,1.54,1.5335,1.5285,1.5212,1.5195,1.5179,1.5139,1.509,1.5065,1.5041,1.5049,1.5049,1.5049,1.5049,1.4976,1.4862,1.4765,1.4676,1.4603,1.4562,1.4513,1.444,1.4302,1.4148,1.4002,1.3912,1.3904,1.3888,1.3912,1.3945,1.3855,1.3755,1.3758,1.3677,1.3547,1.353,1.3571,1.3498,1.3401,1.3441,1.349,1.349,1.3498,1.3522,1.3606,1.3579,1.3514,1.341,1.3386,0.2849,0.2919,0.2919,0.2964,0.2919,0.2964,0.3145,0.3191,0.3374,0.3058,0.2969,0.2878,0.2894,0.2916,0.292,0.2932,0.3216,0.3406,0.3779,0.3379,0.433,0.5034,0.5932,0.638,0.7042,0.837,0.9069,0.8829,0.9986,1.1156,1.1816,1.111,1.2661,1.3609,1.3897,1.4867,1.5213,1.5125,1.4308,1.3926,1.4944,1.5676,1.5883,1.5861,1.5942,1.591,1.5938,1.5963,1.5976,1.5918,1.6011,1.6345,1.6337,1.6331,1.6509,1.6576,1.6527,1.6519,1.6511,1.6479,1.6529,1.6438,1.6422,1.6292,1.6097,1.5772,1.5577,1.5512,1.5439,1.5382,1.5358,1.5358,1.5325,1.5285,1.5252,1.5179,1.5106,1.5139,1.5187,1.5187,1.5187,1.5082,1.4984,1.4903,1.483,1.4773,1.4708,1.4635,1.4505,1.4326,1.4196,1.4042,1.405,1.403,1.403,1.4038,1.4002,1.3953,1.3928,1.3839,1.3709,1.3758,1.382,1.3782,1.3709,1.3669,1.3685,1.3717,1.379,1.3888,1.3928,1.3912,1.3815,1.3687,1.3614,0.2867,0.2919,0.3276,0.3233,0.3008,0.3276,0.4414,0.5705,0.5391,0.4445,0.3132,0.3044,0.315,0.3498,0.3501,0.3559,0.361,0.4828,0.5201,0.5809,0.6453,0.7273,0.831,0.8738,0.9356,0.9594,1.0221,1.1413,1.2714,1.4035,1.5085,1.5131,1.5775,1.58,1.6085,1.7026,1.7157,1.7365,1.6873,1.6015,1.613,1.6451,1.654,1.6652,1.6664,1.6731,1.6788,1.6836,1.6793,1.6764,1.6671,1.6674,1.6615,1.6623,1.6738,1.6877,1.6747,1.6722,1.673,1.6698,1.6649,1.6609,1.6552,1.6527,1.6341,1.5951,1.5723,1.5691,1.5634,1.5577,1.5545,1.5497,1.548,1.548,1.5439,1.5317,1.5156,1.5213,1.5317,1.5358,1.5343,1.5309,1.5204,1.5122,1.5065,1.5,1.4927,1.4846,1.4724,1.4578,1.4497,1.4375,1.4282,1.4273,1.4233,1.4184,1.4164,1.4131,1.4115,1.4002,1.388,1.3969,1.4075,1.4083,1.4042,1.3985,1.3969,1.4034,1.4123,1.418,1.4172,1.4115,1.4107,1.4029,1.3904,0.4316,0.4467,0.5551,0.5798,0.5596,0.6133,0.7063,0.7843,0.7941,0.7212,0.6023,0.574,0.5618,0.5667,0.5719,0.5504,0.5699,0.6783,0.7276,0.7892,0.8723,0.9645,1.0376,1.1126,1.2309,1.2641,1.3357,1.4531,1.5355,1.6331,1.7219,1.7336,1.7336,1.7429,1.7717,1.7756,1.7849,1.816,1.8062,1.757,1.6802,1.6925,1.7018,1.7152,1.7153,1.725,1.7299,1.7283,1.7258,1.7226,1.7136,1.7068,1.702,1.6942,1.6933,1.699,1.695,1.686,1.6901,1.6868,1.6787,1.6779,1.6714,1.6706,1.6665,1.6316,1.6121,1.6064,1.5894,1.578,1.5772,1.5772,1.5723,1.5666,1.5634,1.5561,1.5472,1.5447,1.552,1.5585,1.5553,1.5439,1.5333,1.5189,1.5171,1.5114,1.5065,1.5006,1.4862,1.4789,1.4724,1.4659,1.457,1.4427,1.4338,1.4314,1.4306,1.4318,1.4294,1.4245,1.4144,1.4237,1.4286,1.4278,1.4278,1.427,1.4278,1.4294,1.4302,1.4335,1.4318,1.4294,1.4294,1.4286,1.4196,0.6507,0.6742,0.8475,0.8995,0.8846,0.9642,1.0054,1.019,1.053,1.078,1.0755,1.0244,0.9865,0.9165,0.9288,0.9249,0.9325,0.9633,0.9715,0.9913,1.0375,1.193,1.3017,1.3598,1.4772,1.5809,1.6572,1.6814,1.7149,1.7803,1.7989,1.8176,1.8176,1.8176,1.8176,1.8176,1.8176,1.8176,1.8095,1.7949,1.7684,1.7502,1.7408,1.7311,1.7234,1.7226,1.7323,1.738,1.738,1.7364,1.7339,1.7323,1.7258,1.7136,1.708,1.7088,1.708,1.7047,1.708,1.7063,1.7055,1.7047,1.6906,1.6833,1.6836,1.6706,1.6519,1.6381,1.6169,1.6047,1.6047,1.5991,1.5943,1.5829,1.5804,1.5788,1.5715,1.5642,1.5699,1.578,1.5715,1.5601,1.5488,1.5343,1.5262,1.5236,1.5139,1.5088,1.4998,1.4949,1.4892,1.4835,1.4732,1.4619,1.4538,1.4529,1.4554,1.4452,1.4473,1.4435,1.4427,1.4473,1.4473,1.4427,1.4427,1.4473,1.4473,1.4473,1.4481,1.4476,1.4489,1.4473,1.4473,1.4464,1.4403,0.8684,0.8559,0.9882,0.9978,0.9464,1.0259,1.1437,1.2816,1.2839,1.3755,1.4976,1.4965,1.3368,0.9235,1.0032,1.0427,1.0993,1.1857,1.2663,1.2946,1.3651,1.4973,1.5683,1.5683,1.6907,1.7569,1.7896,1.7989,1.7896,1.8083,1.8176,1.8176,1.8176,1.8176,1.8176,1.8176,1.8176,1.8176,1.8135,1.8014,1.777,1.7591,1.751,1.738,1.7218,1.7258,1.7331,1.738,1.7388,1.7388,1.7413,1.7429,1.738,1.7291,1.7193,1.7161,1.7153,1.7153,1.7161,1.7161,1.7161,1.7153,1.7063,1.7055,1.699,1.6849,1.672,1.6679,1.6517,1.6381,1.6332,1.6243,1.6146,1.5983,1.5894,1.5918,1.5853,1.5829,1.5813,1.5894,1.5894,1.5821,1.5715,1.5601,1.5496,1.5398,1.5197,1.5139,1.5017,1.5031,1.5015,1.4958,1.4901,1.4933,1.4909,1.4806,1.4789,1.4716,1.4651,1.4651,1.4651,1.4614,1.4614,1.4614,1.4651,1.4651,1.4651,1.4651,1.4708,1.4732,1.4684,1.4659,1.4651,1.4643,1.4627]},{"header":{"parameterUnit":"m.s-1","parameterCategory":1,"la1":31.0,"la2":29.5877,"lo1":-88.7671,"lo2":-86.6584,"dy":0.0162,"dx":0.0185,"nx":115,"ny":88,"refTime":"2023-09-29T06:00:00:Z","depth":0,"parameterNumber":3,"parameterNumberName":"V-component_of_WINDS"},"data":[0.0,0.0,0.0,0.0,0.0,0.0,0.0,0.0,0.0,0.0,0.0,0.0,0.0,0.0,0.0,0.0,0.0,0.0,0.0,0.0,0.0,0.0,0.0,0.0,0.0,0.0,0.0,0.0,0.0,0.0,0.0,0.0,0.0,0.0,0.0,0.0,0.0,0.0,0.0,0.0,0.0,0.0,0.0,0.0,0.0,0.0,0.0,0.0,0.0,0.0,0.0,0.0,0.0,0.0,0.0,0.0,0.0,0.0,0.0,0.0,0.0,0.0,0.0,0.0,0.0,0.0,0.0,0.0,0.0,0.0,0.0,0.0,0.0,0.0,0.0,0.0,0.0,0.0,0.0,0.0,0.0,0.0,0.0,0.0,0.0,0.0,0.0,0.0,0.0,0.0,0.0,0.0,0.0,0.0,0.0,0.0,0.0,0.0,0.0,0.0,0.0,0.0,0.0,0.0,0.0,0.0,0.0,0.0,0.0,0.0,0.0,0.0,0.0,0.0,0.0,0.0,0.0,0.0,0.0,0.0,0.0,0.0,0.0,0.0,0.0,0.0,0.0,0.0,0.0,0.0,0.0,0.0,0.0,0.0,0.0,0.0,0.0,0.0,0.0,0.0,0.0,0.0,0.0,0.0,0.0,0.0,0.0,0.0,0.0,0.0,0.0,0.0,0.0,0.0,0.0,0.0,0.0,0.0,0.0,0.0,0.0,0.0,0.0,0.0,0.0,0.0,0.0,0.0,0.0,0.0,0.0,0.0,0.0,0.0,0.0,0.0,0.0,0.0,0.0,0.0,0.0,0.0,0.0,0.0,0.0,0.0,0.0,0.0,0.0,0.0,0.0,0.0,0.0,0.0,0.0,0.0,0.0,0.0,0.0,0.0,0.0,0.0,0.0,0.0,0.0,0.0,0.0,0.0,0.0,0.0,0.0,0.0,0.0,0.0,0.0,0.0,0.0,0.0,0.0,0.0,0.0,0.0,0.0,0.0,0.0,0.0,0.0,0.0,0.0,0.0,0.0,0.0,0.0,0.0,0.0,0.0,0.0,0.0,0.0,0.0,0.0,0.0,0.0,0.0,0.0,0.0,0.0,0.0,0.0,0.0,0.0,0.0,0.0,0.0,0.0,0.0,0.0,0.0,0.0,0.0,0.0,0.0,0.0,0.0,0.0,0.0,0.0,0.0,0.0,0.0,0.0,0.0,0.0,0.0,0.0,0.0,0.0,0.0,0.0,0.0,0.0,0.0,0.0,0.0,0.0,0.0,0.0,0.0,0.0,0.0,0.0,0.0,0.0,0.0,0.0,0.0,0.0,0.0,0.0,0.0,0.0,0.0,0.0,0.0,0.0,0.0,0.0,0.0,0.0,0.0,0.0,0.0,0.0,0.0,0.0,0.0,0.0,0.0,0.0,0.0,0.0,0.0,0.0,0.0,0.0,0.0,0.0,0.0,0.0,0.0,0.0,0.0,0.0,0.0,0.0,0.0,0.0,0.0,0.0,0.0,0.0,0.0,0.0,0.0,0.0,0.0,0.0,0.0,0.0,0.0,0.0,0.0,0.0,0.0,0.0,0.0,0.0,0.0,0.0,0.0,0.0,0.0,0.0,0.0,0.0,0.0,0.0,0.0,0.0,0.0,0.0,0.0,0.0,0.0,0.0,0.0,0.0,0.0,0.0,0.0,0.0,0.0,0.0,0.0,0.0,0.0,0.0,0.0,0.0,0.0,0.0,0.0,0.0,0.0,0.0,0.0,0.0,0.0,0.0,0.0,0.0,0.0,0.0,0.0,0.0,0.0,0.0,0.0,0.0,0.0,0.0,0.0,0.0,0.0,0.0,0.0,0.0,0.0,0.0,0.0,0.0,0.0,0.0,0.0,0.0,0.0,0.0,0.0,0.0,0.0,0.0,0.0,0.0,0.0,0.0,0.0,0.0,0.0,0.0,0.0,0.0,0.0,0.0,0.0,0.0,0.0,0.0,0.0,0.0,0.0,0.0,0.0,0.0,0.0,0.0,0.0,0.0,0.0,0.0,0.0,0.0,0.0,0.0,0.0,0.0,0.0,0.0,0.0,0.0,0.0,0.0,0.0,0.0,0.0,0.0,0.0,0.0,0.0,0.0,0.0,0.0,0.0,0.0,0.0,0.0,0.0,0.0,0.0,0.0,0.0,0.0,0.0,0.0,0.0,0.0,0.0,0.0,0.0,0.0,0.0,0.0,0.0,0.0,0.0,0.0,0.0,0.0,0.0,0.0,0.0,0.0,0.0,0.0,0.0,0.0,0.0,0.0,0.0,0.0,0.0,0.0,0.0,0.0,0.0,0.0,0.0,0.0,0.0,0.0,0.0,0.0,0.0,0.0,0.0,0.0,0.0,0.0,0.0,0.0,0.0,0.0,0.0,0.0,0.0,0.0,0.0,0.0,0.0,0.0,0.0,0.0,0.0,0.0,0.0,0.0,0.0,0.0,0.0,0.0,0.0,0.0,0.0,0.0,0.0,0.0,0.0,0.0,0.0,0.0,0.0,0.0,0.0,0.0,0.0,0.0,0.0,0.0,0.0,0.0,0.0,0.0,0.0,0.0,0.0,0.0,0.0,0.0,0.0,0.0,0.0,0.0,0.0,0.0,0.0,0.0,0.0,0.0,0.0,0.0,0.0,0.0,0.0,0.0,0.0,0.0,0.0,0.0,0.0,0.0,0.0,0.0,0.0,0.0,0.0,0.0,0.0,0.0,0.0,0.0,0.0,0.0,0.0,0.0,0.0,0.0,0.0,0.0,0.0,0.0,0.0,0.0,0.0,0.0,0.0,0.0,0.0,0.0,0.0,0.0,0.0,0.0,0.0,0.0,0.0,0.0,0.0,0.0,0.0,0.0,0.0,0.0,0.0,0.0,0.0,0.0,0.0,0.0,0.0,0.0,0.0,0.0,0.0,0.0,0.0,0.0,0.0,0.0,0.0,0.0,0.0,0.0,0.0,0.0,0.0,0.0,0.0,0.0,0.0,0.0,0.0,0.0,0.0,0.0,0.0,0.0,0.0,0.0,0.0,0.0,0.0,0.0,0.0,0.0,0.0,0.0,0.0,0.0,0.0,0.0,0.0,0.0,0.0,0.0,0.0,0.0,0.0,0.0,0.0,0.0,0.0,0.0,0.0,0.0,0.0,0.0,0.0,0.0,0.0,0.0,0.0,0.0,0.0,0.0,0.0,0.0,0.0,0.0,0.0,0.0,0.0,0.0,0.0,0.0,0.0,0.0,0.0,0.0,0.0,0.0,0.0,0.0,0.0,0.0,0.0,0.0,0.0,0.0,0.0,0.0,0.0,0.0,0.0,0.0,0.0,0.0,0.0,0.0,0.0,0.0,0.0,0.0,0.0,0.0,0.0,0.0,0.0,0.0,0.0,0.0,0.0,0.0,0.0,0.0,0.0,0.0,0.0,0.0,0.0,0.0,0.0,0.0,0.0,0.0,0.0,0.0,0.0,0.0,0.0,0.0,0.0,0.0,0.0,0.0,0.0,0.0,0.0,0.0,0.0,0.0,0.0,0.0,0.0,0.0,0.0,0.0,0.0,0.0,0.0,0.0,0.0,0.0,0.0,0.0,0.0,0.0,0.0,0.0,0.0,0.0,0.0,0.0,0.0,0.0,0.0,0.0,0.0,0.0,0.0,0.0,0.0,0.0,0.0,0.0,0.0,0.0,0.0,0.0,0.0,0.0,0.0,0.0,0.0,0.0,0.0,0.0,0.0,0.0,0.0,0.0,0.0,0.0,0.0,0.0,0.0,0.0,0.0,0.0,0.0,0.0,0.0,0.0,0.0,0.0,0.0,0.0,0.0,0.0,0.0,0.0,0.0,0.0,0.0,0.0,0.0,0.0,0.0,0.0,0.0,0.0,0.0,0.0,0.0,0.0,0.0,0.0,0.0,0.0,0.0,0.0,0.0,0.0,0.0,0.0,0.0,0.0,0.0,0.0,0.0,0.0,0.0,0.0,0.0,0.0,0.0,0.0,0.0,0.0,0.0,0.0,0.0,0.0,0.0,0.0,0.0,0.0,0.0,0.0,0.0,0.0,0.0,0.0,0.0,0.0,0.0,0.0,0.0,0.0,0.0,0.0,0.0,0.0,0.0,0.0,0.0,0.0,0.0,0.0,0.0,0.0,0.0,0.0,0.0,0.0,0.0,0.0,0.0,0.0,0.0,0.0,0.0,0.0,0.0,0.0,0.0,0.0,0.0,0.0,0.0,0.0,0.0,0.0,0.0,0.0,0.0,0.0,0.0,3.0692,0.0,0.0,0.0,0.0,0.0,0.0,0.0,0.0,0.0,0.0,0.0,0.0,0.0,0.0,0.0,0.0,0.0,0.0,0.0,0.0,0.0,0.0,0.0,0.0,0.0,0.0,0.0,0.0,0.0,0.0,0.0,0.0,0.0,0.0,0.0,0.0,0.0,0.0,0.0,0.0,0.0,0.0,0.0,0.0,0.0,0.0,0.0,0.0,0.0,0.0,0.0,0.0,0.0,0.0,0.0,0.0,0.0,0.0,0.0,0.0,0.0,0.0,0.0,0.0,0.0,0.0,0.0,0.0,0.0,0.0,0.0,0.0,0.0,0.0,0.0,0.0,0.0,0.0,0.0,0.0,0.0,0.0,0.0,0.0,0.0,0.0,0.0,0.0,0.0,0.0,0.0,0.0,0.0,0.0,0.0,0.0,0.0,0.0,0.0,0.0,0.0,0.0,0.0,0.0,0.0,0.0,0.0,0.0,0.0,0.0,3.0692,3.0692,3.0692,3.0692,3.0692,0.0,0.0,0.0,0.0,0.0,0.0,0.0,0.0,0.0,0.0,0.0,0.0,0.0,0.0,0.0,0.0,0.0,0.0,0.0,0.0,0.0,0.0,0.0,0.0,0.0,0.0,0.0,0.0,0.0,0.0,0.0,0.0,0.0,0.0,0.0,0.0,0.0,0.0,0.0,0.0,0.0,0.0,0.0,0.0,0.0,0.0,0.0,0.0,0.0,0.0,0.0,0.0,0.0,0.0,0.0,0.0,0.0,0.0,0.0,0.0,0.0,0.0,0.0,0.0,0.0,0.0,0.0,0.0,0.0,0.0,0.0,0.0,0.0,0.0,0.0,0.0,0.0,0.0,0.0,0.0,0.0,0.0,0.0,0.0,0.0,0.0,0.0,0.0,0.0,0.0,0.0,0.0,0.0,0.0,0.0,0.0,0.0,0.0,0.0,0.0,0.0,0.0,0.0,0.0,0.0,0.0,0.0,0.0,0.0,0.0,0.0,0.0,3.1587,3.1469,3.1275,0.0,0.0,0.0,0.0,0.0,0.0,0.0,0.0,0.0,0.0,0.0,0.0,0.0,0.0,0.0,0.0,0.0,0.0,0.0,0.0,0.0,0.0,0.0,0.0,0.0,0.0,0.0,0.0,0.0,0.0,0.0,0.0,0.0,0.0,0.0,0.0,0.0,0.0,0.0,0.0,0.0,0.0,0.0,0.0,0.0,0.0,0.0,0.0,0.0,0.0,0.0,0.0,0.0,0.0,0.0,0.0,0.0,0.0,0.0,0.0,0.0,0.0,0.0,0.0,0.0,0.0,0.0,0.0,0.0,0.0,0.0,0.0,0.0,0.0,0.0,0.0,0.0,0.0,0.0,0.0,0.0,0.0,0.0,0.0,0.0,0.0,0.0,0.0,0.0,0.0,0.0,0.0,0.0,0.0,0.0,0.0,0.0,0.0,0.0,0.0,0.0,0.0,0.0,0.0,0.0,0.0,0.0,0.0,0.0,0.0,3.182,3.4074,3.4111,0.0,3.306,0.0,0.0,0.0,0.0,0.0,0.0,0.0,0.0,0.0,0.0,0.0,0.0,0.0,0.0,0.0,0.0,0.0,0.0,0.0,0.0,0.0,0.0,0.0,0.0,0.0,0.0,0.0,0.0,0.0,0.0,0.0,0.0,0.0,0.0,0.0,0.0,0.0,0.0,0.0,0.0,0.0,0.0,0.0,0.0,0.0,0.0,0.0,0.0,0.0,0.0,0.0,0.0,0.0,0.0,0.0,0.0,0.0,0.0,0.0,0.0,0.0,0.0,0.0,0.0,0.0,0.0,0.0,0.0,0.0,0.0,0.0,0.0,0.0,0.0,0.0,0.0,0.0,0.0,0.0,0.0,0.0,0.0,0.0,0.0,0.0,0.0,0.0,0.0,0.0,0.0,0.0,0.0,0.0,0.0,0.0,0.0,0.0,0.0,0.0,0.0,0.0,0.0,0.0,0.0,0.0,0.0,0.0,0.0,0.0,0.0,3.221,3.3761,3.38,3.2905,0.0,0.0,0.0,0.0,0.0,0.0,0.0,0.0,0.0,0.0,0.0,0.0,0.0,0.0,0.0,0.0,0.0,0.0,0.0,0.0,0.0,0.0,0.0,0.0,0.0,0.0,0.0,0.0,0.0,0.0,0.0,0.0,0.0,0.0,0.0,0.0,0.0,0.0,0.0,0.0,0.0,0.0,0.0,0.0,0.0,0.0,0.0,0.0,0.0,0.0,0.0,0.0,0.0,0.0,0.0,0.0,0.0,0.0,0.0,0.0,0.0,0.0,0.0,0.0,0.0,0.0,0.0,0.0,0.0,0.0,0.0,0.0,0.0,0.0,0.0,0.0,0.0,0.0,0.0,0.0,0.0,0.0,0.0,0.0,0.0,0.0,0.0,0.0,0.0,0.0,0.0,0.0,0.0,0.0,0.0,0.0,0.0,0.0,0.0,0.0,0.0,0.0,0.0,0.0,0.0,0.0,0.0,0.0,0.0,0.0,3.2416,3.2974,3.4231,3.3643,3.2283,3.0183,0.0,0.0,0.0,0.0,0.0,0.0,0.0,0.0,0.0,0.0,0.0,0.0,0.0,0.0,0.0,0.0,0.0,0.0,0.0,0.0,0.0,0.0,0.0,0.0,0.0,0.0,0.0,0.0,0.0,0.0,0.0,0.0,0.0,0.0,0.0,0.0,0.0,0.0,0.0,0.0,0.0,0.0,0.0,0.0,0.0,0.0,0.0,0.0,0.0,0.0,0.0,0.0,0.0,0.0,0.0,0.0,0.0,0.0,0.0,0.0,0.0,0.0,0.0,0.0,0.0,0.0,0.0,0.0,0.0,0.0,0.0,0.0,0.0,0.0,0.0,0.0,0.0,0.0,0.0,0.0,0.0,0.0,0.0,0.0,0.0,0.0,0.0,0.0,0.0,0.0,0.0,0.0,0.0,0.0,0.0,0.0,0.0,0.0,0.0,0.0,0.0,0.0,0.0,0.0,0.0,0.0,0.0,0.0,3.6427,3.44,3.4411,3.6714,3.4575,3.2864,0.0,0.0,0.0,0.0,0.0,0.0,0.0,0.0,0.0,0.0,0.0,0.0,0.0,0.0,0.0,0.0,0.0,0.0,0.0,0.0,0.0,0.0,0.0,0.0,0.0,0.0,0.0,0.0,0.0,0.0,0.0,0.0,0.0,0.0,0.0,0.0,0.0,0.0,0.0,0.0,0.0,0.0,0.0,0.0,0.0,0.0,0.0,0.0,0.0,0.0,0.0,0.0,0.0,0.0,0.0,0.0,0.0,0.0,0.0,0.0,0.0,0.0,0.0,0.0,0.0,0.0,0.0,0.0,0.0,0.0,0.0,0.0,0.0,0.0,0.0,0.0,0.0,0.0,0.0,0.0,0.0,0.0,0.0,0.0,0.0,0.0,0.0,0.0,0.0,0.0,0.0,0.0,0.0,0.0,0.0,0.0,0.0,0.0,0.0,0.0,0.0,0.0,0.0,0.0,0.0,0.0,0.0,0.0,0.0,3.2993,3.3231,3.4275,3.6135,3.3833,3.231,0.0,0.0,0.0,0.0,0.0,0.0,0.0,0.0,0.0,0.0,0.0,0.0,0.0,0.0,0.0,0.0,0.0,0.0,0.0,0.0,0.0,0.0,0.0,0.0,0.0,0.0,0.0,0.0,0.0,0.0,0.0,0.0,0.0,0.0,0.0,0.0,0.0,0.0,0.0,0.0,0.0,0.0,0.0,0.0,0.0,0.0,0.0,0.0,0.0,0.0,0.0,0.0,0.0,0.0,0.0,0.0,0.0,0.0,0.0,0.0,0.0,0.0,0.0,0.0,0.0,0.0,0.0,0.0,0.0,0.0,0.0,0.0,0.0,0.0,0.0,0.0,0.0,0.0,0.0,0.0,0.0,0.0,0.0,0.0,0.0,0.0,0.0,0.0,0.0,0.0,0.0,0.0,0.0,0.0,0.0,0.0,0.0,0.0,0.0,0.0,0.0,0.0,0.0,0.0,0.0,0.0,0.0,0.0,0.0,3.16,0.0,3.4603,3.5339,3.3246,3.1608,0.0,0.0,0.0,0.0,0.0,0.0,0.0,0.0,0.0,0.0,0.0,0.0,0.0,0.0,0.0,0.0,0.0,0.0,0.0,0.0,0.0,0.0,0.0,0.0,0.0,0.0,0.0,0.0,0.0,0.0,0.0,0.0,0.0,0.0,0.0,0.0,0.0,0.0,0.0,0.0,0.0,0.0,0.0,0.0,0.0,0.0,0.0,0.0,0.0,0.0,0.0,0.0,0.0,0.0,0.0,0.0,0.0,0.0,0.0,0.0,0.0,0.0,0.0,0.0,0.0,0.0,0.0,0.0,0.0,0.0,0.0,0.0,0.0,0.0,0.0,0.0,0.0,0.0,0.0,0.0,0.0,0.0,0.0,0.0,0.0,0.0,0.0,0.0,0.0,0.0,0.0,0.0,0.0,0.0,0.0,0.0,0.0,0.0,0.0,0.0,0.0,0.0,0.0,0.0,0.0,0.0,0.0,0.0,3.0772,3.3152,3.4888,3.544,3.4641,3.2891,3.0829,0.0,0.0,0.0,0.0,0.0,0.0,0.0,0.0,0.0,0.0,0.0,0.0,0.0,0.0,0.0,0.0,0.0,0.0,0.0,0.0,0.0,0.0,0.0,0.0,0.0,0.0,0.0,0.0,0.0,0.0,0.0,0.0,0.0,0.0,0.0,0.0,0.0,0.0,0.0,0.0,0.0,0.0,0.0,0.0,0.0,0.0,0.0,0.0,0.0,0.0,0.0,0.0,0.0,0.0,0.0,0.0,0.0,0.0,0.0,0.0,0.0,0.0,0.0,0.0,0.0,0.0,0.0,0.0,0.0,0.0,0.0,0.0,0.0,0.0,0.0,0.0,0.0,0.0,0.0,0.0,0.0,0.0,0.0,0.0,0.0,0.0,0.0,0.0,0.0,0.0,0.0,0.0,0.0,0.0,0.0,0.0,0.0,0.0,0.0,0.0,0.0,0.0,0.0,0.0,0.0,0.0,0.0,0.0,0.0,3.1639,3.3865,3.549,3.62,3.2421,3.1014,0.0,0.0,0.0,0.0,0.0,0.0,0.0,0.0,0.0,0.0,0.0,0.0,0.0,0.0,0.0,0.0,0.0,0.0,0.0,0.0,0.0,0.0,0.0,0.0,0.0,0.0,0.0,0.0,0.0,0.0,0.0,0.0,0.0,0.0,0.0,0.0,0.0,0.0,0.0,0.0,0.0,0.0,0.0,0.0,0.0,0.0,0.0,0.0,0.0,0.0,0.0,0.0,0.0,0.0,0.0,0.0,0.0,0.0,0.0,0.0,0.0,0.0,0.0,0.0,0.0,0.0,0.0,0.0,0.0,0.0,0.0,0.0,0.0,0.0,0.0,0.0,0.0,0.0,0.0,0.0,0.0,0.0,0.0,0.0,0.0,0.0,0.0,0.0,0.0,0.0,0.0,0.0,0.0,0.0,0.0,0.0,0.0,0.0,0.0,0.0,0.0,0.0,0.0,0.0,0.0,0.0,0.0,0.0,0.0,3.3355,3.569,3.7265,3.7687,3.3903,3.1947,3.2119,0.0,0.0,0.0,0.0,0.0,0.0,0.0,0.0,0.0,0.0,0.0,0.0,0.0,0.0,0.0,0.0,0.0,0.0,0.0,0.0,0.0,0.0,0.0,0.0,0.0,0.0,0.0,0.0,0.0,0.0,0.0,0.0,0.0,0.0,0.0,0.0,0.0,0.0,0.0,0.0,0.0,0.0,0.0,0.0,0.0,0.0,0.0,0.0,0.0,0.0,0.0,0.0,0.0,0.0,0.0,0.0,0.0,0.0,0.0,0.0,0.0,0.0,0.0,0.0,0.0,0.0,0.0,0.0,0.0,0.0,0.0,0.0,0.0,0.0,0.0,0.0,0.0,0.0,0.0,0.0,0.0,0.0,0.0,0.0,0.0,0.0,0.0,0.0,0.0,0.0,0.0,0.0,0.0,0.0,0.0,0.0,0.0,0.0,0.0,0.0,0.0,0.0,0.0,0.0,0.0,0.0,0.0,0.0,3.7637,4.0197,4.0751,3.902,3.6939,3.3665,0.0,0.0,0.0,0.0,0.0,0.0,0.0,0.0,0.0,0.0,0.0,0.0,0.0,0.0,0.0,0.0,0.0,0.0,0.0,0.0,0.0,0.0,0.0,0.0,0.0,0.0,0.0,0.0,0.0,0.0,0.0,0.0,0.0,0.0,0.0,0.0,0.0,0.0,0.0,0.0,0.0,0.0,0.0,0.0,0.0,0.0,0.0,0.0,0.0,0.0,0.0,0.0,0.0,0.0,0.0,0.0,0.0,0.0,0.0,0.0,0.0,0.0,0.0,0.0,0.0,0.0,0.0,0.0,0.0,0.0,0.0,0.0,0.0,0.0,0.0,0.0,0.0,0.0,0.0,0.0,0.0,0.0,0.0,0.0,0.0,0.0,0.0,0.0,0.0,0.0,0.0,0.0,0.0,0.0,0.0,0.0,0.0,0.0,0.0,0.0,0.0,0.0,0.0,0.0,0.0,0.0,0.0,0.0,0.0,4.2728,4.6504,4.71,4.4197,3.8803,3.5879,0.0,0.0,0.0,0.0,0.0,0.0,0.0,0.0,0.0,0.0,0.0,0.0,0.0,0.0,0.0,0.0,0.0,0.0,0.0,0.0,0.0,0.0,0.0,0.0,0.0,0.0,0.0,0.0,0.0,0.0,0.0,0.0,0.0,0.0,0.0,0.0,0.0,0.0,0.0,0.0,0.0,0.0,0.0,0.0,0.0,0.0,0.0,0.0,0.0,0.0,0.0,0.0,0.0,0.0,0.0,0.0,0.0,0.0,0.0,0.0,0.0,0.0,0.0,0.0,0.0,0.0,0.0,0.0,0.0,0.0,0.0,0.0,0.0,0.0,0.0,0.0,0.0,0.0,0.0,0.0,0.0,0.0,0.0,0.0,0.0,0.0,0.0,0.0,0.0,0.0,0.0,0.0,0.0,0.0,0.0,0.0,0.0,0.0,0.0,0.0,0.0,0.0,0.0,0.0,0.0,0.0,0.0,0.0,4.1485,4.4563,5.0153,5.2051,4.9935,4.3232,3.8883,0.0,0.0,0.0,0.0,0.0,0.0,0.0,0.0,0.0,0.0,0.0,0.0,0.0,0.0,0.0,0.0,0.0,0.0,0.0,0.0,0.0,0.0,0.0,0.0,0.0,0.0,0.0,0.0,0.0,0.0,0.0,0.0,0.0,0.0,0.0,0.0,0.0,0.0,0.0,0.0,0.0,0.0,0.0,0.0,0.0,0.0,0.0,0.0,0.0,0.0,0.0,0.0,0.0,0.0,0.0,0.0,0.0,0.0,0.0,0.0,0.0,0.0,0.0,0.0,0.0,0.0,0.0,0.0,0.0,0.0,0.0,0.0,0.0,0.0,0.0,0.0,0.0,0.0,0.0,0.0,0.0,0.0,0.0,0.0,0.0,0.0,0.0,0.0,0.0,0.0,0.0,0.0,0.0,0.0,0.0,0.0,0.0,0.0,0.0,0.0,0.0,0.0,0.0,0.0,0.0,0.0,0.0,0.0,4.3321,4.4928,5.2022,5.5508,5.4786,4.8181,4.2048,0.0,0.0,0.0,0.0,0.0,0.0,0.0,0.0,0.0,0.0,0.0,0.0,0.0,0.0,0.0,0.0,0.0,0.0,0.0,0.0,0.0,0.0,0.0,0.0,0.0,0.0,0.0,0.0,0.0,0.0,0.0,0.0,0.0,0.0,0.0,0.0,0.0,0.0,0.0,0.0,0.0,0.0,0.0,0.0,0.0,0.0,0.0,0.0,0.0,0.0,0.0,0.0,0.0,0.0,0.0,0.0,0.0,0.0,0.0,0.0,0.0,0.0,0.0,0.0,0.0,0.0,0.0,0.0,0.0,0.0,0.0,0.0,0.0,0.0,0.0,0.0,0.0,0.0,0.0,0.0,0.0,0.0,0.0,0.0,0.0,0.0,0.0,0.0,0.0,0.0,0.0,0.0,0.0,0.0,0.0,0.0,0.0,0.0,0.0,0.0,0.0,0.0,0.0,0.0,0.0,0.0,0.0,0.0,4.4217,4.7914,5.3049,5.535,5.4589,4.6908,4.2192,0.0,0.0,0.0,0.0,0.0,0.0,0.0,0.0,0.0,0.0,0.0,0.0,0.0,0.0,0.0,0.0,0.0,0.0,0.0,0.0,0.0,0.0,0.0,0.0,0.0,0.0,0.0,0.0,0.0,0.0,0.0,0.0,0.0,0.0,0.0,0.0,0.0,0.0,0.0,0.0,0.0,0.0,0.0,0.0,0.0,0.0,0.0,0.0,3.5346,0.0,0.0,0.0,0.0,0.0,0.0,0.0,0.0,0.0,0.0,0.0,0.0,0.0,0.0,0.0,0.0,0.0,0.0,0.0,0.0,0.0,0.0,0.0,0.0,0.0,0.0,0.0,0.0,0.0,0.0,0.0,0.0,0.0,0.0,0.0,0.0,0.0,0.0,0.0,0.0,0.0,0.0,0.0,0.0,0.0,0.0,0.0,0.0,0.0,0.0,0.0,0.0,0.0,0.0,0.0,0.0,0.0,0.0,0.0,4.4542,4.9283,5.3282,5.5015,5.4172,4.8276,4.4148,0.0,0.0,0.0,0.0,0.0,0.0,0.0,0.0,0.0,0.0,0.0,0.0,0.0,0.0,0.0,0.0,0.0,0.0,0.0,0.0,0.0,0.0,0.0,0.0,0.0,0.0,0.0,0.0,0.0,0.0,0.0,0.0,0.0,0.0,0.0,0.0,0.0,0.0,0.0,0.0,0.0,0.0,0.0,0.0,0.0,0.0,0.0,0.0,0.0,0.0,0.0,0.0,0.0,0.0,0.0,0.0,0.0,0.0,0.0,0.0,0.0,0.0,0.0,0.0,0.0,0.0,0.0,0.0,0.0,0.0,0.0,0.0,0.0,0.0,0.0,0.0,0.0,0.0,0.0,0.0,0.0,0.0,0.0,0.0,0.0,0.0,0.0,0.0,0.0,0.0,0.0,0.0,0.0,0.0,0.0,0.0,0.0,0.0,0.0,0.0,0.0,0.0,0.0,0.0,0.0,0.0,0.0,4.0381,4.4671,5.0168,5.3326,5.4569,5.3875,5.0173,4.6204,4.2104,0.0,0.0,0.0,0.0,0.0,0.0,0.0,0.0,0.0,0.0,0.0,0.0,0.0,0.0,0.0,0.0,0.0,0.0,0.0,0.0,0.0,0.0,0.0,0.0,0.0,0.0,0.0,0.0,0.0,0.0,0.0,0.0,0.0,0.0,0.0,0.0,0.0,0.0,3.4164,3.3908,0.0,0.0,0.0,0.0,0.0,0.0,0.0,0.0,3.6518,0.0,0.0,0.0,0.0,0.0,0.0,0.0,0.0,0.0,0.0,0.0,0.0,0.0,0.0,0.0,0.0,0.0,0.0,0.0,0.0,0.0,0.0,0.0,0.0,0.0,0.0,0.0,0.0,0.0,0.0,0.0,0.0,0.0,0.0,0.0,0.0,0.0,0.0,0.0,0.0,0.0,0.0,0.0,0.0,0.0,0.0,0.0,0.0,0.0,0.0,0.0,0.0,0.0,0.0,0.0,0.0,4.0325,4.1302,4.514,5.2054,5.3926,5.4114,5.2605,4.963,4.5736,4.0921,0.0,0.0,0.0,0.0,0.0,0.0,0.0,0.0,0.0,0.0,0.0,0.0,0.0,0.0,0.0,0.0,0.0,0.0,0.0,0.0,0.0,0.0,0.0,0.0,0.0,0.0,0.0,0.0,0.0,0.0,0.0,0.0,0.0,0.0,0.0,0.0,0.0,0.0,0.0,3.6656,3.6477,0.0,0.0,0.0,0.0,0.0,0.0,0.0,0.0,3.7542,0.0,0.0,0.0,0.0,0.0,0.0,0.0,0.0,0.0,0.0,0.0,0.0,0.0,0.0,0.0,0.0,0.0,0.0,0.0,0.0,0.0,0.0,0.0,0.0,0.0,0.0,0.0,0.0,0.0,0.0,0.0,0.0,0.0,0.0,0.0,0.0,0.0,0.0,0.0,0.0,0.0,0.0,0.0,0.0,0.0,0.0,0.0,0.0,0.0,0.0,0.0,0.0,0.0,0.0,0.0,4.061,4.2998,4.7082,5.3078,5.404,5.368,5.2107,4.9219,4.5319,0.0,0.0,0.0,0.0,0.0,0.0,0.0,0.0,0.0,0.0,0.0,0.0,0.0,0.0,0.0,0.0,0.0,0.0,0.0,0.0,0.0,0.0,0.0,0.0,0.0,0.0,0.0,0.0,0.0,0.0,0.0,0.0,0.0,0.0,0.0,0.0,0.0,0.0,0.0,0.0,3.9241,3.9939,4.2307,0.0,0.0,0.0,0.0,0.0,0.0,4.0034,3.9286,0.0,0.0,0.0,0.0,0.0,0.0,0.0,0.0,0.0,0.0,0.0,0.0,0.0,0.0,0.0,0.0,0.0,0.0,0.0,0.0,0.0,0.0,0.0,0.0,0.0,0.0,0.0,0.0,0.0,0.0,0.0,0.0,0.0,0.0,0.0,0.0,0.0,0.0,0.0,0.0,0.0,0.0,0.0,0.0,0.0,0.0,0.0,0.0,0.0,0.0,0.0,0.0,0.0,0.0,0.0,4.0529,4.4308,4.8593,5.3274,5.3721,5.3098,5.1586,4.8012,4.4166,0.0,0.0,0.0,0.0,0.0,0.0,0.0,0.0,0.0,0.0,0.0,0.0,0.0,0.0,0.0,0.0,0.0,0.0,0.0,0.0,0.0,0.0,0.0,0.0,0.0,0.0,0.0,0.0,0.0,0.0,0.0,0.0,0.0,0.0,0.0,0.0,0.0,0.0,0.0,0.0,0.0,4.2997,4.4534,4.3359,0.0,0.0,0.0,0.0,4.0899,4.1978,0.0,0.0,0.0,0.0,0.0,0.0,0.0,0.0,0.0,0.0,0.0,0.0,0.0,0.0,0.0,0.0,0.0,0.0,0.0,0.0,0.0,0.0,0.0,0.0,0.0,0.0,0.0,0.0,0.0,0.0,0.0,0.0,0.0,0.0,0.0,0.0,0.0,0.0,0.0,0.0,0.0,0.0,0.0,0.0,0.0,0.0,0.0,0.0,0.0,0.0,0.0,0.0,0.0,0.0,0.0,0.0,4.0517,4.4116,4.7978,5.1989,5.2651,5.2109,5.0448,4.4768,4.1029,0.0,0.0,0.0,0.0,0.0,0.0,0.0,0.0,0.0,0.0,0.0,0.0,0.0,0.0,0.0,0.0,0.0,0.0,0.0,0.0,0.0,0.0,0.0,0.0,0.0,0.0,0.0,0.0,0.0,0.0,0.0,0.0,0.0,0.0,0.0,0.0,0.0,0.0,0.0,0.0,0.0,4.3837,4.544,4.4202,4.286,0.0,0.0,4.5329,4.5851,4.8594,0.0,0.0,0.0,0.0,0.0,0.0,0.0,0.0,0.0,0.0,0.0,0.0,0.0,0.0,0.0,0.0,0.0,0.0,0.0,0.0,0.0,0.0,0.0,0.0,0.0,0.0,0.0,0.0,0.0,0.0,0.0,0.0,0.0,0.0,0.0,0.0,0.0,0.0,0.0,0.0,0.0,0.0,0.0,0.0,0.0,0.0,0.0,0.0,0.0,0.0,0.0,0.0,0.0,0.0,0.0,3.6628,4.0155,4.4694,4.8613,5.1737,5.1711,5.1148,5.0198,4.3908,4.0248,0.0,0.0,0.0,0.0,0.0,0.0,0.0,0.0,0.0,0.0,0.0,0.0,0.0,0.0,0.0,0.0,0.0,0.0,0.0,0.0,0.0,0.0,0.0,0.0,0.0,0.0,0.0,0.0,0.0,0.0,0.0,0.0,0.0,0.0,0.0,0.0,0.0,0.0,0.0,0.0,0.0,0.0,4.7188,4.7097,0.0,0.0,0.0,4.6642,4.5063,0.0,0.0,0.0,0.0,0.0,0.0,0.0,0.0,0.0,0.0,0.0,0.0,0.0,0.0,0.0,0.0,0.0,0.0,0.0,0.0,0.0,0.0,0.0,0.0,0.0,0.0,0.0,0.0,0.0,0.0,0.0,0.0,0.0,0.0,0.0,0.0,0.0,0.0,0.0,0.0,0.0,0.0,0.0,0.0,0.0,0.0,0.0,0.0,0.0,0.0,0.0,0.0,0.0,0.0,0.0,0.0,0.0,3.9889,4.5307,4.9231,5.1551,5.1046,5.048,4.9871,4.4077,0.0,0.0,0.0,0.0,0.0,0.0,0.0,0.0,0.0,0.0,0.0,0.0,0.0,0.0,0.0,0.0,0.0,0.0,0.0,0.0,0.0,0.0,0.0,0.0,0.0,0.0,0.0,3.2214,0.0,0.0,0.0,0.0,0.0,0.0,0.0,0.0,0.0,0.0,0.0,0.0,0.0,0.0,4.7892,4.7791,4.8768,4.9368,0.0,0.0,4.7932,4.5849,4.953,5.0416,0.0,0.0,0.0,0.0,0.0,0.0,0.0,0.0,0.0,0.0,0.0,0.0,0.0,0.0,0.0,0.0,0.0,0.0,0.0,0.0,0.0,0.0,0.0,0.0,0.0,0.0,0.0,0.0,0.0,0.0,0.0,0.0,0.0,0.0,0.0,0.0,0.0,0.0,0.0,0.0,0.0,0.0,0.0,0.0,0.0,0.0,0.0,0.0,0.0,0.0,0.0,0.0,0.0,0.0,3.7558,4.0159,4.5745,4.9469,5.1151,5.0778,5.0204,4.95,4.4966,4.1475,0.0,0.0,0.0,0.0,0.0,0.0,0.0,0.0,0.0,0.0,0.0,0.0,0.0,0.0,0.0,0.0,0.0,0.0,0.0,0.0,0.0,0.0,0.0,0.0,0.0,0.0,0.0,0.0,0.0,0.0,0.0,0.0,0.0,0.0,0.0,0.0,0.0,0.0,0.0,0.0,0.0,4.6258,4.6178,4.7558,4.9146,0.0,5.0146,5.0062,5.1389,5.5022,5.5007,4.6839,0.0,0.0,0.0,0.0,0.0,0.0,0.0,0.0,0.0,0.0,0.0,0.0,0.0,0.0,0.0,0.0,0.0,0.0,0.0,0.0,0.0,0.0,0.0,0.0,0.0,0.0,0.0,0.0,0.0,0.0,0.0,0.0,0.0,0.0,0.0,0.0,0.0,0.0,0.0,0.0,0.0,0.0,0.0,0.0,0.0,0.0,0.0,0.0,0.0,0.0,0.0,0.0,0.0,3.7078,4.0521,4.4884,4.8467,5.1034,5.023,4.9687,4.9595,4.5046,4.1541,0.0,0.0,0.0,0.0,0.0,0.0,0.0,0.0,0.0,0.0,0.0,0.0,0.0,0.0,0.0,0.0,0.0,0.0,0.0,0.0,0.0,0.0,0.0,0.0,0.0,0.0,0.0,0.0,3.8224,3.8843,3.813,0.0,0.0,0.0,0.0,0.0,0.0,0.0,0.0,0.0,0.0,4.746,4.8971,5.0628,0.0,0.0,5.1938,5.1912,5.1532,5.2704,5.1734,4.6035,4.3605,0.0,0.0,0.0,0.0,0.0,0.0,0.0,0.0,0.0,0.0,0.0,0.0,0.0,0.0,0.0,0.0,0.0,0.0,0.0,0.0,0.0,0.0,0.0,0.0,0.0,0.0,0.0,0.0,0.0,0.0,0.0,0.0,0.0,0.0,0.0,0.0,0.0,0.0,0.0,0.0,0.0,0.0,0.0,0.0,0.0,0.0,0.0,0.0,0.0,0.0,0.0,0.0,3.7283,4.0765,4.4803,4.8402,5.1447,5.0195,4.9622,4.9811,4.6045,4.2805,0.0,0.0,0.0,0.0,0.0,0.0,0.0,0.0,0.0,0.0,0.0,0.0,0.0,0.0,0.0,0.0,0.0,0.0,0.0,0.0,0.0,0.0,0.0,0.0,0.0,0.0,0.0,0.0,3.9504,3.9848,3.8622,0.0,0.0,0.0,0.0,0.0,0.0,0.0,0.0,0.0,0.0,4.7995,4.9519,5.0913,5.1564,5.0875,5.1069,5.1009,5.0364,5.0367,4.9331,4.5983,0.0,0.0,0.0,0.0,0.0,0.0,0.0,0.0,0.0,0.0,0.0,0.0,0.0,0.0,0.0,0.0,0.0,0.0,0.0,0.0,0.0,0.0,0.0,0.0,0.0,0.0,0.0,0.0,0.0,0.0,3.18,0.0,0.0,0.0,0.0,0.0,0.0,0.0,0.0,0.0,0.0,0.0,0.0,0.0,0.0,0.0,0.0,0.0,0.0,0.0,0.0,0.0,0.0,3.8422,4.0835,4.5831,4.969,5.2149,5.0909,5.026,5.0336,4.8355,4.5787,4.2546,0.0,0.0,0.0,0.0,0.0,0.0,0.0,0.0,0.0,0.0,0.0,0.0,0.0,0.0,0.0,0.0,0.0,0.0,0.0,0.0,0.0,0.0,0.0,0.0,0.0,0.0,3.536,3.7085,3.8572,0.0,0.0,0.0,0.0,0.0,0.0,0.0,0.0,0.0,0.0,4.5334,4.7194,4.6461,4.7054,4.7758,4.7585,4.6872,4.682,4.8415,4.9233,4.9214,0.0,0.0,0.0,0.0,0.0,0.0,0.0,0.0,0.0,0.0,0.0,0.0,0.0,0.0,0.0,0.0,0.0,0.0,0.0,0.0,0.0,0.0,0.0,0.0,0.0,0.0,0.0,3.8008,3.741,0.0,0.0,0.0,0.0,0.0,0.0,0.0,0.0,0.0,0.0,0.0,4.1367,4.2382,0.0,0.0,0.0,0.0,0.0,0.0,0.0,0.0,0.0,0.0,0.0,0.0,3.9286,4.1766,4.6776,5.0392,5.2338,5.1509,5.0838,5.0519,4.8901,4.6063,4.1978,0.0,0.0,0.0,0.0,0.0,0.0,0.0,0.0,0.0,0.0,0.0,0.0,0.0,0.0,0.0,0.0,0.0,0.0,0.0,0.0,0.0,0.0,0.0,0.0,0.0,3.9259,0.0,0.0,0.0,0.0,0.0,0.0,0.0,0.0,0.0,0.0,0.0,4.1328,4.3041,4.4693,4.5861,4.6142,4.7872,4.932,0.0,0.0,0.0,0.0,0.0,0.0,0.0,0.0,0.0,0.0,0.0,0.0,0.0,0.0,4.5155,4.0889,4.0992,4.1511,4.0883,0.0,0.0,0.0,0.0,0.0,0.0,0.0,0.0,0.0,0.0,0.0,0.0,0.0,0.0,4.193,0.0,4.1369,0.0,0.0,0.0,0.0,0.0,0.0,0.0,0.0,4.3555,4.527,4.5784,4.6782,4.6766,0.0,4.4699,4.1198,0.0,0.0,0.0,0.0,0.0,0.0,0.0,0.0,4.0175,4.2394,4.7367,5.0683,5.1973,5.1361,5.0703,5.0117,4.8715,4.6486,4.3401,4.2046,4.0093,0.0,0.0,0.0,0.0,0.0,0.0,0.0,0.0,0.0,0.0,0.0,0.0,0.0,0.0,0.0,0.0,0.0,0.0,0.0,0.0,0.0,0.0,0.0,4.0096,0.0,0.0,0.0,0.0,0.0,0.0,0.0,0.0,0.0,3.9919,4.1598,4.3434,4.4836,4.598,4.6607,4.6238,0.0,0.0,0.0,0.0,0.0,0.0,0.0,4.5983,4.5453,4.5447,4.6008,4.7548,4.9033,4.993,4.9699,0.0,0.0,4.5034,4.4897,4.5492,4.487,4.4,4.3317,4.3244,4.2502,4.2108,0.0,0.0,0.0,0.0,0.0,0.0,0.0,0.0,4.6362,4.5393,0.0,4.4787,0.0,0.0,0.0,0.0,0.0,4.3322,0.0,0.0,5.032,5.1977,4.9968,5.0682,5.0618,4.9757,4.8186,4.602,4.3397,4.1487,0.0,0.0,0.0,0.0,0.0,0.0,4.1205,4.2796,4.7658,5.0537,5.1246,5.0609,4.9954,4.9268,4.8067,4.719,4.6671,4.5258,4.3868,4.2485,4.0035,0.0,0.0,0.0,0.0,0.0,0.0,0.0,0.0,0.0,0.0,0.0,0.0,0.0,0.0,0.0,0.0,0.0,0.0,0.0,0.0,3.9698,0.0,0.0,0.0,0.0,0.0,0.0,0.0,0.0,0.0,0.0,4.2482,4.4645,4.6562,4.7243,0.0,0.0,0.0,0.0,4.6687,4.4385,4.3913,4.4069,4.4184,4.6777,4.9357,5.0897,0.0,0.0,5.4061,5.234,5.1099,5.0241,5.2968,5.4137,5.1503,4.971,4.8625,4.8463,4.657,4.4727,4.4546,4.4331,4.3647,5.3015,0.0,0.0,0.0,0.0,4.7122,4.9447,5.3036,5.2574,5.152,5.0069,4.9877,0.0,0.0,0.0,0.0,0.0,0.0,4.728,4.9424,5.2003,5.3728,5.4766,5.5574,5.5544,5.4822,5.3193,5.1741,5.0473,4.8814,4.4391,3.7549,0.0,0.0,0.0,0.0,4.2898,4.4598,4.8328,5.0459,5.0656,5.1027,5.0883,5.0232,4.9468,4.8467,4.7257,4.7282,4.6288,4.4058,4.3031,0.0,0.0,0.0,0.0,0.0,0.0,0.0,0.0,0.0,0.0,0.0,0.0,0.0,0.0,0.0,0.0,0.0,0.0,0.0,4.0524,4.117,4.1112,0.0,0.0,0.0,0.0,0.0,0.0,0.0,0.0,0.0,4.5933,4.6128,4.609,0.0,0.0,4.5891,4.4592,4.619,4.786,4.8925,4.9625,0.0,5.1671,5.1663,5.1648,5.212,5.4971,5.6977,5.6508,5.7439,5.8009,5.7153,5.8331,5.8987,5.7684,5.5966,5.4559,5.3795,5.2534,5.1535,5.1373,5.0194,4.9087,6.0976,5.5688,5.2218,5.1392,5.2365,5.2677,5.4689,5.7788,5.7055,5.5848,5.4329,5.4319,5.1632,4.7083,4.6573,0.0,0.0,0.0,5.0472,5.3565,5.4301,5.5596,5.733,5.7856,5.7913,5.7508,5.6218,5.5191,5.4414,5.2503,4.8577,4.275,0.0,0.0,3.9752,4.2659,4.4911,4.6474,4.9476,5.0994,5.0862,5.1151,5.1109,5.0708,5.0573,4.9948,4.88,4.9313,4.8637,4.6554,4.5567,4.3891,0.0,0.0,0.0,0.0,0.0,0.0,0.0,0.0,0.0,0.0,0.0,4.0111,3.9096,0.0,0.0,0.0,4.1919,4.2194,4.2034,4.2197,0.0,0.0,0.0,0.0,0.0,0.0,0.0,4.3958,4.6195,4.7921,4.8468,4.839,4.8085,4.7607,4.7787,4.7695,4.6872,0.0,5.0475,5.1663,5.2551,5.3477,5.4515,5.466,5.4915,5.5927,5.7654,5.9001,5.9114,6.0363,6.1116,6.0771,6.098,6.1189,6.0727,5.944,5.818,5.7185,5.5684,5.4487,5.3998,5.2702,5.1599,6.748,6.6176,5.9005,5.6642,5.7704,5.8443,5.9469,6.0622,5.999,5.866,5.694,5.7881,5.5596,5.0992,4.9756,0.0,5.2401,5.2441,5.4065,5.6884,5.6884,5.7367,5.8179,5.8179,5.8282,5.8367,5.7591,5.6752,5.5849,5.3605,5.1682,4.9982,4.7736,4.5406,4.3225,4.513,4.6946,4.8445,5.0575,5.1694,5.1641,5.1191,5.0996,5.1077,5.1487,5.1461,5.0937,5.1165,5.0771,4.9506,4.7719,4.6014,4.4414,0.0,0.0,0.0,0.0,0.0,0.0,0.0,0.0,0.0,0.0,0.0,0.0,0.0,0.0,0.0,4.4732,0.0,4.4168,4.3249,0.0,0.0,0.0,4.3983,4.7177,4.6904,4.7099,4.8656,0.0,0.0,5.0316,5.1039,5.1637,5.1718,5.2218,5.2286,5.1495,5.2644,5.3634,5.2912,5.3635,5.4283,5.4942,5.6595,5.8545,6.0478,6.1401,6.1222,6.1105,6.114,6.126,6.1024,6.1183,6.114,6.1179,6.0254,5.9603,5.8622,5.6626,5.4696,5.3995,5.3069,5.2066,6.9426,6.8995,6.5942,6.31,6.0665,6.1409,6.1593,6.1349,6.1189,6.022,5.8747,5.8426,5.7,5.4751,5.4351,5.4764,5.5826,5.5848,5.6493,5.7666,5.7703,5.7882,5.8179,5.8179,5.829,5.8402,5.7672,5.6899,5.6166,5.4951,5.3245,5.113,5.0425,4.8842,4.6333,4.6222,4.7304,4.9473,4.9436,5.0283,5.2049,5.2067,5.2112,5.2325,5.2617,5.2502,5.1973,5.1618,5.1312,5.1037,4.8941,4.6958,4.5268,4.28,0.0,0.0,0.0,0.0,0.0,0.0,0.0,0.0,0.0,4.192,4.0622,0.0,4.3053,0.0,4.56,4.7286,4.8382,4.7089,0.0,0.0,4.6439,4.6746,4.8228,4.9372,4.9958,4.9702,5.1027,5.1973,5.2023,5.2744,5.3584,5.4218,5.2843,5.1657,5.1482,5.2878,5.415,5.4626,5.5827,5.7303,5.8412,5.9773,6.0664,6.1324,6.1405,6.1183,6.0526,6.0409,6.0215,5.959,5.9396,5.9428,5.9477,5.869,5.8117,5.7742,5.7134,5.6618,5.6364,5.5519,5.4388,7.044,7.0,6.8752,6.6512,6.3846,6.4273,6.398,6.3246,6.2904,6.1899,6.0399,5.939,5.8513,5.7725,5.7344,5.7312,5.7604,5.7648,5.784,5.8088,5.8145,5.8238,5.8305,5.8312,5.8422,5.8556,5.8121,5.7744,5.735,5.6496,5.5429,5.4128,5.3767,5.2512,5.0378,4.8767,4.8788,5.0454,5.0749,5.1602,5.3107,5.359,5.3406,5.2469,5.2772,5.2243,5.0699,5.0583,5.0423,5.0033,4.8462,4.7111,4.6165,4.4068,4.2688,0.0,0.0,0.0,0.0,0.0,0.0,0.0,0.0,0.0,0.0,0.0,4.4778,4.4601,4.7021,4.8538,4.8331,4.8089,4.8124,4.8511,4.8903,4.9764,5.1406,5.2431,5.2979,5.2927,5.3742,5.433,5.4368,5.4779,5.5268,5.5776,5.4596,5.3648,5.3788,5.4824,5.5854,5.6342,5.7463,5.862,5.9611,6.0066,6.0332,6.031,6.0589,6.0526,5.971,5.9865,5.9827,5.9007,5.8803,5.8824,5.8764,5.8071,5.7455,5.7377,5.7013,5.6592,5.6222,5.5696,5.4849,7.0734,7.005,6.9132,6.7971,6.6699,6.6712,6.6185,6.529,6.4535,6.3358,6.1773,6.0526,5.9996,5.9933,5.9165,5.8768,5.8574,5.8523,5.8411,5.8212,5.8349,5.8404,5.8426,5.8476,5.8582,5.8687,5.8687,5.865,5.8502,5.7843,5.7398,5.7185,5.6578,5.5509,5.3963,5.1766,5.0858,5.1278,5.2817,5.3768,5.417,5.484,5.4172,5.2175,5.2444,5.1511,4.9181,4.9257,4.9053,4.8288,4.7394,4.7,4.7149,4.5466,4.4547,0.0,4.4043,0.0,0.0,0.0,0.0,0.0,0.0,0.0,0.0,4.6896,4.7236,4.6877,4.897,4.9506,4.7519,4.8563,4.9731,5.0562,5.1347,5.2756,5.5026,5.5379,5.5654,5.6396,5.6509,5.6502,5.6412,5.6548,5.6562,5.6432,5.6303,5.6178,5.6439,5.6955,5.7395,5.7627,5.8308,5.8671,5.8836,5.8907,5.8991,5.9021,5.95,5.9632,5.8778,5.9205,5.9477,5.8767,5.8432,5.8446,5.859,5.7835,5.7249,5.712,5.654,5.5849,5.5281,5.5075,5.4555,7.022,6.9977,6.8666,6.791,6.7652,6.7733,6.6909,6.5394,6.4685,6.3539,6.2103,6.1274,6.0921,6.0857,6.0051,5.9616,5.9497,5.8815,5.8454,5.836,5.8382,5.8448,5.8486,5.8519,5.8582,5.8687,5.8687,5.8353,5.7722,5.7573,5.6881,5.5667,5.55,5.4988,5.4119,0.0,0.0,0.0,5.2554,5.3383,5.405,5.3263,5.2688,5.2316,5.2048,0.0,5.1349,5.0111,4.9345,4.9194,4.7763,0.0,0.0,0.0,0.0,0.0,0.0,0.0,0.0,0.0,0.0,0.0,4.7973,4.8212,4.7219,4.8518,4.9956,5.122,5.1832,5.251,5.3405,5.3107,5.3272,5.4092,5.4365,5.495,5.6083,5.6239,5.6317,5.6473,5.6503,5.649,5.6509,5.6483,5.652,5.6497,5.6473,5.6486,5.6418,5.665,5.6761,5.6788,5.7466,5.7897,5.7881,5.8414,5.8706,5.8875,5.8901,5.8739,5.804,5.804,5.8107,5.7804,5.7169,5.6989,5.7587,5.6977,5.6454,5.63,5.6171,5.5965,5.5806,5.5763,5.5483,7.0551,7.0087,6.9057,6.8373,0.0,6.8158,6.769,6.6814,6.5607,6.4273,6.288,6.212,6.177,6.1733,6.0927,6.03,5.9828,5.9382,5.8921,5.848,5.8534,5.8519,5.8492,5.8582,5.8635,5.8687,5.8687,5.8502,5.8093,5.8155,5.7796,5.7037,5.7106,5.6846,5.6261,5.6177,5.5413,5.3956,5.4782,5.5458,5.5958,5.5434,5.4575,5.3447,5.285,0.0,0.0,0.0,0.0,0.0,0.0,0.0,0.0,4.8385,0.0,4.9284,4.8995,4.8731,4.8702,4.9476,5.0057,5.0306,5.1636,5.1704,5.0094,5.1179,5.2287,5.3145,5.3619,5.4053,5.4482,5.4918,5.5198,5.5237,5.5586,5.6015,5.6405,5.6483,5.6483,5.6488,5.6477,5.6501,5.6475,5.6484,5.6473,5.6484,5.6491,5.6457,5.642,5.6418,5.6455,5.6434,5.6718,5.6962,5.7008,5.7262,5.7638,5.7615,5.8256,5.8207,5.7123,5.796,5.852,5.7679,5.7083,5.7052,5.7713,5.7297,5.6811,5.7177,5.7288,5.7288,5.725,5.6631,5.5887,7.1057,7.0273,6.9632,6.8884,6.8158,6.8284,6.826,6.8,0.0,0.0,0.0,6.2885,6.2588,6.255,6.177,6.1028,6.0359,6.0173,5.9711,5.8995,5.8943,5.8868,5.8746,5.872,5.8687,5.8687,5.8708,5.8719,5.8766,5.892,5.8992,5.9041,5.9262,5.9148,5.8812,5.8481,5.7895,5.7093,5.7266,5.7577,5.7935,5.778,5.661,5.4413,5.3716,5.2536,5.0763,5.0681,5.0707,5.0668,5.0014,5.0087,5.1015,5.0317,5.0279,5.1284,5.1361,5.1607,5.2136,5.2444,5.3108,5.4213,5.5292,5.5126,5.3289,5.3873,5.438,5.4378,5.5006,5.5202,5.4658,5.5829,5.6532,5.5948,5.6532,5.6961,5.6961,5.6961,5.7045,5.694,5.7045,5.6906,5.6757,5.6753,5.6655,5.6545,5.6468,5.639,5.639,5.6381,5.6417,5.6389,5.6592,5.6604,5.6553,5.6835,5.6702,5.7042,5.7991,5.8206,5.7384,5.837,5.9083,5.8219,5.7764,5.7976,5.8583,5.8127,5.783,5.8453,5.8608,5.8608,5.8492,5.7482,5.6592,7.1206,7.0407,6.9751,6.9024,6.8284,6.8408,6.8061,6.7355,6.6464,6.5139,6.359,6.3479,6.3405,6.3368,6.2588,6.2142,6.1993,6.1336,6.0953,6.0783,6.0051,5.9728,5.9669,5.9022,5.8687,5.8698,5.8828,5.8869,5.8909,5.9215,5.9399,5.9537,5.9772,6.0014,6.0252,6.0301,6.0304,6.0271,5.7899,5.7028,5.7781,5.6658,5.5451,5.4276,5.3691,5.2805,5.1749,5.1115,5.0707,5.0707,5.0592,5.1207,5.2702,5.2087,5.2274,5.378,5.3977,5.375,5.3267,5.4504,5.5816,5.697,5.7969,5.7529,5.5123,5.5625,5.6132,5.6132,5.6263,5.6582,5.7171,5.7453,5.7848,5.8356,5.8629,5.8746,5.8667,5.8629,5.8605,5.8512,5.871,5.828,5.7593,5.7488,5.7195,5.6661,5.6427,5.6381,5.6339,5.6381,5.6381,5.6433,5.6903,5.7256,5.7381,5.792,5.8137,5.8359,5.8514,5.8704,5.8234,5.8731,5.9214,5.9456,5.8867,5.885,5.952,5.8999,5.8647,5.8763,5.8802,5.8763,5.8802,5.8449,5.8217,7.1574,7.1181,7.0546,6.978,6.9063,6.8917,6.8357,6.7643,6.7482,6.6501,6.4988,6.4445,6.4259,6.4196,6.3483,6.2877,6.2413,6.207,6.1438,6.0545,6.0582,6.0199,5.9619,6.007,6.0188,5.9994,6.0527,6.0798,6.0787,6.0615,6.0505,6.057,6.047,6.047,6.0663,6.0823,6.0972,6.0998,5.9698,5.9188,5.9562,5.8551,5.7741,5.7164,5.6482,5.5855,5.5395,5.5011,5.4818,5.4824,5.4818,5.5203,5.5895,5.5581,5.5717,5.6493,5.6643,5.6557,5.6252,5.7021,5.7767,5.8295,5.8799,5.863,5.7448,5.7681,5.7915,5.7913,5.792,5.808,5.847,5.8515,5.8674,5.9064,5.9103,5.9103,5.9103,5.9103,5.9082,5.8984,5.8632,5.8236,5.7761,5.7296,5.696,5.6513,5.6381,5.6347,5.6256,5.6285,5.6479,5.6903,5.761,5.8086,5.8141,5.8432,5.8653,5.8688,5.9059,5.9086,5.8892,5.9228,5.9895,5.9878,5.9529,5.9675,6.0383,5.988,5.9571,5.9919,5.9957,5.9957,5.9957,5.9939,5.9563,7.2127,7.1917,7.133,7.0547,6.9682,6.9375,6.8916,6.8354,6.8688,6.8107,6.6902,6.5682,6.501,6.478,6.4266,6.3657,6.304,6.3038,6.2354,6.1131,6.1504,6.1152,6.035,6.1365,6.1651,6.1413,6.2089,6.2441,6.2367,6.1971,6.1833,6.184,6.1553,6.129,6.1098,6.1306,6.1307,6.1118,6.1113,6.1113,6.1075,6.046,6.0031,5.9683,5.9035,5.8603,5.8363,5.8308,5.8308,5.8319,5.8319,5.8319,5.8319,5.8329,5.8338,5.8384,5.8526,5.8606,5.869,5.9034,5.9239,5.9242,5.952,5.9698,5.9697,5.9657,5.9499,5.9183,5.9028,5.9108,5.9342,5.9384,5.9463,5.9659,5.9698,5.9777,5.9737,5.9698,5.9637,5.953,5.8862,5.8342,5.7896,5.7219,5.6641,5.6459,5.6311,5.6272,5.6231,5.6423,5.7036,5.7587,5.8157,5.8292,5.8443,5.8819,5.8969,5.8974,5.9641,5.9818,5.962,6.0367,6.0774,6.0349,6.0194,6.0388,6.0886,6.0615,6.046,6.0809,6.0886,6.0997,6.0944,6.0877,6.0611,7.2852,7.2148,7.1755,7.0831,6.9822,6.9749,6.9663,6.9606,6.9742,6.9731,6.9138,6.7016,6.5603,6.4951,6.4829,6.4655,6.4492,6.4574,6.4398,6.4053,6.3559,6.3198,6.2892,6.253,6.2256,6.2303,6.255,6.2727,6.2802,6.289,6.3083,6.3362,6.3423,6.2984,6.2327,6.2264,6.1926,6.1113,6.1113,6.1113,6.1075,6.1041,6.063,5.9804,5.9678,5.9228,5.8551,5.8317,5.8356,5.8397,5.8441,5.8402,5.8441,5.8412,5.8443,5.8613,5.8608,5.8697,5.8918,5.9749,6.0248,6.0337,6.0963,6.1355,6.1394,6.1394,6.0764,5.9619,5.9193,5.9549,6.0174,6.0297,6.0573,6.1159,6.1276,6.1472,6.1355,6.1473,6.1445,6.1366,6.0358,5.9742,5.8758,5.7865,5.7114,5.652,5.6392,5.6417,5.6579,5.7389,5.8139,5.826,5.8058,5.7705,5.7933,5.891,5.9636,5.9825,6.0436,6.0702,6.074,6.0779,6.1036,6.0886,6.0886,6.0963,6.1002,6.1002,6.0963,6.0997,6.1075,6.1065,6.1027,6.1002,6.0799,7.405,7.3312,7.3419,7.2566,7.1257,7.0544,7.022,7.0244,7.0508,7.0088,6.9156,6.8066,6.7155,6.6311,6.5438,6.4932,6.4837,6.4888,6.458,6.4043,6.411,6.3803,6.3199,6.3871,6.4007,6.383,6.4327,6.4667,6.4602,6.4374,6.4061,6.3714,6.3705,6.3521,6.3173,6.3168,6.298,6.2631,6.2631,6.2631,6.2515,6.1621,6.0901,6.0543,6.0485,6.03,5.9999,5.9896,5.9896,5.9956,5.9956,5.9956,5.9917,6.0002,6.0106,6.0154,6.0287,6.0417,6.0545,6.0956,6.1159,6.1162,6.1475,6.1709,6.1709,6.1709,6.1355,6.0803,6.0649,6.0806,6.1119,6.1161,6.1319,6.1631,6.1709,6.1709,6.1709,6.1709,6.168,6.1475,6.0382,5.9411,5.8767,5.7615,5.6942,5.6855,5.6928,5.7052,5.7536,5.82,5.8523,5.8557,5.8286,5.863,5.9249,6.0049,6.0542,6.0654,6.0886,6.1075,6.1113,6.1113,6.1113,6.1113,6.1113,6.1113,6.1075,6.1113,6.1113,6.1113,6.1113,6.1065,6.1017,6.1016,6.099,7.4775,7.426,7.4272,7.3381,7.1926,7.1075,7.0675,7.0703,7.103,7.0373,6.9099,6.8828,6.8257,6.7308,6.5999,6.529,6.5169,6.5238,6.4886,6.4265,6.4775,6.4535,6.3859,6.4911,6.5404,6.5223,6.5744,6.6063,6.6046,6.5624,6.4991,6.445,6.4372,6.4256,6.4063,6.4068,6.3952,6.3676,6.3676,6.3676,6.3521,6.2477,6.1679,6.1413,6.136,6.1262,6.1039,6.1023,6.0985,6.1039,6.1041,6.107,6.1094,6.1181,6.126,6.1334,6.1495,6.1651,6.171,6.1711,6.1712,6.1713,6.1713,6.1713,6.1713,6.1713,6.1713,6.1675,6.1714,6.1674,6.1711,6.1713,6.1713,6.1713,6.1713,6.1713,6.1714,6.1677,6.1636,6.1379,6.0301,5.917,5.87,5.7764,5.7203,5.7637,5.7752,5.7878,5.8497,5.8785,5.8995,5.8995,5.9111,5.9493,6.0306,6.0499,6.0731,6.0847,6.0843,6.1113,6.1113,6.1113,6.1113,6.1113,6.1113,6.1113,6.1113,6.1113,6.1113,6.1113,6.1109,6.1085,6.1026,6.1013,6.0955,7.4787,7.4638,7.3539,7.2469,7.1172,7.1175,7.1139,7.1127,7.1247,7.0744,6.9777,6.9115,6.8286,6.7382,6.6466,6.6019,6.5916,6.5889,6.5827,6.5679,6.5763,6.582,6.5863,6.5952,6.5973,6.592,6.6019,6.6128,6.6175,6.6147,6.6147,6.6031,6.5953,6.5644,6.503,6.4952,6.4527,6.3947,6.3869,6.3792,6.3753,6.3681,6.3207,6.2496,6.2263,6.1916,6.1288,6.1065,6.106,6.1109,6.1234,6.1279,6.1296,6.1352,6.1449,6.1566,6.1652,6.171,6.1716,6.1716,6.1717,6.1719,6.1719,6.1719,6.1719,6.1719,6.1719,6.1719,6.1719,6.1719,6.1717,6.1718,6.1719,6.1719,6.1719,6.1719,6.1719,6.1632,6.1557,6.137,6.0586,5.9591,5.8828,5.8625,5.8415,5.8518,5.8562,5.8651,5.8888,5.9425,5.9769,5.9957,6.0267,6.0499,5.9266,5.9846,6.019,6.0344,6.0886,6.1113,6.1113,6.1113,6.1113,6.1113,6.1113,6.1113,6.1113,6.1113,6.1113,6.1109,6.1046,6.1012,6.0995,6.096,6.0905,7.5923,7.5572,7.4102,7.3202,7.2755,7.1738,7.1264,7.1264,7.1286,7.0518,6.9357,6.8932,6.7998,6.6644,6.6857,6.6588,6.6102,6.6085,6.604,6.5988,6.5982,6.5955,6.6017,6.6057,6.6091,6.6096,6.6139,6.6165,6.618,6.6185,6.6185,6.6185,6.6185,6.6031,6.5804,6.576,6.5605,6.5339,6.5296,6.5301,6.5223,6.5301,6.4909,6.4097,6.3502,6.3037,6.2786,6.2221,6.1929,6.2063,6.1574,6.1334,6.1354,6.1484,6.1588,6.1663,6.1675,6.1718,6.1718,6.1718,6.1718,6.1719,6.1719,6.1719,6.1719,6.1719,6.1719,6.1719,6.1719,6.1719,6.1719,6.1719,6.1719,6.1719,6.1719,6.1678,6.1629,6.1613,6.153,6.1276,6.0579,5.9606,5.9012,5.8622,5.8828,5.9288,5.943,5.9653,6.0112,6.0499,6.0615,6.0692,6.0886,6.0925,6.046,6.0422,6.0692,6.0731,6.1002,6.1075,6.1113,6.1113,6.1113,6.1113,6.1113,6.1113,6.1113,6.1113,6.1113,6.1109,6.1046,6.1041,6.1013,6.0971,6.0916,7.6171,7.5324,7.4265,7.3478,7.2859,7.1783,7.1291,7.1291,7.1291,7.0363,6.9004,6.8772,6.7843,6.649,6.6763,6.6708,6.6239,6.6632,6.6863,6.6823,6.6553,6.6449,6.6389,6.6196,6.6107,6.6128,6.6165,6.6185,6.6185,6.6185,6.6185,6.6185,6.6185,6.6185,6.6185,6.6185,6.6185,6.6185,6.6185,6.6185,6.619,6.6254,6.6016,6.5488,6.4916,6.43,6.3783,6.3154,6.2769,6.2598,6.2106,6.1707,6.1559,6.1606,6.167,6.1678,6.1718,6.1719,6.1719,6.1719,6.1719,6.1719,6.1719,6.1719,6.1719,6.1719,6.1719,6.1719,6.1719,6.1719,6.1719,6.1719,6.168,6.1677,6.1676,6.1627,6.1546,6.1517,6.1388,6.1207,6.0752,6.0067,5.9529,5.9473,5.973,6.0228,6.0267,6.0576,6.0963,6.1113,6.1113,6.1113,6.1075,6.1075,6.0847,6.0847,6.0925,6.1002,6.1002,6.1075,6.1113,6.1113,6.1113,6.1113,6.1113,6.1113,6.1113,6.1113,6.1113,6.1113,6.1051,6.1002,6.1,6.1008,6.0949,7.5443,7.4214,7.3916,7.3026,7.1827,7.1446,7.1291,7.1291,7.1291,7.0402,6.9043,6.8888,6.8042,6.665,6.6722,6.6451,6.6822,6.8022,6.8401,6.8043,6.7425,6.7139,6.7101,6.6455,6.6134,6.6175,6.618,6.6185,6.6185,6.6185,6.6185,6.6185,6.6185,6.6185,6.6185,6.6185,6.619,6.621,6.622,6.6254,6.6215,6.6355,6.6431,6.6407,6.6396,6.563,6.4012,6.3846,6.3557,6.2969,6.2877,6.2504,6.1984,6.1835,6.1758,6.1797,6.1758,6.1719,6.1719,6.1719,6.1719,6.1719,6.1719,6.1719,6.1719,6.1719,6.1719,6.1719,6.1719,6.1719,6.1719,6.168,6.1676,6.1615,6.1612,6.1551,6.1426,6.1352,6.1252,6.1104,6.1002,6.1079,6.1041,6.0809,6.0809,6.0886,6.0959,6.0959,6.1075,6.1113,6.1113,6.1113,6.1113,6.1113,6.1113,6.1075,6.1075,6.1075,6.1075,6.1113,6.1113,6.1113,6.1113,6.1113,6.1113,6.1113,6.1113,6.1113,6.1113,6.107,6.1041,6.1017,6.0987,6.099,6.0987,7.607,7.5508,7.4386,7.3612,7.2916,7.1833,7.1291,7.1291,7.1291,7.0672,6.9744,6.9633,6.9009,6.8313,6.8545,6.8782,6.8893,6.9866,6.9231,6.7293,6.6752,6.6641,6.658,6.6314,6.6209,6.618,6.6185,6.6224,6.6224,6.6224,6.6185,6.6185,6.6224,6.6185,6.6273,6.619,6.6206,6.6338,6.6351,6.6637,6.7171,6.6789,6.6813,6.7247,6.6888,6.6296,6.579,6.519,6.4773,6.4501,6.4052,6.369,6.3437,6.289,6.2617,6.2539,6.1992,6.1719,6.1719,6.1719,6.1758,6.1719,6.1719,6.1719,6.1719,6.1719,6.1719,6.1719,6.1719,6.1679,6.1629,6.1624,6.1617,6.1606,6.1604,6.1517,6.1364,6.1244,6.1161,6.1098,6.1113,6.1113,6.1113,6.1113,6.1113,6.1113,6.1113,6.1113,6.1113,6.1113,6.1113,6.1113,6.1113,6.1113,6.1113,6.1113,6.1113,6.1113,6.1113,6.1113,6.1113,6.1113,6.1113,6.1113,6.1113,6.1113,6.1113,6.1113,6.1113,6.1113,6.106,6.1036,6.1012,6.0982,6.0985,7.621,7.5779,7.4463,7.369,7.3264,7.1872,7.1291,7.1291,7.1291,7.0794,7.0136,7.002,6.9551,6.9048,6.9357,6.9551,6.9633,7.0131,6.9241,6.7462,6.7501,6.7462,6.7152,6.6804,6.692,6.7114,6.7152,6.7152,6.7147,6.7191,6.7191,6.7191,6.7152,6.7203,6.7188,6.7202,6.7252,6.7355,6.7418,6.7693,6.8073,6.7844,6.7861,6.8178,6.7617,6.726,6.7169,6.6364,6.5737,6.541,6.4712,6.4291,6.4258,6.375,6.3476,6.3398,6.3047,6.2695,6.2656,6.2773,6.2461,6.2265,6.2187,6.2031,6.1797,6.1719,6.1717,6.1716,6.1715,6.1671,6.1606,6.1592,6.154,6.1463,6.1489,6.1417,6.1256,6.1156,6.1089,6.1113,6.1113,6.1113,6.1113,6.1113,6.1113,6.1113,6.1113,6.1113,6.1113,6.1113,6.1113,6.1113,6.1113,6.1113,6.1113,6.1113,6.1113,6.1113,6.1113,6.1113,6.1113,6.1113,6.1113,6.1113,6.1113,6.1113,6.1113,6.1113,6.1113,6.1113,6.1113,6.106,6.1041,6.1036,6.1051,7.5933,7.5115,7.427,7.3458,7.2723,7.1717,7.1291,7.1291,7.1291,7.0871,7.0252,7.0214,6.9788,6.9125,6.9319,6.9357,6.9043,6.9313,6.9396,6.9203,6.9473,6.9396,6.8506,6.7849,6.7921,6.8501,6.8578,6.8656,6.8501,6.8501,6.8782,6.8586,6.8563,6.8796,6.8633,6.8859,6.8783,6.8858,6.8951,6.8997,6.9174,6.9156,6.9262,6.9303,6.8664,6.8242,6.8125,6.75,6.664,6.5742,6.5039,6.4687,6.4531,6.4414,6.4375,6.4336,6.4336,6.414,6.4219,6.4023,6.3789,6.3163,6.2927,6.2691,6.2023,6.1941,6.186,6.1737,6.1813,6.1763,6.1613,6.1512,6.1417,6.1298,6.1298,6.124,6.1121,6.1084,6.1118,6.1113,6.1113,6.1113,6.1113,6.1113,6.1113,6.1113,6.1113,6.1113,6.1113,6.1113,6.1113,6.1113,6.1113,6.1113,6.1113,6.1113,6.1113,6.1113,6.1113,6.1113,6.1113,6.1113,6.1113,6.1113,6.1113,6.1113,6.1113,6.1113,6.1113,6.1113,6.1113,6.1113,6.1109,6.1065,6.1056,7.6287,7.5895,7.4502,7.3767,7.3342,7.1949,7.1291,7.1291,7.1291,7.1137,7.0949,7.0943,7.0794,7.0634,7.0595,7.0634,7.0518,7.0556,7.0634,7.0672,7.0827,7.0092,6.9043,6.8617,6.8578,6.8849,6.8981,6.8772,6.8772,6.8958,6.8912,6.8847,6.905,6.9018,6.9029,6.9128,6.9112,6.9224,6.9275,6.9647,7.0117,6.9687,6.9724,7.0193,6.9531,6.914,6.914,6.8906,6.8008,6.668,6.6367,6.6211,6.6055,6.5586,6.5273,6.5195,6.4687,6.4336,6.4375,6.4375,6.4219,6.3943,6.3471,6.2919,6.2716,6.2623,6.2262,6.1982,6.2089,6.2204,6.158,6.139,6.1305,6.1181,6.1178,6.1152,6.1098,6.1113,6.1113,6.1113,6.1113,6.1113,6.1113,6.1113,6.1113,6.1113,6.1113,6.1113,6.1113,6.1113,6.1113,6.1113,6.1113,6.1113,6.1113,6.1113,6.1113,6.1113,6.1113,6.1113,6.1113,6.1113,6.1113,6.1113,6.1113,6.1113,6.1113,6.1113,6.1113,6.1113,6.1113,6.1113,6.1113,6.107,6.107,7.6403,7.6249,7.4579,7.3877,7.369,7.2065,7.1291,7.1291,7.1291,7.1291,7.1291,7.1291,7.1291,7.1291,7.1291,7.1291,7.1291,7.1291,7.1253,7.1313,7.1319,7.0767,6.9964,6.9551,6.9473,6.9876,6.9919,6.9963,6.9987,6.9998,7.0064,7.0131,7.007,7.0105,7.0323,7.0212,7.0289,7.0449,7.0456,7.0737,7.1133,7.0781,7.0781,7.1015,7.039,6.9883,6.957,6.9414,6.875,6.7734,6.7422,6.7305,6.6914,6.6445,6.6133,6.6133,6.5664,6.539,6.539,6.5389,6.5192,6.4874,6.4281,6.3878,6.3586,6.3439,6.3101,6.284,6.309,6.2713,6.2001,6.1514,6.124,6.1125,6.1113,6.1113,6.1113,6.1113,6.1113,6.1113,6.1113,6.1113,6.1113,6.1113,6.1113,6.1113,6.1113,6.1113,6.1113,6.1113,6.1109,6.1104,6.1104,6.1104,6.1104,6.1104,6.1099,6.1099,6.1094,6.1099,6.1104,6.1104,6.1113,6.1113,6.1113,6.1113,6.1113,6.1113,6.1113,6.1113,6.1113,6.1113,6.1113,6.1113,6.1113,7.6403,7.6287,7.4701,7.4044,7.3817,7.2319,7.175,7.1628,7.1595,7.1556,7.1517,7.139,7.1329,7.1313,7.1334,7.1313,7.1308,7.1332,7.1363,7.1387,7.143,7.1292,7.1102,7.052,7.0588,7.1063,7.1413,7.1381,7.126,7.1443,7.1619,7.144,7.1485,7.1657,7.1517,7.1645,7.1861,7.1758,7.168,7.168,7.1836,7.1719,7.1719,7.168,7.125,7.0586,7.0117,6.9803,6.9373,6.8515,6.832,6.7773,6.7109,6.6992,6.6836,6.6836,6.6678,6.6676,6.6793,6.6634,6.651,6.5799,6.5512,6.5175,6.4472,6.4225,6.4054,6.3696,6.3955,6.3517,6.256,6.1815,6.1323,6.1143,6.106,6.1094,6.1104,6.1109,6.1113,6.1113,6.1113,6.1113,6.1113,6.1113,6.1113,6.1113,6.1109,6.1056,6.1085,6.107,6.107,6.107,6.1075,6.109,6.1085,6.1085,6.108,6.1075,6.106,6.106,6.107,6.108,6.1104,6.1113,6.1113,6.1113,6.1113,6.1113,6.1113,6.1113,6.1113,6.1113,6.1113,6.1113,6.1113,7.6403,7.6332,7.5332,7.4923,7.4773,7.3853,7.3369,7.3297,7.271,7.2488,7.2328,7.178,7.1514,7.1475,7.1485,7.144,7.1388,7.1486,7.157,7.1614,7.1647,7.1653,7.1579,7.1303,7.142,7.1618,7.1641,7.1662,7.168,7.1708,7.1748,7.1767,7.1776,7.184,7.1948,7.1953,7.1953,7.1992,7.1992,7.1992,7.1992,7.1992,7.1992,7.1953,7.1757,7.1639,7.1521,7.144,7.1007,7.007,6.8899,6.8119,6.7807,6.7338,6.7064,6.6986,6.6946,6.6945,6.6905,6.6903,6.6819,6.6567,6.5956,6.5406,6.5177,6.5019,6.4637,6.4272,6.4427,6.4188,6.293,6.2293,6.1858,6.1403,6.118,6.1116,6.1083,6.1104,6.1099,6.1109,6.1109,6.1113,6.1113,6.1104,6.1104,6.1109,6.109,6.1027,6.1046,6.1026,6.1026,6.1064,6.1064,6.1031,6.1031,6.1031,6.1031,6.1031,6.1064,6.1059,6.1069,6.1051,6.107,6.1094,6.1113,6.1109,6.1085,6.1099,6.109,6.1104,6.1104,6.1094,6.1085,6.1099,6.1094,7.6527,7.6411,7.5591,7.5253,7.5103,7.4402,7.4038,7.3993,7.3618,7.3434,7.326,7.2528,7.2139,7.2097,7.1743,7.1534,7.1534,7.1589,7.1655,7.1697,7.1716,7.1733,7.1747,7.1801,7.1805,7.175,7.1733,7.1745,7.1753,7.1815,7.1884,7.19,7.1902,7.1907,7.1992,7.1992,7.1992,7.1992,7.1992,7.1992,7.1992,7.1992,7.1992,7.1991,7.1989,7.1986,7.1947,7.1512,7.139,7.092,6.9706,6.8732,6.8698,6.8308,6.7918,6.7528,6.7485,6.7484,6.7444,6.7128,6.704,6.7371,6.6597,6.6149,6.5911,6.5807,6.556,6.5226,6.5251,6.5049,6.3797,6.31,6.2663,6.2274,6.1785,6.1725,6.1967,6.1551,6.1041,6.1041,6.1036,6.1036,6.1041,6.1056,6.1046,6.1069,6.1064,6.1,6.1,6.1023,6.1013,6.1013,6.1003,6.1003,6.1003,6.1008,6.1013,6.1013,6.1018,6.1018,6.1018,6.1044,6.1031,6.1046,6.1056,6.1041,6.1021,6.1041,6.1051,6.1031,6.1064,6.1079,6.1079,6.1069,6.1026,7.6628,7.6594,7.5826,7.552,7.5404,7.4809,7.4592,7.4571,7.4382,7.4285,7.4043,7.3314,7.2708,7.2526,7.1932,7.1667,7.1677,7.17,7.1712,7.1785,7.1845,7.1852,7.1898,7.2104,7.222,7.1964,7.188,7.1858,7.1865,7.1952,7.1953,7.1992,7.1992,7.1992,7.1992,7.1992,7.1992,7.1992,7.1992,7.1992,7.1992,7.1992,7.1992,7.1988,7.1983,7.1979,7.186,7.1503,7.1262,7.1847,7.0588,6.993,6.9745,6.9398,6.9126,6.8344,6.8298,6.8334,6.8215,6.7778,6.761,6.8094,6.7389,6.6777,6.6565,6.6338,6.62,6.6162,6.6017,6.5691,6.4937,6.4215,6.3687,6.3307,6.2706,6.2778,6.3009,6.2161,6.1626,6.1234,6.1134,6.1023,6.1018,6.1018,6.1003,6.0987,6.0981,6.0981,6.0981,6.0965,6.0955,6.0944,6.0927,6.0927,6.0927,6.0933,6.0938,6.0949,6.0955,6.0955,6.0955,6.096,6.0938,6.1008,6.1013,6.1003,6.1008,6.1023,6.1023,6.0992,6.1003,6.1029,6.1018,6.0992,6.0997,7.6757,7.676,7.6625,7.6554,7.6517,7.6421,7.6314,7.6292,7.567,7.5015,7.4364,7.3505,7.2808,7.2259,7.1903,7.1809,7.1827,7.1823,7.1829,7.1914,7.1952,7.1952,7.203,7.2612,7.2923,7.2846,7.2498,7.2187,7.2146,7.1985,7.2298,7.2103,7.2145,7.2186,7.2186,7.199,7.2146,7.2146,7.2066,7.1986,7.1986,7.1985,7.1984,7.1982,7.1975,7.2009,7.1967,7.1882,7.1874,7.1952,7.1715,7.156,7.1214,7.028,6.9538,6.9264,6.9184,6.9183,6.9103,6.898,6.8569,6.8214,6.7839,6.7282,6.6773,6.6472,6.6617,6.6438,6.626,6.582,6.4949,6.4723,6.4187,6.369,6.3353,6.3285,6.3356,6.3022,6.2589,6.2221,6.1665,6.0976,6.096,6.0955,6.0949,6.0938,6.0933,6.0927,6.0922,6.09,6.0866,6.0816,6.0804,6.0804,6.0804,6.081,6.0816,6.0866,6.0871,6.0877,6.0871,6.0854,6.0871,6.0927,6.096,6.0971,6.0976,6.0971,6.0971,6.0955,6.0971,6.0987,6.0965,6.0949,6.0965,7.6842,7.6842,7.6851,7.6855,7.6855,7.6902,7.6923,7.6901,7.6552,7.6168,7.5625,7.4883,7.4297,7.3711,7.2851,7.238,7.2026,7.1949,7.1946,7.2009,7.1977,7.198,7.2175,7.2952,7.3222,7.3339,7.3266,7.3307,7.3342,7.3386,7.3268,7.3349,7.3352,7.3353,7.3197,7.2923,7.2728,7.261,7.2295,7.2019,7.2018,7.2016,7.2013,7.201,7.2004,7.1997,7.1918,7.1484,7.1558,7.1792,7.1558,7.187,7.2026,7.1595,7.0541,7.019,7.0072,7.0073,6.991,6.9658,6.9174,6.9245,6.8754,6.819,6.7758,6.7619,6.7397,6.7305,6.6891,6.6565,6.6154,6.5629,6.5181,6.4754,6.4294,6.4205,6.4282,6.382,6.3472,6.3178,6.2402,6.167,6.0894,6.0894,6.09,6.0894,6.0844,6.0839,6.0833,6.081,6.0781,6.0781,6.0787,6.0787,6.0787,6.0787,6.0781,6.0781,6.0781,6.0781,6.0781,6.0825,6.0843,6.0877,6.0905,6.0922,6.0905,6.0888,6.09,6.0911,6.0905,6.0905,6.0905,6.0905,6.0916,7.7366,7.721,7.721,7.7093,7.6975,7.6936,7.6988,7.703,7.699,7.6865,7.6756,7.6051,7.5586,7.5191,7.4138,7.3082,7.234,7.2432,7.2628,7.2668,7.2673,7.256,7.2756,7.3303,7.3962,7.4228,7.4776,7.4892,7.4385,7.4352,7.4513,7.4357,7.4515,7.4595,7.4321,7.3814,7.3579,7.315,7.2913,7.2483,7.2286,7.2242,7.2159,7.2002,7.1994,7.1989,7.195,7.1792,7.1831,7.2104,7.2065,7.2182,7.3156,7.2833,7.2046,7.1304,7.1029,7.0912,7.07,7.0242,6.9963,6.9985,6.9451,6.9004,6.8628,6.837,6.8452,6.8438,6.8034,6.7349,6.6947,6.6556,6.6108,6.5692,6.525,6.5013,6.5166,6.4897,6.4359,6.3838,6.3095,6.2376,6.1657,6.1233,6.1328,6.086,6.081,6.081,6.0804,6.0798,6.0781,6.0781,6.0781,6.0781,6.0781,6.0781,6.0781,6.0781,6.0781,6.0781,6.0781,6.0781,6.0837,6.0848,6.0843,6.0821,6.0793,6.0781,6.081,6.0816,6.0793,6.0793,6.0816,6.0821,6.0821,7.8917,7.8215,7.8216,7.7785,7.7163,7.7087,7.7082,7.7077,7.7077,7.6641,7.6166,7.5893,7.5463,7.4837,7.4603,7.39,7.3549,7.3669,7.3906,7.3868,7.3908,7.3909,7.4219,7.5116,7.5159,7.5312,7.6169,7.5816,7.5233,7.4884,7.4649,7.4729,7.4855,7.4663,7.4936,7.4585,7.4039,7.3607,7.3873,7.379,7.3242,7.3084,7.2694,7.2263,7.2029,7.1987,7.2065,7.2221,7.2728,7.2923,7.3624,7.4016,7.4321,7.4179,7.3558,7.281,7.2111,7.1562,7.1466,7.1092,7.0665,7.0408,6.9939,6.9433,6.9126,6.8897,6.8838,6.8513,6.8391,6.8103,6.759,6.7077,6.6603,6.6173,6.5782,6.5667,6.5743,6.559,6.5089,6.482,6.4172,6.3288,6.2447,6.2062,6.171,6.121,6.0781,6.0781,6.0781,6.0781,6.0781,6.0781,6.0781,6.0781,6.0781,6.0781,6.0781,6.0781,6.0781,6.0781,6.0781,6.0781,6.0781,6.0787,6.0781,6.0781,6.0781,6.0781,6.0781,6.0781,6.0781,6.0781,6.0787,6.0781,6.0781,8.0381,7.9092,7.8586,7.8196,7.7805,7.7335,7.7101,7.7101,7.7101,7.6906,7.6594,7.6556,7.6047,7.5346,7.5229,7.4759,7.4212,7.4447,7.4525,7.4603,7.4603,7.4564,7.4682,7.5346,7.5814,7.6127,7.6633,7.7181,7.6477,7.6125,7.5969,7.5969,7.5975,7.6095,7.5863,7.551,7.5159,7.4806,7.4607,7.433,7.3978,7.3547,7.3157,7.2728,7.23,7.2104,7.2182,7.226,7.2573,7.2683,7.3284,7.3911,7.4197,7.4272,7.4063,7.4335,7.3385,7.2495,7.1703,7.1495,7.1121,7.0875,7.0579,7.0354,6.9951,6.9855,6.983,6.9906,6.9438,6.8963,6.8334,6.7635,6.7096,6.6635,6.6353,6.6045,6.6006,6.5897,6.5667,6.5474,6.5199,6.4301,6.3372,6.2686,6.2192,6.1672,6.1133,6.0864,6.0819,6.0781,6.0781,6.0781,6.0781,6.0781,6.0781,6.0781,6.0781,6.0781,6.0781,6.0781,6.0781,6.0781,6.0763,6.0769,6.0781,6.0781,6.0781,6.0781,6.0781,6.0781,6.0781,6.0781,6.0781,6.0781,6.0781,8.1552,8.0263,7.9172,7.8625,7.8313,7.7492,7.7257,7.7414,7.7179,7.7218,7.7335,7.7179,7.6594,7.6049,7.5932,7.5658,7.4877,7.5266,7.5462,7.5462,7.5462,7.5618,7.5852,7.6205,7.6322,7.64,7.6828,7.7414,7.7766,7.757,7.7101,7.7648,7.7064,7.7181,7.7142,7.6595,7.605,7.6011,7.5268,7.4917,7.472,7.429,7.3939,7.351,7.3041,7.2612,7.2649,7.2977,7.305,7.2844,7.3464,7.4223,7.4551,7.4502,7.4557,7.4742,7.4182,7.3369,7.2429,7.1872,7.1489,7.1335,7.1068,7.0792,7.0803,7.0898,7.086,7.0713,7.0328,6.9943,6.9475,6.8436,6.7936,6.7468,6.6994,6.657,6.6256,6.6307,6.6057,6.5615,6.5416,6.5352,6.443,6.3412,6.2706,6.2121,6.1595,6.1089,6.089,6.0846,6.0775,6.0769,6.0775,6.0775,6.0775,6.0775,6.0775,6.0763,6.0763,6.0746,6.0728,6.0716,6.0703,6.0722,6.0752,6.0752,6.074,6.0763,6.0781,6.0781,6.0781,6.0781,6.0781,6.0781,6.0775,8.2253,8.198,8.0301,7.9209,7.843,7.7453,7.7571,7.8196,7.7453,7.7532,7.7923,7.7453,7.6633,7.6205,7.6517,7.6478,7.5853,7.7415,7.7726,7.7884,7.8118,7.7805,7.7571,7.7298,7.7296,7.7688,7.7571,7.7766,7.8118,7.7921,7.8311,7.9131,7.7999,7.7844,7.7727,7.7296,7.714,7.6984,7.6361,7.5893,7.5814,7.5502,7.5112,7.4523,7.4328,7.4328,7.4325,7.4528,7.4361,7.3734,7.4194,7.442,7.4503,7.4682,7.4845,7.4821,7.4912,7.4204,7.3549,7.2662,7.2204,7.1894,7.1604,7.1283,7.136,7.1091,7.0975,7.1077,7.0916,7.0455,7.0038,6.9468,6.8781,6.8345,6.7818,6.7382,6.7093,6.6943,6.6608,6.589,6.5635,6.5701,6.5401,6.4378,6.3566,6.2944,6.1964,6.1419,6.1047,6.0926,6.0828,6.0757,6.0763,6.0763,6.0808,6.0796,6.0722,6.0703,6.0691,6.066,6.0629,6.0623,6.0648,6.0648,6.0673,6.0685,6.0703,6.071,6.0728,6.0769,6.0781,6.0775,6.0769,6.0757,6.0757,8.2292,8.2176,8.1005,8.0302,7.9875,7.8508,7.839,7.8858,7.7726,7.7257,7.761,7.7218,7.6906,7.6789,7.6867,7.7257,7.7415,7.7962,7.8663,7.9053,7.917,7.8897,7.8469,7.8118,7.7844,7.7843,7.7765,7.8001,7.8313,7.8429,7.9366,7.9639,7.8702,7.7884,7.7649,7.8001,7.8194,7.835,7.7884,7.7415,7.7181,7.6244,7.5658,7.5385,7.4544,7.4414,7.4353,7.448,7.4081,7.3791,7.412,7.4131,7.4157,7.4524,7.4803,7.4938,7.5141,7.5137,7.4654,7.3738,7.3053,7.2969,7.2706,7.2437,7.2283,7.2392,7.2101,7.1934,7.1605,7.1137,7.0503,6.9836,6.9208,6.8939,6.8625,6.822,6.793,6.7741,6.7266,6.66,6.6315,6.6235,6.5807,6.5301,6.453,6.3757,6.2695,6.1825,6.1524,6.1223,6.1191,6.1158,6.1158,6.0922,6.0922,6.0788,6.0693,6.0642,6.0623,6.0591,6.0597,6.0623,6.0642,6.0597,6.0591,6.0617,6.0629,6.0648,6.0679,6.0728,6.0752,6.0763,6.0752,6.0766,6.0716,8.2292,8.2253,8.163,8.1241,8.0811,7.9406,7.9131,7.9405,7.8468,7.7687,7.7453,7.7257,7.7296,7.7414,7.7532,7.7999,7.8624,7.9133,7.9561,7.9912,7.999,7.9678,7.9289,7.8938,7.8742,7.8311,7.8429,7.8899,7.9367,7.96,7.9873,7.9951,7.9718,7.8977,7.8702,7.8546,7.9092,7.9366,7.9209,7.878,7.8546,7.7766,7.7103,7.6936,7.621,7.5769,7.5557,7.5393,7.4504,7.4043,7.3884,7.3745,7.3774,7.3991,7.456,7.4954,7.5377,7.5769,7.504,7.4608,7.3692,7.343,7.3392,7.3353,7.3469,7.3301,7.2489,7.2575,7.2239,7.1734,7.0976,7.0646,7.0155,6.9932,6.9573,6.9206,6.8731,6.8441,6.7897,6.7354,6.7024,6.6511,6.6167,6.5662,6.4921,6.4151,6.3225,6.2503,6.2305,6.2036,6.1838,6.1799,6.1761,6.1403,6.1051,6.1179,6.1179,6.0604,6.0552,6.0571,6.0558,6.0578,6.0571,6.0506,6.0506,6.0578,6.0604,6.0623,6.0635,6.0697,6.0703,6.0697,6.0679,6.0654,6.0642,8.2292,8.2292,8.2254,8.1747,8.1005,8.0068,7.9756,7.9951,7.9639,7.9092,7.835,7.7687,7.7726,7.8274,7.8391,7.8899,7.9678,8.0381,8.081,8.0888,8.0966,8.0888,8.0537,8.0107,7.9717,8.0459,8.0185,8.0029,8.0577,8.0341,8.0146,8.0224,8.0499,8.0693,8.0771,8.0029,7.9715,7.9715,7.9795,7.9678,7.9598,7.9242,7.8996,7.8665,7.7823,7.7152,7.6976,7.6152,7.5276,7.4637,7.4385,7.4302,7.4221,7.4252,7.4456,7.4527,7.5348,7.5042,7.3668,7.4242,7.4125,7.3587,7.3418,7.3433,7.3286,7.2912,7.2508,7.2578,7.2318,7.1896,7.1728,7.1605,7.0984,7.0624,7.0218,6.9965,6.9498,6.9253,6.8748,6.8174,6.7363,6.672,6.6376,6.5941,6.5212,6.4426,6.3632,6.3217,6.3043,6.2685,6.2365,6.232,6.2236,6.209,6.1822,6.1779,6.1587,6.0928,6.0588,6.0651,6.0561,6.0477,6.0425,6.0405,6.0432,6.048,6.0545,6.0571,6.0565,6.0585,6.0649,6.0649,6.0629,6.0578,6.0565,8.2292,8.2292,8.2292,8.2136,8.1747,8.0927,8.0849,8.1238,8.081,8.0068,7.9366,7.8897,7.8936,7.9209,7.9326,7.9717,8.0537,8.0732,8.1124,8.1825,8.1786,8.1396,8.1083,8.081,8.0498,8.0302,8.0224,8.0302,8.0029,8.0691,8.0927,8.0966,8.1272,8.1786,8.163,8.1122,8.0771,8.12,8.0966,8.0537,8.0491,7.9979,7.9588,7.9541,7.8489,7.7918,7.7783,7.6777,7.5785,7.5025,7.4756,7.4497,7.4105,7.399,7.386,7.3937,7.4513,7.4797,7.4174,7.4413,7.4113,7.3622,7.3299,7.3338,7.32,7.3077,7.2763,7.2418,7.2149,7.1642,7.1013,7.0882,7.053,7.053,7.0306,7.0306,7.0069,7.0023,6.9709,6.9105,6.8394,6.7439,6.6904,6.6483,6.5779,6.5221,6.4492,6.4032,6.382,6.3193,6.2751,6.2713,6.2713,6.2682,6.2626,6.2585,6.2209,6.1548,6.1145,6.1016,6.0842,6.0644,6.046,6.0505,6.0443,6.0418,6.0592,6.0689,6.0522,6.0453,6.0844,6.0756,6.052,6.0506,6.0493,8.2292,8.2292,8.2292,8.2292,8.2214,8.1708,8.1786,8.2058,8.1122,8.0341,8.0107,7.9873,7.9912,8.0068,8.0224,8.0615,8.1396,8.1474,8.1591,8.2292,8.2292,8.1942,8.163,8.1435,8.1278,8.0888,8.1005,8.1161,8.0886,8.1784,8.1864,8.1664,8.1955,8.2051,8.1941,8.1684,8.1613,8.1832,8.1499,8.1283,8.1087,8.0676,8.0274,7.9971,7.9253,7.8361,7.7794,7.6934,7.5941,7.5311,7.4881,7.4703,7.4251,7.4051,7.3921,7.3974,7.3704,7.421,7.4333,7.3956,7.3619,7.319,7.3161,7.32,7.3085,7.2801,7.2647,7.2332,7.1909,7.1478,7.0932,7.0754,7.0602,7.061,7.0411,7.0381,7.0381,7.0296,7.0258,6.9693,6.9082,6.8203,6.7439,6.6942,6.643,6.5925,6.5421,6.5031,6.4657,6.4038,6.3541,6.3579,6.3579,6.364,6.3571,6.3387,6.2921,6.2166,6.1898,6.1745,6.144,6.1325,6.0943,6.0644,6.0842,6.0964,6.0881,6.0881,6.1041,6.1284,6.1618,6.1294,6.0637,6.0554,6.07,8.2292,8.2292,8.2292,8.2292,8.2292,8.2214,8.2253,8.2175,8.0613,8.0381,8.1005,8.0263,8.042,8.0966,8.1044,8.1435,8.202,8.2136,8.2331,8.2331,8.2371,8.2292,8.2448,8.2371,8.2332,8.2371,8.2446,8.2557,8.2365,8.2593,8.2559,8.2405,8.2485,8.2533,8.2431,8.2418,8.2273,8.2038,8.1861,8.1739,8.1664,8.1484,8.1325,8.0963,8.0249,7.9321,7.8584,7.7667,7.6855,7.6263,7.5833,7.5825,7.5779,7.5763,7.5192,7.4574,7.3802,7.3904,7.4273,7.3887,7.3297,7.3084,7.3144,7.3169,7.2969,7.2531,7.2269,7.2161,7.186,7.1683,7.1421,7.1221,7.0992,7.0763,7.0449,7.0411,7.0411,7.0372,7.0372,6.999,6.9464,6.8776,6.8165,6.763,6.7171,6.6827,6.6407,6.6025,6.5605,6.5146,6.4764,6.4764,6.4764,6.4764,6.458,6.4236,6.374,6.3083,6.2892,6.2739,6.2395,6.2013,6.1784,6.1554,6.1516,6.1554,6.1631,6.1784,6.1936,6.218,6.2316,6.2049,6.1437,6.1162,6.1117,8.2292,8.2292,8.2292,8.2292,8.2292,8.2292,8.2292,8.2214,8.1706,8.1747,8.1903,8.1669,8.1591,8.1903,8.1942,8.2097,8.2253,8.2411,8.2723,8.2801,8.2762,8.323,8.3461,8.3458,8.3617,8.3808,8.3957,8.3766,8.3738,8.3679,8.3571,8.3644,8.3308,8.3308,8.3338,8.3438,8.2733,8.2159,8.1947,8.2053,8.2032,8.1713,8.1821,8.162,8.0607,7.9776,7.92,7.8359,7.7686,7.7423,7.6765,7.6493,7.6446,7.594,7.5408,7.5897,7.4983,7.4257,7.4847,7.4372,7.3819,7.3476,7.3314,7.3084,7.2825,7.2557,7.212,7.2027,7.1866,7.1612,7.1527,7.1336,7.1145,7.0877,7.064,7.0563,7.0563,7.0602,7.0602,7.0449,6.9922,6.9387,6.8814,6.8356,6.7935,6.7706,6.74,6.7018,6.6483,6.5987,6.5452,6.5413,6.5337,6.5146,6.5184,6.4962,6.4504,6.4084,6.3893,6.3541,6.3006,6.2701,6.2586,6.2433,6.2319,6.2395,6.2502,6.2655,6.2777,6.2693,6.2784,6.2548,6.2319,6.2051,6.186,8.1981,8.2292,8.2292,8.2292,8.2292,8.2292,8.2292,8.2292,8.2292,8.2292,8.2292,8.2253,8.2489,8.2762,8.2801,8.2996,8.3346,8.3463,8.3699,8.3738,8.3417,8.3904,8.421,8.423,8.4153,8.4504,8.4548,8.4207,8.4384,8.4208,8.4037,8.3998,8.404,8.3948,8.3777,8.3547,8.3186,8.2587,8.2217,8.2229,8.2013,8.1666,8.1767,8.187,8.0646,8.0166,7.9885,7.9088,7.8564,7.8211,7.7453,7.7247,7.7217,7.6797,7.6618,7.7,7.6532,7.615,7.6426,7.615,7.5501,7.5004,7.4584,7.4592,7.3951,7.3501,7.2843,7.2338,7.1909,7.1565,7.1489,7.1412,7.1221,7.0992,7.0877,7.0763,7.0801,7.0801,7.0801,7.0801,7.0457,6.9922,6.9464,6.9043,6.8699,6.8508,6.8279,6.7935,6.7286,6.656,6.5872,6.5452,6.5413,6.5337,6.5452,6.5605,6.5184,6.4886,6.4726,6.4344,6.3732,6.3656,6.3847,6.3503,6.3045,6.3236,6.3465,6.3465,6.3503,6.3618,6.384,6.3885,6.3579,6.2923,6.2808,8.1591,8.2292,8.2292,8.229,8.2292,8.229,8.2323,8.236,8.2431,8.2404,8.2446,8.2411,8.2879,8.3504,8.3621,8.3972,8.4196,8.4345,8.4447,8.4815,8.4381,8.4577,8.4832,8.4603,8.4747,8.4508,8.4515,8.4893,8.4372,8.4383,8.4411,8.4034,8.4091,8.4141,8.4173,8.4047,8.3866,8.3643,8.2994,8.2663,8.2128,8.1594,8.1235,8.1836,8.1303,8.0673,8.0587,8.0025,7.9186,7.8679,7.8262,7.8153,7.8114,7.7876,7.7879,7.7984,7.7755,7.7717,7.7678,7.7526,7.7555,7.7335,7.7258,7.6647,7.573,7.4201,7.3284,7.2979,7.2635,7.2367,7.2253,7.2253,7.21,7.1909,7.1756,7.1412,7.1068,7.1221,7.145,7.145,7.145,7.0954,7.0495,7.0113,6.9769,6.9502,6.9196,6.8852,6.8241,6.74,6.6789,6.6063,6.6101,6.6185,6.6185,6.6224,6.5872,6.5643,6.5528,6.5108,6.4496,6.4726,6.5192,6.484,6.4496,6.4305,6.4382,6.4535,6.4879,6.5337,6.5528,6.5452,6.4993,6.4222,6.3878,8.2098,8.2292,8.2239,8.228,8.2289,8.2239,8.2499,8.289,8.295,8.3084,8.3183,8.3264,8.3651,8.4341,8.4419,8.4691,8.4806,8.5019,8.5036,8.5075,8.495,8.5276,8.5809,8.5374,8.5427,8.5872,8.5957,8.561,8.5387,8.5298,8.5277,8.5269,8.5113,8.4989,8.4975,8.4871,8.4805,8.4643,8.4105,8.3358,8.2739,8.2238,8.1981,8.2078,8.1677,8.1105,8.0933,8.0724,8.0294,7.9941,7.9282,7.9081,7.9014,7.8414,7.8748,7.9398,7.8787,7.8672,7.871,7.8557,7.8328,7.8137,7.787,7.7755,7.6876,7.5042,7.3972,7.3819,7.3552,7.3284,7.3132,7.3102,7.3025,7.2826,7.2635,7.2062,7.1497,7.1764,7.2062,7.2253,7.2376,7.2024,7.1527,7.1145,7.0877,7.0572,7.0228,6.9846,6.9273,6.8585,6.8203,6.763,6.737,6.7332,6.7141,6.6911,6.6636,6.6483,6.6407,6.5872,6.5299,6.5719,6.6216,6.6254,6.6063,6.5796,6.5719,6.6025,6.6445,6.6713,6.6674,6.6407,6.6369,6.5826,6.5413,8.0666,8.101,8.1295,8.163,8.1957,8.1919,8.2275,8.2872,8.2941,8.3478,8.416,8.4062,8.4305,8.5046,8.512,8.5409,8.5513,8.5591,8.5864,8.5888,8.569,8.5905,8.6056,8.5962,8.588,8.6187,8.6158,8.5968,8.5983,8.5763,8.559,8.5686,8.5686,8.5667,8.5647,8.5599,8.558,8.5435,8.4976,8.4242,8.3283,8.25,8.2042,8.2014,8.1575,8.1156,8.1385,8.1308,8.1194,8.1041,8.0621,8.0515,8.0286,7.9704,7.9665,7.9933,7.9742,7.9321,7.9513,7.936,7.8978,7.8939,7.8634,7.8596,7.8404,7.6761,7.5844,7.5577,7.4775,7.4439,7.4401,7.4401,7.3972,7.3705,7.3552,7.3208,7.2788,7.2673,7.3017,7.3323,7.317,7.2635,7.2138,7.165,7.1374,7.1107,7.0877,7.0411,6.9922,6.9578,6.9273,6.8967,6.8547,6.8058,6.7637,6.7523,6.7485,6.7362,6.7247,6.7018,6.672,6.698,6.7209,6.7171,6.7171,6.7133,6.7171,6.7247,6.7286,6.7439,6.7362,6.7247,6.7247,6.7209,6.6789,7.8833,7.9558,8.0217,8.0908,8.1592,8.1462,8.1885,8.2616,8.277,8.3644,8.4907,8.4577,8.4937,8.5408,8.567,8.6185,8.6451,8.6221,8.6526,8.6583,8.645,8.6249,8.6131,8.616,8.5966,8.5821,8.5757,8.575,8.5723,8.559,8.5551,8.5511,8.5511,8.5511,8.5511,8.5511,8.5511,8.5511,8.5129,8.4441,8.3419,8.234,8.212,8.1662,8.1079,8.1041,8.1499,8.1767,8.1767,8.169,8.1576,8.1499,8.1194,8.0621,8.0353,8.0391,8.0353,8.02,8.0353,8.0277,8.0238,8.02,7.9751,7.9407,7.9207,7.8596,7.7717,7.7067,7.6274,7.57,7.57,7.5433,7.5004,7.4469,7.4354,7.4278,7.3934,7.359,7.3858,7.424,7.3934,7.3399,7.2864,7.2376,7.1994,7.168,7.1221,7.0793,7.0372,7.0143,6.9876,6.9608,6.9311,6.8776,6.8394,6.8356,6.847,6.8172,6.8088,6.8096,6.8058,6.8088,6.8088,6.8058,6.8058,6.8088,6.8088,6.8088,6.8126,6.8287,6.8165,6.8088,6.8088,6.805,6.7943,7.9291,8.0169,8.0843,8.1265,8.1483,8.1348,8.1703,8.2368,8.3116,8.388,8.4662,8.5417,8.5919,8.65,8.6372,8.6483,8.6413,8.6417,8.6342,8.63,8.6191,8.6011,8.5924,8.5924,8.5731,8.5638,8.557,8.5551,8.557,8.5531,8.5511,8.5511,8.5511,8.5511,8.5511,8.5511,8.5511,8.5511,8.532,8.4747,8.3601,8.276,8.2378,8.1767,8.1003,8.1194,8.1538,8.1767,8.1805,8.1805,8.192,8.1996,8.1767,8.1347,8.0888,8.0735,8.0697,8.0697,8.0735,8.0735,8.0735,8.0697,8.0277,8.0238,7.9933,7.9484,7.8872,7.8681,7.7917,7.7067,7.6838,7.6418,7.5959,7.5195,7.4775,7.4889,7.4783,7.4469,7.4393,7.4775,7.4974,7.4431,7.3934,7.3399,7.2902,7.2444,7.1688,7.1221,7.0648,7.0525,7.0449,7.0181,6.9914,7.0067,6.9952,6.9655,6.9578,6.9234,6.8929,6.8929,6.8929,6.8937,6.8937,6.8937,6.8929,6.8929,6.8929,6.8929,6.9196,6.9311,6.9082,6.8967,6.8929,6.889,6.8814]}]]